Missouri River (Missouri), Jefferson City (06910450)

StateMissouriLatestUnknown (142000 cfs)
RiverMissouri RiverRatingObservedEstimated
Updated2021-04-10 23:45 (19 minutes ago)Flood - The river is flooding. Obstacles can be treacherous or deadly. The river should be avoided at this stage for casual trips and definitely for the inexperienced. Trips should be attempted only with protective gear and equipment.Flood(none)(none)
Discharge142000 cfs (median: 86200 cfs)High - The river is high and potentially dangerous, especially for the young and / or inexperienced. Normal stream obstacles are sometimes difficult to navigate. Extended distances can be attempted, but canoe travel may not be advisable.High(none)(none)
Height17.48 feetGood - Conditions are ideal for a canoe or kayak. Boats typically will drag on fewer than one-quarter of riffles, if at all, and portages are unnecessary or rare. Normal float lengths can be attempted without a problem.Good(none)(none)
TrendRising (rising over 24 hours)Low - River is low but can still be floated. Some riffles are okay but most come with significant dragging and might need a portage. Float lengths should be reduced to accommodate low flow, dragging, and portages.Low(none)(none)
USGSExternal icon USGS Site (External icon Google Maps)Poor - River is too low to float comfortably. Most or all riffles will drag or must be portaged and some obstacles (such as slick shelf rock) cause undue problems. Avoid the river at this stage for casual paddling trips.Poor(none)(none)

Trending Data

Plot Image

Trips for Missouri River (Missouri), Jefferson City (06910450)

DateStartEndDistanceConditionDischargeHeightFishingDetails

A total of 0 rows are displayed.

Condition Descriptions

Fishing Conditions

Fish Species

Notes

Classic Trip List

The classic River Trips application is still available for use. It is updated with the new system using a data retrofit. It is no longer maintained. The original River Trips application is no longer updated (as of 1 Dec 2016) but can be checked for errors or for the condition of the data before it was converted to the new system.

Gauge Data Table

ObservationHeightDischargeMaximum
Discharge
Minimum
Discharge
Mean
Discharge
P05P10P20P25P50
(Median)
P75P80P90P95
2021-04-10 23:45 17.48 142000 163000 (2017) 62800 (2016) 105000 63500 64100 88200 163000 163000
2021-04-10 22:45 17.20 139000 163000 (2017) 62800 (2016) 105000 63500 64100 88200 163000 163000
2021-04-10 21:45 16.92 135000 163000 (2017) 62800 (2016) 105000 63500 64100 88200 163000 163000
2021-04-10 20:45 16.62 132000 163000 (2017) 62800 (2016) 105000 63500 64100 88200 163000 163000
2021-04-10 19:45 16.31 128000 163000 (2017) 62800 (2016) 105000 63500 64100 88200 163000 163000
2021-04-10 18:45 15.99 124000 163000 (2017) 62800 (2016) 105000 63500 64100 88200 163000 163000
2021-04-10 17:45 15.67 120000 163000 (2017) 62800 (2016) 105000 63500 64100 88200 163000 163000
2021-04-10 16:45 15.37 117000 163000 (2017) 62800 (2016) 105000 63500 64100 88200 163000 163000
2021-04-10 15:45 15.09 114000 163000 (2017) 62800 (2016) 105000 63500 64100 88200 163000 163000
2021-04-10 14:45 14.85 111000 163000 (2017) 62800 (2016) 105000 63500 64100 88200 163000 163000
2021-04-10 13:45 14.66 109000 163000 (2017) 62800 (2016) 105000 63500 64100 88200 163000 163000
2021-04-10 12:45 14.48 108000 163000 (2017) 62800 (2016) 105000 63500 64100 88200 163000 163000
2021-04-10 11:45 14.31 106000 163000 (2017) 62800 (2016) 105000 63500 64100 88200 163000 163000
2021-04-10 10:45 14.16 105000 163000 (2017) 62800 (2016) 105000 63500 64100 88200 163000 163000
2021-04-10 09:45 14.06 104000 163000 (2017) 62800 (2016) 105000 63500 64100 88200 163000 163000
2021-04-10 08:45 14.00 103000 163000 (2017) 62800 (2016) 105000 63500 64100 88200 163000 163000
2021-04-10 07:45 13.94 103000 163000 (2017) 62800 (2016) 105000 63500 64100 88200 163000 163000
2021-04-10 06:45 13.93 103000 163000 (2017) 62800 (2016) 105000 63500 64100 88200 163000 163000
2021-04-10 05:45 13.91 102000 163000 (2017) 62800 (2016) 105000 63500 64100 88200 163000 163000
2021-04-10 04:45 13.89 102000 163000 (2017) 62800 (2016) 105000 63500 64100 88200 163000 163000
2021-04-10 03:45 13.87 102000 163000 (2017) 62800 (2016) 105000 63500 64100 88200 163000 163000
2021-04-10 02:45 13.84 102000 163000 (2017) 62800 (2016) 105000 63500 64100 88200 163000 163000
2021-04-10 01:45 13.84 102000 163000 (2017) 62800 (2016) 105000 63500 64100 88200 163000 163000
2021-04-10 00:45 13.85 102000 163000 (2017) 62800 (2016) 105000 63500 64100 88200 163000 163000
2021-04-09 23:45 13.91 102000 188000 (2017) 63800 (2016) 111000 64400 64800 91300 173000 180000
2021-04-09 22:45 13.90 102000 188000 (2017) 63800 (2016) 111000 64400 64800 91300 173000 180000
2021-04-09 21:45 13.87 102000 188000 (2017) 63800 (2016) 111000 64400 64800 91300 173000 180000
2021-04-09 20:45 13.89 102000 188000 (2017) 63800 (2016) 111000 64400 64800 91300 173000 180000
2021-04-09 19:45 13.90 102000 188000 (2017) 63800 (2016) 111000 64400 64800 91300 173000 180000
2021-04-09 18:45 13.90 102000 188000 (2017) 63800 (2016) 111000 64400 64800 91300 173000 180000
2021-04-09 17:45 13.87 102000 188000 (2017) 63800 (2016) 111000 64400 64800 91300 173000 180000
2021-04-09 16:45 13.90 102000 188000 (2017) 63800 (2016) 111000 64400 64800 91300 173000 180000
2021-04-09 15:45 13.89 102000 188000 (2017) 63800 (2016) 111000 64400 64800 91300 173000 180000
2021-04-09 14:45 13.85 102000 188000 (2017) 63800 (2016) 111000 64400 64800 91300 173000 180000
2021-04-09 13:45 13.89 102000 188000 (2017) 63800 (2016) 111000 64400 64800 91300 173000 180000
2021-04-09 12:45 13.87 102000 188000 (2017) 63800 (2016) 111000 64400 64800 91300 173000 180000
2021-04-09 11:45 13.85 102000 188000 (2017) 63800 (2016) 111000 64400 64800 91300 173000 180000
2021-04-09 10:45 13.80 101000 188000 (2017) 63800 (2016) 111000 64400 64800 91300 173000 180000
2021-04-09 09:45 13.80 101000 188000 (2017) 63800 (2016) 111000 64400 64800 91300 173000 180000
2021-04-09 08:45 13.76 101000 188000 (2017) 63800 (2016) 111000 64400 64800 91300 173000 180000
2021-04-09 07:45 13.75 101000 188000 (2017) 63800 (2016) 111000 64400 64800 91300 173000 180000
2021-04-09 06:45 13.75 101000 188000 (2017) 63800 (2016) 111000 64400 64800 91300 173000 180000
2021-04-09 05:45 13.74 101000 188000 (2017) 63800 (2016) 111000 64400 64800 91300 173000 180000
2021-04-09 04:45 13.70 101000 188000 (2017) 63800 (2016) 111000 64400 64800 91300 173000 180000
2021-04-09 03:45 13.70 101000 188000 (2017) 63800 (2016) 111000 64400 64800 91300 173000 180000
2021-04-09 02:45 13.64 100000 188000 (2017) 63800 (2016) 111000 64400 64800 91300 173000 180000
2021-04-09 01:45 13.61 99800 188000 (2017) 63800 (2016) 111000 64400 64800 91300 173000 180000
2021-04-09 00:45 13.57 99400 188000 (2017) 63800 (2016) 111000 64400 64800 91300 173000 180000
2021-04-08 23:45 13.50 98800 212000 (2017) 64100 (2016) 118000 66100 67800 94900 183000 196000
2021-04-08 22:45 13.46 98400 212000 (2017) 64100 (2016) 118000 66100 67800 94900 183000 196000
2021-04-08 21:45 13.34 97400 212000 (2017) 64100 (2016) 118000 66100 67800 94900 183000 196000
2021-04-08 20:45 13.43 98100 212000 (2017) 64100 (2016) 118000 66100 67800 94900 183000 196000
2021-04-08 19:45 13.36 97600 212000 (2017) 64100 (2016) 118000 66100 67800 94900 183000 196000
2021-04-08 18:45 13.29 96900 212000 (2017) 64100 (2016) 118000 66100 67800 94900 183000 196000
2021-04-08 17:45 13.28 96800 212000 (2017) 64100 (2016) 118000 66100 67800 94900 183000 196000
2021-04-08 16:45 13.20 96100 212000 (2017) 64100 (2016) 118000 66100 67800 94900 183000 196000
2021-04-08 15:45 13.21 96200 212000 (2017) 64100 (2016) 118000 66100 67800 94900 183000 196000
2021-04-08 14:45 13.18 95900 212000 (2017) 64100 (2016) 118000 66100 67800 94900 183000 196000
2021-04-08 13:45 13.18 95900 212000 (2017) 64100 (2016) 118000 66100 67800 94900 183000 196000
2021-04-08 12:45 13.11 95400 212000 (2017) 64100 (2016) 118000 66100 67800 94900 183000 196000
2021-04-08 11:45 13.11 95400 212000 (2017) 64100 (2016) 118000 66100 67800 94900 183000 196000
2021-04-08 10:45 13.06 94900 212000 (2017) 64100 (2016) 118000 66100 67800 94900 183000 196000
2021-04-08 09:45 12.99 94300 212000 (2017) 64100 (2016) 118000 66100 67800 94900 183000 196000
2021-04-08 08:45 12.96 94100 212000 (2017) 64100 (2016) 118000 66100 67800 94900 183000 196000
2021-04-08 07:45 12.91 93600 212000 (2017) 64100 (2016) 118000 66100 67800 94900 183000 196000
2021-04-08 06:45 12.87 93300 212000 (2017) 64100 (2016) 118000 66100 67800 94900 183000 196000
2021-04-08 05:45 12.77 92400 212000 (2017) 64100 (2016) 118000 66100 67800 94900 183000 196000
2021-04-08 04:45 12.67 91600 212000 (2017) 64100 (2016) 118000 66100 67800 94900 183000 196000
2021-04-08 03:45 12.61 91100 212000 (2017) 64100 (2016) 118000 66100 67800 94900 183000 196000
2021-04-08 02:45 12.51 90300 212000 (2017) 64100 (2016) 118000 66100 67800 94900 183000 196000
2021-04-08 01:45 12.41 89400 212000 (2017) 64100 (2016) 118000 66100 67800 94900 183000 196000
2021-04-08 00:45 12.32 88700 212000 (2017) 64100 (2016) 118000 66100 67800 94900 183000 196000
2021-04-07 23:45 12.21 87800 217000 (2017) 55300 (2015) 119000 58800 61800 96900 193000 204000
2021-04-07 22:45 12.12 87100 217000 (2017) 55300 (2015) 119000 58800 61800 96900 193000 204000
2021-04-07 21:45 12.01 86200 217000 (2017) 55300 (2015) 119000 58800 61800 96900 193000 204000
2021-04-07 19:45 11.82 84700 217000 (2017) 55300 (2015) 119000 58800 61800 96900 193000 204000
2021-04-07 18:45 11.74 84100 217000 (2017) 55300 (2015) 119000 58800 61800 96900 193000 204000
2021-04-07 17:45 11.68 83600 217000 (2017) 55300 (2015) 119000 58800 61800 96900 193000 204000
2021-04-07 16:45 11.59 82900 217000 (2017) 55300 (2015) 119000 58800 61800 96900 193000 204000
2021-04-07 15:45 11.56 82700 217000 (2017) 55300 (2015) 119000 58800 61800 96900 193000 204000
2021-04-07 14:45 11.50 82200 217000 (2017) 55300 (2015) 119000 58800 61800 96900 193000 204000
2021-04-07 13:45 11.53 82400 217000 (2017) 55300 (2015) 119000 58800 61800 96900 193000 204000
2021-04-07 12:45 11.47 82000 217000 (2017) 55300 (2015) 119000 58800 61800 96900 193000 204000
2021-04-07 11:45 11.48 82000 217000 (2017) 55300 (2015) 119000 58800 61800 96900 193000 204000
2021-04-07 10:45 11.49 82100 217000 (2017) 55300 (2015) 119000 58800 61800 96900 193000 204000
2021-04-07 09:45 11.46 81900 217000 (2017) 55300 (2015) 119000 58800 61800 96900 193000 204000
2021-04-07 08:45 11.40 81400 217000 (2017) 55300 (2015) 119000 58800 61800 96900 193000 204000
2021-04-07 07:45 11.40 81400 217000 (2017) 55300 (2015) 119000 58800 61800 96900 193000 204000
2021-04-07 06:45 11.40 81400 217000 (2017) 55300 (2015) 119000 58800 61800 96900 193000 204000
2021-04-07 05:45 11.40 81400 217000 (2017) 55300 (2015) 119000 58800 61800 96900 193000 204000
2021-04-07 04:45 11.40 81400 217000 (2017) 55300 (2015) 119000 58800 61800 96900 193000 204000
2021-04-07 03:45 11.42 81600 217000 (2017) 55300 (2015) 119000 58800 61800 96900 193000 204000
2021-04-07 02:45 11.41 81500 217000 (2017) 55300 (2015) 119000 58800 61800 96900 193000 204000
2021-04-07 01:45 11.46 81900 217000 (2017) 55300 (2015) 119000 58800 61800 96900 193000 204000
2021-04-07 00:45 11.46 81900 217000 (2017) 55300 (2015) 119000 58800 61800 96900 193000 204000
2021-04-06 23:45 11.50 82200 203000 (2019) 55200 (2015) 117000 58600 61600 96600 190000 196000
2021-04-06 22:45 11.49 82100 203000 (2019) 55200 (2015) 117000 58600 61600 96600 190000 196000
2021-04-06 21:45 11.50 82200 203000 (2019) 55200 (2015) 117000 58600 61600 96600 190000 196000
2021-04-06 20:45 11.49 82100 203000 (2019) 55200 (2015) 117000 58600 61600 96600 190000 196000
2021-04-06 19:45 11.53 82400 203000 (2019) 55200 (2015) 117000 58600 61600 96600 190000 196000
2021-04-06 18:45 11.53 82400 203000 (2019) 55200 (2015) 117000 58600 61600 96600 190000 196000
2021-04-06 17:45 11.51 82300 203000 (2019) 55200 (2015) 117000 58600 61600 96600 190000 196000
2021-04-06 16:45 11.52 82400 203000 (2019) 55200 (2015) 117000 58600 61600 96600 190000 196000
2021-04-06 15:45 11.50 82200 203000 (2019) 55200 (2015) 117000 58600 61600 96600 190000 196000
2021-04-06 14:45 11.53 82400 203000 (2019) 55200 (2015) 117000 58600 61600 96600 190000 196000
2021-04-06 13:45 11.51 82300 203000 (2019) 55200 (2015) 117000 58600 61600 96600 190000 196000
2021-04-06 12:45 11.53 82400 203000 (2019) 55200 (2015) 117000 58600 61600 96600 190000 196000
2021-04-06 11:45 11.52 82400 203000 (2019) 55200 (2015) 117000 58600 61600 96600 190000 196000
2021-04-06 10:45 11.52 82400 203000 (2019) 55200 (2015) 117000 58600 61600 96600 190000 196000
2021-04-06 09:45 11.55 82600 203000 (2019) 55200 (2015) 117000 58600 61600 96600 190000 196000
2021-04-06 08:45 11.55 82600 203000 (2019) 55200 (2015) 117000 58600 61600 96600 190000 196000
2021-04-06 07:45 11.57 82700 203000 (2019) 55200 (2015) 117000 58600 61600 96600 190000 196000
2021-04-06 06:45 11.58 82800 203000 (2019) 55200 (2015) 117000 58600 61600 96600 190000 196000
2021-04-06 05:45 11.58 82800 203000 (2019) 55200 (2015) 117000 58600 61600 96600 190000 196000
2021-04-06 04:45 11.61 83100 203000 (2019) 55200 (2015) 117000 58600 61600 96600 190000 196000
2021-04-06 03:45 11.61 83100 203000 (2019) 55200 (2015) 117000 58600 61600 96600 190000 196000
2021-04-06 02:45 11.59 82900 203000 (2019) 55200 (2015) 117000 58600 61600 96600 190000 196000
2021-04-06 01:45 11.65 83400 203000 (2019) 55200 (2015) 117000 58600 61600 96600 190000 196000
2021-04-06 00:45 11.65 83400 203000 (2019) 55200 (2015) 117000 58600 61600 96600 190000 196000
2021-04-05 23:45 11.67 83500 231000 (2019) 59400 (2015) 113000 60800 62000 95300 160000 193000
2021-04-05 22:45 11.67 83500 231000 (2019) 59400 (2015) 113000 60800 62000 95300 160000 193000
2021-04-05 21:45 11.70 83800 231000 (2019) 59400 (2015) 113000 60800 62000 95300 160000 193000
2021-04-05 20:45 11.71 83800 231000 (2019) 59400 (2015) 113000 60800 62000 95300 160000 193000
2021-04-05 19:45 11.68 83600 231000 (2019) 59400 (2015) 113000 60800 62000 95300 160000 193000
2021-04-05 18:45 11.71 83800 231000 (2019) 59400 (2015) 113000 60800 62000 95300 160000 193000
2021-04-05 17:45 11.70 83800 231000 (2019) 59400 (2015) 113000 60800 62000 95300 160000 193000
2021-04-05 16:45 11.72 83900 231000 (2019) 59400 (2015) 113000 60800 62000 95300 160000 193000
2021-04-05 15:45 11.76 84200 231000 (2019) 59400 (2015) 113000 60800 62000 95300 160000 193000
2021-04-05 14:45 11.76 84200 231000 (2019) 59400 (2015) 113000 60800 62000 95300 160000 193000
2021-04-05 13:45 11.78 84400 231000 (2019) 59400 (2015) 113000 60800 62000 95300 160000 193000
2021-04-05 12:45 11.80 84500 231000 (2019) 59400 (2015) 113000 60800 62000 95300 160000 193000
2021-04-05 11:45 11.82 84700 231000 (2019) 59400 (2015) 113000 60800 62000 95300 160000 193000
2021-04-05 10:45 11.80 84500 231000 (2019) 59400 (2015) 113000 60800 62000 95300 160000 193000
2021-04-05 09:45 11.83 84800 231000 (2019) 59400 (2015) 113000 60800 62000 95300 160000 193000
2021-04-05 08:45 11.85 84900 231000 (2019) 59400 (2015) 113000 60800 62000 95300 160000 193000
2021-04-05 07:45 11.91 85400 231000 (2019) 59400 (2015) 113000 60800 62000 95300 160000 193000
2021-04-05 06:45 11.90 85300 231000 (2019) 59400 (2015) 113000 60800 62000 95300 160000 193000
2021-04-05 05:45 11.90 85300 231000 (2019) 59400 (2015) 113000 60800 62000 95300 160000 193000
2021-04-05 04:45 11.94 85600 231000 (2019) 59400 (2015) 113000 60800 62000 95300 160000 193000
2021-04-05 03:45 11.93 85600 231000 (2019) 59400 (2015) 113000 60800 62000 95300 160000 193000
2021-04-05 02:45 11.96 85800 231000 (2019) 59400 (2015) 113000 60800 62000 95300 160000 193000
2021-04-05 01:45 11.99 86000 231000 (2019) 59400 (2015) 113000 60800 62000 95300 160000 193000
2021-04-05 00:45 12.02 86300 231000 (2019) 59400 (2015) 113000 60800 62000 95300 160000 193000
2021-04-04 23:45 12.03 86400 264000 (2019) 60200 (2015) 114000 61100 61900 89000 154000 205000
2021-04-04 22:45 12.04 86400 264000 (2019) 60200 (2015) 114000 61100 61900 89000 154000 205000
2021-04-04 21:45 12.07 86700 264000 (2019) 60200 (2015) 114000 61100 61900 89000 154000 205000
2021-04-04 20:45 12.05 86500 264000 (2019) 60200 (2015) 114000 61100 61900 89000 154000 205000
2021-04-04 19:45 12.08 86800 264000 (2019) 60200 (2015) 114000 61100 61900 89000 154000 205000
2021-04-04 18:45 12.10 86900 264000 (2019) 60200 (2015) 114000 61100 61900 89000 154000 205000
2021-04-04 17:45 12.12 87100 264000 (2019) 60200 (2015) 114000 61100 61900 89000 154000 205000
2021-04-04 16:45 12.13 87200 264000 (2019) 60200 (2015) 114000 61100 61900 89000 154000 205000
2021-04-04 15:45 12.16 87400 264000 (2019) 60200 (2015) 114000 61100 61900 89000 154000 205000
2021-04-04 14:45 12.19 87600 264000 (2019) 60200 (2015) 114000 61100 61900 89000 154000 205000
2021-04-04 13:45 12.19 87600 264000 (2019) 60200 (2015) 114000 61100 61900 89000 154000 205000
2021-04-04 12:45 12.19 87600 264000 (2019) 60200 (2015) 114000 61100 61900 89000 154000 205000
2021-04-04 11:45 12.20 87700 264000 (2019) 60200 (2015) 114000 61100 61900 89000 154000 205000
2021-04-04 10:45 12.21 87800 264000 (2019) 60200 (2015) 114000 61100 61900 89000 154000 205000
2021-04-04 09:45 12.24 88100 264000 (2019) 60200 (2015) 114000 61100 61900 89000 154000 205000
2021-04-04 08:45 12.24 88100 264000 (2019) 60200 (2015) 114000 61100 61900 89000 154000 205000
2021-04-04 07:45 12.24 88100 264000 (2019) 60200 (2015) 114000 61100 61900 89000 154000 205000
2021-04-04 06:45 12.27 88300 264000 (2019) 60200 (2015) 114000 61100 61900 89000 154000 205000
2021-04-04 05:45 12.25 88100 264000 (2019) 60200 (2015) 114000 61100 61900 89000 154000 205000
2021-04-04 04:45 12.28 88400 264000 (2019) 60200 (2015) 114000 61100 61900 89000 154000 205000
2021-04-04 03:45 12.30 88500 264000 (2019) 60200 (2015) 114000 61100 61900 89000 154000 205000
2021-04-04 02:45 12.31 88600 264000 (2019) 60200 (2015) 114000 61100 61900 89000 154000 205000
2021-04-04 01:45 12.33 88800 264000 (2019) 60200 (2015) 114000 61100 61900 89000 154000 205000
2021-04-04 00:45 12.35 88900 264000 (2019) 60200 (2015) 114000 61100 61900 89000 154000 205000
2021-04-03 23:45 12.33 88800 284000 (2019) 56400 (2015) 118000 59200 61600 92700 159000 217000
2021-04-03 22:45 12.32 88700 284000 (2019) 56400 (2015) 118000 59200 61600 92700 159000 217000
2021-04-03 21:45 12.34 88900 284000 (2019) 56400 (2015) 118000 59200 61600 92700 159000 217000
2021-04-03 20:45 12.36 89000 284000 (2019) 56400 (2015) 118000 59200 61600 92700 159000 217000
2021-04-03 19:45 12.37 89100 284000 (2019) 56400 (2015) 118000 59200 61600 92700 159000 217000
2021-04-03 18:45 12.36 89000 284000 (2019) 56400 (2015) 118000 59200 61600 92700 159000 217000
2021-04-03 17:45 12.37 89100 284000 (2019) 56400 (2015) 118000 59200 61600 92700 159000 217000
2021-04-03 16:45 12.40 89400 284000 (2019) 56400 (2015) 118000 59200 61600 92700 159000 217000
2021-04-03 15:45 12.36 89000 284000 (2019) 56400 (2015) 118000 59200 61600 92700 159000 217000
2021-04-03 14:45 12.40 89400 284000 (2019) 56400 (2015) 118000 59200 61600 92700 159000 217000
2021-04-03 13:45 12.42 89500 284000 (2019) 56400 (2015) 118000 59200 61600 92700 159000 217000
2021-04-03 12:45 12.41 89400 284000 (2019) 56400 (2015) 118000 59200 61600 92700 159000 217000
2021-04-03 11:45 12.44 89700 284000 (2019) 56400 (2015) 118000 59200 61600 92700 159000 217000
2021-04-03 10:45 12.44 89700 284000 (2019) 56400 (2015) 118000 59200 61600 92700 159000 217000
2021-04-03 09:45 12.39 89300 284000 (2019) 56400 (2015) 118000 59200 61600 92700 159000 217000
2021-04-03 08:45 12.48 90000 284000 (2019) 56400 (2015) 118000 59200 61600 92700 159000 217000
2021-04-03 07:45 12.47 89900 284000 (2019) 56400 (2015) 118000 59200 61600 92700 159000 217000
2021-04-03 06:45 12.48 90000 284000 (2019) 56400 (2015) 118000 59200 61600 92700 159000 217000
2021-04-03 05:45 12.49 90100 284000 (2019) 56400 (2015) 118000 59200 61600 92700 159000 217000
2021-04-03 04:45 12.50 90200 284000 (2019) 56400 (2015) 118000 59200 61600 92700 159000 217000
2021-04-03 03:45 12.51 90300 284000 (2019) 56400 (2015) 118000 59200 61600 92700 159000 217000
2021-04-03 02:45 12.50 90200 284000 (2019) 56400 (2015) 118000 59200 61600 92700 159000 217000
2021-04-03 01:45 12.54 90500 284000 (2019) 56400 (2015) 118000 59200 61600 92700 159000 217000
2021-04-03 00:45 12.52 90400 284000 (2019) 56400 (2015) 118000 59200 61600 92700 159000 217000
2021-04-02 23:45 12.54 90500 292000 (2019) 51400 (2015) 121000 56600 61200 96100 170000 227000
2021-04-02 22:45 12.57 90800 292000 (2019) 51400 (2015) 121000 56600 61200 96100 170000 227000
2021-04-02 21:45 12.59 90900 292000 (2019) 51400 (2015) 121000 56600 61200 96100 170000 227000
2021-04-02 20:45 12.61 91100 292000 (2019) 51400 (2015) 121000 56600 61200 96100 170000 227000
2021-04-02 19:45 12.61 91100 292000 (2019) 51400 (2015) 121000 56600 61200 96100 170000 227000
2021-04-02 18:45 12.62 91200 292000 (2019) 51400 (2015) 121000 56600 61200 96100 170000 227000
2021-04-02 17:45 12.67 91600 292000 (2019) 51400 (2015) 121000 56600 61200 96100 170000 227000
2021-04-02 16:45 12.67 91600 292000 (2019) 51400 (2015) 121000 56600 61200 96100 170000 227000
2021-04-02 15:45 12.69 91800 292000 (2019) 51400 (2015) 121000 56600 61200 96100 170000 227000
2021-04-02 14:45 12.69 91800 292000 (2019) 51400 (2015) 121000 56600 61200 96100 170000 227000
2021-04-02 13:45 12.71 91900 292000 (2019) 51400 (2015) 121000 56600 61200 96100 170000 227000
2021-04-02 12:45 12.72 92000 292000 (2019) 51400 (2015) 121000 56600 61200 96100 170000 227000
2021-04-02 11:45 12.73 92100 292000 (2019) 51400 (2015) 121000 56600 61200 96100 170000 227000
2021-04-02 10:45 12.75 92300 292000 (2019) 51400 (2015) 121000 56600 61200 96100 170000 227000
2021-04-02 09:45 12.78 92500 292000 (2019) 51400 (2015) 121000 56600 61200 96100 170000 227000
2021-04-02 08:45 12.80 92700 292000 (2019) 51400 (2015) 121000 56600 61200 96100 170000 227000
2021-04-02 07:45 12.81 92800 292000 (2019) 51400 (2015) 121000 56600 61200 96100 170000 227000
2021-04-02 06:45 12.84 93000 292000 (2019) 51400 (2015) 121000 56600 61200 96100 170000 227000
2021-04-02 05:45 12.87 93300 292000 (2019) 51400 (2015) 121000 56600 61200 96100 170000 227000
2021-04-02 04:45 12.90 93500 292000 (2019) 51400 (2015) 121000 56600 61200 96100 170000 227000
2021-04-02 03:45 12.93 93800 292000 (2019) 51400 (2015) 121000 56600 61200 96100 170000 227000
2021-04-02 02:45 12.94 93900 292000 (2019) 51400 (2015) 121000 56600 61200 96100 170000 227000
2021-04-02 01:45 12.99 94300 292000 (2019) 51400 (2015) 121000 56600 61200 96100 170000 227000
2021-04-02 00:45 13.00 94400 292000 (2019) 51400 (2015) 121000 56600 61200 96100 170000 227000
2021-04-01 23:45 13.03 94700 292000 (2019) 52200 (2015) 123000 57500 62200 102000 168000 226000
2021-04-01 22:45 13.06 94900 292000 (2019) 52200 (2015) 123000 57500 62200 102000 168000 226000
2021-04-01 21:45 13.07 95000 292000 (2019) 52200 (2015) 123000 57500 62200 102000 168000 226000
2021-04-01 20:45 13.10 95300 292000 (2019) 52200 (2015) 123000 57500 62200 102000 168000 226000
2021-04-01 19:45 13.17 95800 292000 (2019) 52200 (2015) 123000 57500 62200 102000 168000 226000
2021-04-01 18:45 13.16 95800 292000 (2019) 52200 (2015) 123000 57500 62200 102000 168000 226000
2021-04-01 17:45 13.24 96500 292000 (2019) 52200 (2015) 123000 57500 62200 102000 168000 226000
2021-04-01 16:45 13.27 96700 292000 (2019) 52200 (2015) 123000 57500 62200 102000 168000 226000
2021-04-01 15:45 13.25 96600 292000 (2019) 52200 (2015) 123000 57500 62200 102000 168000 226000
2021-04-01 14:45 13.33 97300 292000 (2019) 52200 (2015) 123000 57500 62200 102000 168000 226000
2021-04-01 13:45 13.34 97400 292000 (2019) 52200 (2015) 123000 57500 62200 102000 168000 226000
2021-04-01 12:45 13.39 97800 292000 (2019) 52200 (2015) 123000 57500 62200 102000 168000 226000
2021-04-01 11:45 13.48 98600 292000 (2019) 52200 (2015) 123000 57500 62200 102000 168000 226000
2021-04-01 10:45 13.51 98900 292000 (2019) 52200 (2015) 123000 57500 62200 102000 168000 226000
2021-04-01 09:45 13.56 99300 292000 (2019) 52200 (2015) 123000 57500 62200 102000 168000 226000
2021-04-01 08:45 13.59 99600 292000 (2019) 52200 (2015) 123000 57500 62200 102000 168000 226000
2021-04-01 07:45 13.66 100000 292000 (2019) 52200 (2015) 123000 57500 62200 102000 168000 226000
2021-04-01 06:45 13.71 101000 292000 (2019) 52200 (2015) 123000 57500 62200 102000 168000 226000
2021-04-01 05:45 13.73 101000 292000 (2019) 52200 (2015) 123000 57500 62200 102000 168000 226000
2021-04-01 04:45 13.81 102000 292000 (2019) 52200 (2015) 123000 57500 62200 102000 168000 226000
2021-04-01 03:45 13.86 102000 292000 (2019) 52200 (2015) 123000 57500 62200 102000 168000 226000
2021-04-01 02:45 13.91 102000 292000 (2019) 52200 (2015) 123000 57500 62200 102000 168000 226000
2021-04-01 01:45 14.00 103000 292000 (2019) 52200 (2015) 123000 57500 62200 102000 168000 226000
2021-04-01 00:45 14.05 104000 292000 (2019) 52200 (2015) 123000 57500 62200 102000 168000 226000
2021-03-31 23:45 14.14 105000 284000 (2019) 53900 (2015) 119000 59200 63800 90000 167000 222000
2021-03-31 22:45 14.20 105000 284000 (2019) 53900 (2015) 119000 59200 63800 90000 167000 222000
2021-03-31 21:45 14.29 106000 284000 (2019) 53900 (2015) 119000 59200 63800 90000 167000 222000
2021-03-31 20:45 14.39 107000 284000 (2019) 53900 (2015) 119000 59200 63800 90000 167000 222000
2021-03-31 19:45 14.42 107000 284000 (2019) 53900 (2015) 119000 59200 63800 90000 167000 222000
2021-03-31 18:45 14.48 108000 284000 (2019) 53900 (2015) 119000 59200 63800 90000 167000 222000
2021-03-31 17:45 14.56 109000 284000 (2019) 53900 (2015) 119000 59200 63800 90000 167000 222000
2021-03-31 16:45 14.62 109000 284000 (2019) 53900 (2015) 119000 59200 63800 90000 167000 222000
2021-03-31 15:45 14.70 110000 284000 (2019) 53900 (2015) 119000 59200 63800 90000 167000 222000
2021-03-31 14:45 14.78 111000 284000 (2019) 53900 (2015) 119000 59200 63800 90000 167000 222000
2021-03-31 13:45 14.91 112000 284000 (2019) 53900 (2015) 119000 59200 63800 90000 167000 222000
2021-03-31 12:45 14.97 113000 284000 (2019) 53900 (2015) 119000 59200 63800 90000 167000 222000
2021-03-31 11:45 15.01 113000 284000 (2019) 53900 (2015) 119000 59200 63800 90000 167000 222000
2021-03-31 10:45 15.09 114000 284000 (2019) 53900 (2015) 119000 59200 63800 90000 167000 222000
2021-03-31 09:45 15.19 115000 284000 (2019) 53900 (2015) 119000 59200 63800 90000 167000 222000
2021-03-31 08:45 15.22 115000 284000 (2019) 53900 (2015) 119000 59200 63800 90000 167000 222000
2021-03-31 07:45 15.34 117000 284000 (2019) 53900 (2015) 119000 59200 63800 90000 167000 222000
2021-03-31 06:45 15.40 117000 284000 (2019) 53900 (2015) 119000 59200 63800 90000 167000 222000
2021-03-31 05:45 15.49 118000 284000 (2019) 53900 (2015) 119000 59200 63800 90000 167000 222000
2021-03-31 04:45 15.54 119000 284000 (2019) 53900 (2015) 119000 59200 63800 90000 167000 222000
2021-03-31 03:45 15.60 120000 284000 (2019) 53900 (2015) 119000 59200 63800 90000 167000 222000
2021-03-31 02:45 15.67 120000 284000 (2019) 53900 (2015) 119000 59200 63800 90000 167000 222000
2021-03-31 01:45 15.79 122000 284000 (2019) 53900 (2015) 119000 59200 63800 90000 167000 222000
2021-03-31 00:45 15.84 122000 284000 (2019) 53900 (2015) 119000 59200 63800 90000 167000 222000
2021-03-30 23:45 15.85 122000 271000 (2019) 54800 (2015) 117000 60000 64600 84200 171000 218000
2021-03-30 22:45 16.00 124000 271000 (2019) 54800 (2015) 117000 60000 64600 84200 171000 218000
2021-03-30 21:45 16.00 124000 271000 (2019) 54800 (2015) 117000 60000 64600 84200 171000 218000
2021-03-30 20:45 16.02 124000 271000 (2019) 54800 (2015) 117000 60000 64600 84200 171000 218000
2021-03-30 19:45 16.06 125000 271000 (2019) 54800 (2015) 117000 60000 64600 84200 171000 218000
2021-03-30 18:45 16.09 125000 271000 (2019) 54800 (2015) 117000 60000 64600 84200 171000 218000
2021-03-30 17:45 16.15 126000 271000 (2019) 54800 (2015) 117000 60000 64600 84200 171000 218000
2021-03-30 16:45 16.19 126000 271000 (2019) 54800 (2015) 117000 60000 64600 84200 171000 218000
2021-03-30 15:45 16.17 126000 271000 (2019) 54800 (2015) 117000 60000 64600 84200 171000 218000
2021-03-30 14:45 16.20 126000 271000 (2019) 54800 (2015) 117000 60000 64600 84200 171000 218000
2021-03-30 13:45 16.24 128000 271000 (2019) 54800 (2015) 117000 60000 64600 84200 171000 218000
2021-03-30 12:45 16.22 128000 271000 (2019) 54800 (2015) 117000 60000 64600 84200 171000 218000
2021-03-30 11:45 16.22 128000 271000 (2019) 54800 (2015) 117000 60000 64600 84200 171000 218000
2021-03-30 10:45 16.20 128000 271000 (2019) 54800 (2015) 117000 60000 64600 84200 171000 218000
2021-03-30 09:45 16.18 127000 271000 (2019) 54800 (2015) 117000 60000 64600 84200 171000 218000
2021-03-30 08:45 16.23 128000 271000 (2019) 54800 (2015) 117000 60000 64600 84200 171000 218000
2021-03-30 07:45 16.18 127000 271000 (2019) 54800 (2015) 117000 60000 64600 84200 171000 218000
2021-03-30 06:45 16.12 127000 271000 (2019) 54800 (2015) 117000 60000 64600 84200 171000 218000
2021-03-30 05:45 16.11 127000 271000 (2019) 54800 (2015) 117000 60000 64600 84200 171000 218000
2021-03-30 04:45 16.07 126000 271000 (2019) 54800 (2015) 117000 60000 64600 84200 171000 218000
2021-03-30 03:45 16.06 126000 271000 (2019) 54800 (2015) 117000 60000 64600 84200 171000 218000
2021-03-30 02:45 16.00 125000 271000 (2019) 54800 (2015) 117000 60000 64600 84200 171000 218000
2021-03-30 01:45 15.98 125000 271000 (2019) 54800 (2015) 117000 60000 64600 84200 171000 218000
2021-03-30 00:45 15.93 124000 271000 (2019) 54800 (2015) 117000 60000 64600 84200 171000 218000
2021-03-29 23:45 15.84 124000 261000 (2019) 55300 (2015) 115000 58400 61100 79300 180000 218000
2021-03-29 22:45 15.83 123000 261000 (2019) 55300 (2015) 115000 58400 61100 79300 180000 218000
2021-03-29 21:45 15.84 124000 261000 (2019) 55300 (2015) 115000 58400 61100 79300 180000 218000
2021-03-29 20:45 15.77 123000 261000 (2019) 55300 (2015) 115000 58400 61100 79300 180000 218000
2021-03-29 19:45 15.72 122000 261000 (2019) 55300 (2015) 115000 58400 61100 79300 180000 218000
2021-03-29 18:45 15.69 122000 261000 (2019) 55300 (2015) 115000 58400 61100 79300 180000 218000
2021-03-29 17:45 15.63 121000 261000 (2019) 55300 (2015) 115000 58400 61100 79300 180000 218000
2021-03-29 16:45 15.59 121000 261000 (2019) 55300 (2015) 115000 58400 61100 79300 180000 218000
2021-03-29 15:45 15.54 120000 261000 (2019) 55300 (2015) 115000 58400 61100 79300 180000 218000
2021-03-29 14:45 15.52 120000 261000 (2019) 55300 (2015) 115000 58400 61100 79300 180000 218000
2021-03-29 13:45 15.50 120000 261000 (2019) 55300 (2015) 115000 58400 61100 79300 180000 218000
2021-03-29 12:45 15.45 119000 261000 (2019) 55300 (2015) 115000 58400 61100 79300 180000 218000
2021-03-29 11:45 15.47 119000 261000 (2019) 55300 (2015) 115000 58400 61100 79300 180000 218000
2021-03-29 10:45 15.41 119000 261000 (2019) 55300 (2015) 115000 58400 61100 79300 180000 218000
2021-03-29 09:45 15.32 118000 261000 (2019) 55300 (2015) 115000 58400 61100 79300 180000 218000
2021-03-29 08:45 15.38 118000 261000 (2019) 55300 (2015) 115000 58400 61100 79300 180000 218000
2021-03-29 07:45 15.36 118000 261000 (2019) 55300 (2015) 115000 58400 61100 79300 180000 218000
2021-03-29 06:45 15.38 118000 261000 (2019) 55300 (2015) 115000 58400 61100 79300 180000 218000
2021-03-29 05:45 15.37 118000 261000 (2019) 55300 (2015) 115000 58400 61100 79300 180000 218000
2021-03-29 04:45 15.34 118000 261000 (2019) 55300 (2015) 115000 58400 61100 79300 180000 218000
2021-03-29 03:45 15.36 118000 261000 (2019) 55300 (2015) 115000 58400 61100 79300 180000 218000
2021-03-29 02:45 15.30 117000 261000 (2019) 55300 (2015) 115000 58400 61100 79300 180000 218000
2021-03-29 01:45 15.32 118000 261000 (2019) 55300 (2015) 115000 58400 61100 79300 180000 218000
2021-03-29 00:45 15.33 118000 261000 (2019) 55300 (2015) 115000 58400 61100 79300 180000 218000
2021-03-28 23:45 15.32 118000 260000 (2019) 56100 (2017) 113000 56700 57200 80000 174000 214000
2021-03-28 22:45 15.29 117000 260000 (2019) 56100 (2017) 113000 56700 57200 80000 174000 214000
2021-03-28 21:45 15.31 118000 260000 (2019) 56100 (2017) 113000 56700 57200 80000 174000 214000
2021-03-28 20:45 15.29 117000 260000 (2019) 56100 (2017) 113000 56700 57200 80000 174000 214000
2021-03-28 19:45 15.28 117000 260000 (2019) 56100 (2017) 113000 56700 57200 80000 174000 214000
2021-03-28 18:45 15.28 117000 260000 (2019) 56100 (2017) 113000 56700 57200 80000 174000 214000
2021-03-28 17:45 15.28 117000 260000 (2019) 56100 (2017) 113000 56700 57200 80000 174000 214000
2021-03-28 16:45 15.25 117000 260000 (2019) 56100 (2017) 113000 56700 57200 80000 174000 214000
2021-03-28 15:45 15.27 117000 260000 (2019) 56100 (2017) 113000 56700 57200 80000 174000 214000
2021-03-28 14:45 15.24 117000 260000 (2019) 56100 (2017) 113000 56700 57200 80000 174000 214000
2021-03-28 13:45 15.23 117000 260000 (2019) 56100 (2017) 113000 56700 57200 80000 174000 214000
2021-03-28 12:45 15.17 116000 260000 (2019) 56100 (2017) 113000 56700 57200 80000 174000 214000
2021-03-28 11:45 15.16 116000 260000 (2019) 56100 (2017) 113000 56700 57200 80000 174000 214000
2021-03-28 10:45 15.13 116000 260000 (2019) 56100 (2017) 113000 56700 57200 80000 174000 214000
2021-03-28 09:45 15.08 115000 260000 (2019) 56100 (2017) 113000 56700 57200 80000 174000 214000
2021-03-28 08:45 15.02 114000 260000 (2019) 56100 (2017) 113000 56700 57200 80000 174000 214000
2021-03-28 07:45 14.99 114000 260000 (2019) 56100 (2017) 113000 56700 57200 80000 174000 214000
2021-03-28 06:45 14.98 114000 260000 (2019) 56100 (2017) 113000 56700 57200 80000 174000 214000
2021-03-28 05:45 14.93 113000 260000 (2019) 56100 (2017) 113000 56700 57200 80000 174000 214000
2021-03-28 04:45 14.84 112000 260000 (2019) 56100 (2017) 113000 56700 57200 80000 174000 214000
2021-03-28 03:45 14.82 112000 260000 (2019) 56100 (2017) 113000 56700 57200 80000 174000 214000
2021-03-28 02:45 14.75 111000 260000 (2019) 56100 (2017) 113000 56700 57200 80000 174000 214000
2021-03-28 01:45 14.71 111000 260000 (2019) 56100 (2017) 113000 56700 57200 80000 174000 214000
2021-03-28 00:45 14.64 110000 260000 (2019) 56100 (2017) 113000 56700 57200 80000 174000 214000
2021-03-27 23:45 14.62 110000 261000 (2019) 49900 (2017) 110000 54200 57900 76100 167000 211000
2021-03-27 22:45 14.56 110000 261000 (2019) 49900 (2017) 110000 54200 57900 76100 167000 211000
2021-03-27 21:45 14.47 109000 261000 (2019) 49900 (2017) 110000 54200 57900 76100 167000 211000
2021-03-27 20:45 14.42 108000 261000 (2019) 49900 (2017) 110000 54200 57900 76100 167000 211000
2021-03-27 19:45 14.32 107000 261000 (2019) 49900 (2017) 110000 54200 57900 76100 167000 211000
2021-03-27 18:45 14.26 107000 261000 (2019) 49900 (2017) 110000 54200 57900 76100 167000 211000
2021-03-27 17:45 14.18 106000 261000 (2019) 49900 (2017) 110000 54200 57900 76100 167000 211000
2021-03-27 16:45 14.18 106000 261000 (2019) 49900 (2017) 110000 54200 57900 76100 167000 211000
2021-03-27 15:45 14.09 105000 261000 (2019) 49900 (2017) 110000 54200 57900 76100 167000 211000
2021-03-27 14:45 13.97 104000 261000 (2019) 49900 (2017) 110000 54200 57900 76100 167000 211000
2021-03-27 13:45 13.92 103000 261000 (2019) 49900 (2017) 110000 54200 57900 76100 167000 211000
2021-03-27 12:45 13.87 103000 261000 (2019) 49900 (2017) 110000 54200 57900 76100 167000 211000
2021-03-27 11:45 13.82 103000 261000 (2019) 49900 (2017) 110000 54200 57900 76100 167000 211000
2021-03-27 10:45 13.77 102000 261000 (2019) 49900 (2017) 110000 54200 57900 76100 167000 211000
2021-03-27 09:45 13.71 102000 261000 (2019) 49900 (2017) 110000 54200 57900 76100 167000 211000
2021-03-27 08:45 13.62 101000 261000 (2019) 49900 (2017) 110000 54200 57900 76100 167000 211000
2021-03-27 07:45 13.58 100000 261000 (2019) 49900 (2017) 110000 54200 57900 76100 167000 211000
2021-03-27 06:45 13.55 100000 261000 (2019) 49900 (2017) 110000 54200 57900 76100 167000 211000
2021-03-27 05:45 13.47 99400 261000 (2019) 49900 (2017) 110000 54200 57900 76100 167000 211000
2021-03-27 04:45 13.45 99200 261000 (2019) 49900 (2017) 110000 54200 57900 76100 167000 211000
2021-03-27 03:45 13.36 98500 261000 (2019) 49900 (2017) 110000 54200 57900 76100 167000 211000
2021-03-27 02:45 13.36 98500 261000 (2019) 49900 (2017) 110000 54200 57900 76100 167000 211000
2021-03-27 01:45 13.29 97800 261000 (2019) 49900 (2017) 110000 54200 57900 76100 167000 211000
2021-03-27 00:45 13.23 97300 261000 (2019) 49900 (2017) 110000 54200 57900 76100 167000 211000
2021-03-26 23:45 13.23 97300 258000 (2019) 47200 (2017) 104000 49000 50600 62000 172000 212000
2021-03-26 22:45 13.18 96800 258000 (2019) 47200 (2017) 104000 49000 50600 62000 172000 212000
2021-03-26 21:45 13.15 96500 258000 (2019) 47200 (2017) 104000 49000 50600 62000 172000 212000
2021-03-26 20:45 13.11 96300 258000 (2019) 47200 (2017) 104000 49000 50600 62000 172000 212000
2021-03-26 19:45 13.04 95600 258000 (2019) 47200 (2017) 104000 49000 50600 62000 172000 212000
2021-03-26 18:45 12.98 95100 258000 (2019) 47200 (2017) 104000 49000 50600 62000 172000 212000
2021-03-26 17:45 12.95 94800 258000 (2019) 47200 (2017) 104000 49000 50600 62000 172000 212000
2021-03-26 16:45 12.89 94300 258000 (2019) 47200 (2017) 104000 49000 50600 62000 172000 212000
2021-03-26 15:45 12.82 93700 258000 (2019) 47200 (2017) 104000 49000 50600 62000 172000 212000
2021-03-26 14:45 12.75 93100 258000 (2019) 47200 (2017) 104000 49000 50600 62000 172000 212000
2021-03-26 13:45 12.72 92900 258000 (2019) 47200 (2017) 104000 49000 50600 62000 172000 212000
2021-03-26 12:45 12.62 92000 258000 (2019) 47200 (2017) 104000 49000 50600 62000 172000 212000
2021-03-26 11:45 12.59 91800 258000 (2019) 47200 (2017) 104000 49000 50600 62000 172000 212000
2021-03-26 10:45 12.54 91400 258000 (2019) 47200 (2017) 104000 49000 50600 62000 172000 212000
2021-03-26 09:45 12.48 90800 258000 (2019) 47200 (2017) 104000 49000 50600 62000 172000 212000
2021-03-26 08:45 12.46 90700 258000 (2019) 47200 (2017) 104000 49000 50600 62000 172000 212000
2021-03-26 07:45 12.37 89900 258000 (2019) 47200 (2017) 104000 49000 50600 62000 172000 212000
2021-03-26 06:45 12.29 89300 258000 (2019) 47200 (2017) 104000 49000 50600 62000 172000 212000
2021-03-26 05:45 12.22 88700 258000 (2019) 47200 (2017) 104000 49000 50600 62000 172000 212000
2021-03-26 04:45 12.21 88600 258000 (2019) 47200 (2017) 104000 49000 50600 62000 172000 212000
2021-03-26 03:45 12.15 88100 258000 (2019) 47200 (2017) 104000 49000 50600 62000 172000 212000
2021-03-26 02:45 12.11 87800 258000 (2019) 47200 (2017) 104000 49000 50600 62000 172000 212000
2021-03-26 01:45 12.06 87400 258000 (2019) 47200 (2017) 104000 49000 50600 62000 172000 212000
2021-03-26 00:45 12.00 86900 258000 (2019) 47200 (2017) 104000 49000 50600 62000 172000 212000
2021-03-25 23:45 11.98 86800 252000 (2019) 43000 (2015) 105000 43700 44400 62200 188000 218000
2021-03-25 22:45 11.93 86400 252000 (2019) 43000 (2015) 105000 43700 44400 62200 188000 218000
2021-03-25 21:45 11.91 86200 252000 (2019) 43000 (2015) 105000 43700 44400 62200 188000 218000
2021-03-25 20:45 11.87 85900 252000 (2019) 43000 (2015) 105000 43700 44400 62200 188000 218000
2021-03-25 19:45 11.86 85800 252000 (2019) 43000 (2015) 105000 43700 44400 62200 188000 218000
2021-03-25 18:45 11.84 85600 252000 (2019) 43000 (2015) 105000 43700 44400 62200 188000 218000
2021-03-25 17:45 11.85 85700 252000 (2019) 43000 (2015) 105000 43700 44400 62200 188000 218000
2021-03-25 16:45 11.79 85200 252000 (2019) 43000 (2015) 105000 43700 44400 62200 188000 218000
2021-03-25 15:45 11.78 85200 252000 (2019) 43000 (2015) 105000 43700 44400 62200 188000 218000
2021-03-25 14:45 11.74 84900 252000 (2019) 43000 (2015) 105000 43700 44400 62200 188000 218000
2021-03-25 13:45 11.77 85100 252000 (2019) 43000 (2015) 105000 43700 44400 62200 188000 218000
2021-03-25 12:45 11.76 85000 252000 (2019) 43000 (2015) 105000 43700 44400 62200 188000 218000
2021-03-25 11:45 11.73 84800 252000 (2019) 43000 (2015) 105000 43700 44400 62200 188000 218000
2021-03-25 10:45 11.73 84800 252000 (2019) 43000 (2015) 105000 43700 44400 62200 188000 218000
2021-03-25 09:45 11.77 85100 252000 (2019) 43000 (2015) 105000 43700 44400 62200 188000 218000
2021-03-25 08:45 11.76 85000 252000 (2019) 43000 (2015) 105000 43700 44400 62200 188000 218000
2021-03-25 07:45 11.81 85400 252000 (2019) 43000 (2015) 105000 43700 44400 62200 188000 218000
2021-03-25 06:45 11.84 85600 252000 (2019) 43000 (2015) 105000 43700 44400 62200 188000 218000
2021-03-25 05:45 11.84 85600 252000 (2019) 43000 (2015) 105000 43700 44400 62200 188000 218000
2021-03-25 04:45 11.85 85700 252000 (2019) 43000 (2015) 105000 43700 44400 62200 188000 218000
2021-03-25 03:45 11.89 86000 252000 (2019) 43000 (2015) 105000 43700 44400 62200 188000 218000
2021-03-25 02:45 11.89 86000 252000 (2019) 43000 (2015) 105000 43700 44400 62200 188000 218000
2021-03-25 01:45 11.93 86400 252000 (2019) 43000 (2015) 105000 43700 44400 62200 188000 218000
2021-03-25 00:45 11.92 86300 252000 (2019) 43000 (2015) 105000 43700 44400 62200 188000 218000
2021-03-24 23:45 11.93 86400 244000 (2019) 43100 (2015) 107000 43300 43400 64000 198000 219000
2021-03-24 22:45 11.94 86400 244000 (2019) 43100 (2015) 107000 43300 43400 64000 198000 219000
2021-03-24 21:45 11.96 86600 244000 (2019) 43100 (2015) 107000 43300 43400 64000 198000 219000
2021-03-24 20:45 11.98 86800 244000 (2019) 43100 (2015) 107000 43300 43400 64000 198000 219000
2021-03-24 19:45 11.97 86700 244000 (2019) 43100 (2015) 107000 43300 43400 64000 198000 219000
2021-03-24 18:45 12.00 86900 244000 (2019) 43100 (2015) 107000 43300 43400 64000 198000 219000
2021-03-24 17:45 11.97 86700 244000 (2019) 43100 (2015) 107000 43300 43400 64000 198000 219000
2021-03-24 16:45 11.97 86700 244000 (2019) 43100 (2015) 107000 43300 43400 64000 198000 219000
2021-03-24 15:45 11.98 86800 244000 (2019) 43100 (2015) 107000 43300 43400 64000 198000 219000
2021-03-24 14:45 12.04 87200 244000 (2019) 43100 (2015) 107000 43300 43400 64000 198000 219000
2021-03-24 13:45 12.02 87100 244000 (2019) 43100 (2015) 107000 43300 43400 64000 198000 219000
2021-03-24 12:45 12.03 87200 244000 (2019) 43100 (2015) 107000 43300 43400 64000 198000 219000
2021-03-24 11:45 12.06 87400 244000 (2019) 43100 (2015) 107000 43300 43400 64000 198000 219000
2021-03-24 10:45 12.08 87600 244000 (2019) 43100 (2015) 107000 43300 43400 64000 198000 219000
2021-03-24 09:45 12.09 87600 244000 (2019) 43100 (2015) 107000 43300 43400 64000 198000 219000
2021-03-24 08:45 12.11 87800 244000 (2019) 43100 (2015) 107000 43300 43400 64000 198000 219000
2021-03-24 07:45 12.16 88200 244000 (2019) 43100 (2015) 107000 43300 43400 64000 198000 219000
2021-03-24 06:45 12.17 88300 244000 (2019) 43100 (2015) 107000 43300 43400 64000 198000 219000
2021-03-24 05:45 12.20 88500 244000 (2019) 43100 (2015) 107000 43300 43400 64000 198000 219000
2021-03-24 04:45 12.22 88700 244000 (2019) 43100 (2015) 107000 43300 43400 64000 198000 219000
2021-03-24 03:45 12.27 89100 244000 (2019) 43100 (2015) 107000 43300 43400 64000 198000 219000
2021-03-24 02:45 12.32 89500 244000 (2019) 43100 (2015) 107000 43300 43400 64000 198000 219000
2021-03-24 01:45 12.31 89400 244000 (2019) 43100 (2015) 107000 43300 43400 64000 198000 219000
2021-03-24 00:45 12.39 90100 244000 (2019) 43100 (2015) 107000 43300 43400 64000 198000 219000
2021-03-23 23:45 12.46 90700 241000 (2019) 42700 (2017) 109000 43700 44700 65400 207000 223000
2021-03-23 22:45 12.45 90600 241000 (2019) 42700 (2017) 109000 43700 44700 65400 207000 223000
2021-03-23 21:45 12.50 91000 241000 (2019) 42700 (2017) 109000 43700 44700 65400 207000 223000
2021-03-23 20:45 12.52 91200 241000 (2019) 42700 (2017) 109000 43700 44700 65400 207000 223000
2021-03-23 19:45 12.58 91700 241000 (2019) 42700 (2017) 109000 43700 44700 65400 207000 223000
2021-03-23 18:45 12.60 91900 241000 (2019) 42700 (2017) 109000 43700 44700 65400 207000 223000
2021-03-23 17:45 12.63 92100 241000 (2019) 42700 (2017) 109000 43700 44700 65400 207000 223000
2021-03-23 16:45 12.64 92200 241000 (2019) 42700 (2017) 109000 43700 44700 65400 207000 223000
2021-03-23 15:45 12.71 92800 241000 (2019) 42700 (2017) 109000 43700 44700 65400 207000 223000
2021-03-23 14:45 12.73 93000 241000 (2019) 42700 (2017) 109000 43700 44700 65400 207000 223000
2021-03-23 13:45 12.82 93700 241000 (2019) 42700 (2017) 109000 43700 44700 65400 207000 223000
2021-03-23 12:45 12.84 93900 241000 (2019) 42700 (2017) 109000 43700 44700 65400 207000 223000
2021-03-23 11:45 12.89 94300 241000 (2019) 42700 (2017) 109000 43700 44700 65400 207000 223000
2021-03-23 10:45 12.96 94900 241000 (2019) 42700 (2017) 109000 43700 44700 65400 207000 223000
2021-03-23 09:45 13.03 95500 241000 (2019) 42700 (2017) 109000 43700 44700 65400 207000 223000
2021-03-23 08:45 13.08 96000 241000 (2019) 42700 (2017) 109000 43700 44700 65400 207000 223000
2021-03-23 07:45 13.12 96300 241000 (2019) 42700 (2017) 109000 43700 44700 65400 207000 223000
2021-03-23 06:45 13.23 97300 241000 (2019) 42700 (2017) 109000 43700 44700 65400 207000 223000
2021-03-23 05:45 13.25 97400 241000 (2019) 42700 (2017) 109000 43700 44700 65400 207000 223000
2021-03-23 04:45 13.30 97900 241000 (2019) 42700 (2017) 109000 43700 44700 65400 207000 223000
2021-03-23 03:45 13.36 98500 241000 (2019) 42700 (2017) 109000 43700 44700 65400 207000 223000
2021-03-23 02:45 13.44 99100 241000 (2019) 42700 (2017) 109000 43700 44700 65400 207000 223000
2021-03-23 01:45 13.51 99800 241000 (2019) 42700 (2017) 109000 43700 44700 65400 207000 223000
2021-03-23 00:45 13.56 100000 241000 (2019) 42700 (2017) 109000 43700 44700 65400 207000 223000
2021-03-22 23:45 13.64 101000 237000 (2019) 42600 (2017) 109000 44500 46100 67400 205000 220000
2021-03-22 22:45 13.71 102000 237000 (2019) 42600 (2017) 109000 44500 46100 67400 205000 220000
2021-03-22 21:45 13.80 102000 237000 (2019) 42600 (2017) 109000 44500 46100 67400 205000 220000
2021-03-22 20:45 13.90 103000 237000 (2019) 42600 (2017) 109000 44500 46100 67400 205000 220000
2021-03-22 19:45 13.97 104000 237000 (2019) 42600 (2017) 109000 44500 46100 67400 205000 220000
2021-03-22 18:45 14.02 104000 237000 (2019) 42600 (2017) 109000 44500 46100 67400 205000 220000
2021-03-22 17:45 14.12 105000 237000 (2019) 42600 (2017) 109000 44500 46100 67400 205000 220000
2021-03-22 16:45 14.16 106000 237000 (2019) 42600 (2017) 109000 44500 46100 67400 205000 220000
2021-03-22 15:45 14.25 107000 237000 (2019) 42600 (2017) 109000 44500 46100 67400 205000 220000
2021-03-22 14:45 14.28 107000 237000 (2019) 42600 (2017) 109000 44500 46100 67400 205000 220000
2021-03-22 13:45 14.43 108000 237000 (2019) 42600 (2017) 109000 44500 46100 67400 205000 220000
2021-03-22 12:45 14.52 109000 237000 (2019) 42600 (2017) 109000 44500 46100 67400 205000 220000
2021-03-22 11:45 14.60 110000 237000 (2019) 42600 (2017) 109000 44500 46100 67400 205000 220000
2021-03-22 10:45 14.69 111000 237000 (2019) 42600 (2017) 109000 44500 46100 67400 205000 220000
2021-03-22 09:45 14.76 112000 237000 (2019) 42600 (2017) 109000 44500 46100 67400 205000 220000
2021-03-22 08:45 14.85 111000 237000 (2019) 42600 (2017) 109000 44500 46100 67400 205000 220000
2021-03-22 07:45 14.95 106000 237000 (2019) 42600 (2017) 109000 44500 46100 67400 205000 220000
2021-03-22 06:45 15.07 107000 237000 (2019) 42600 (2017) 109000 44500 46100 67400 205000 220000
2021-03-22 05:45 15.22 109000 237000 (2019) 42600 (2017) 109000 44500 46100 67400 205000 220000
2021-03-22 04:45 15.31 110000 237000 (2019) 42600 (2017) 109000 44500 46100 67400 205000 220000
2021-03-22 03:45 15.41 110000 237000 (2019) 42600 (2017) 109000 44500 46100 67400 205000 220000
2021-03-22 02:45 15.57 112000 237000 (2019) 42600 (2017) 109000 44500 46100 67400 205000 220000
2021-03-22 01:45 15.71 114000 237000 (2019) 42600 (2017) 109000 44500 46100 67400 205000 220000
2021-03-22 00:45 15.82 115000 237000 (2019) 42600 (2017) 109000 44500 46100 67400 205000 220000
2021-03-21 23:45 15.96 116000 241000 (2019) 43300 (2017) 114000 44700 45900 68900 220000 230000
2021-03-21 22:45 16.09 118000 241000 (2019) 43300 (2017) 114000 44700 45900 68900 220000 230000
2021-03-21 21:45 16.21 119000 241000 (2019) 43300 (2017) 114000 44700 45900 68900 220000 230000
2021-03-21 20:45 16.38 121000 241000 (2019) 43300 (2017) 114000 44700 45900 68900 220000 230000
2021-03-21 19:45 16.50 122000 241000 (2019) 43300 (2017) 114000 44700 45900 68900 220000 230000
2021-03-21 18:45 16.66 124000 241000 (2019) 43300 (2017) 114000 44700 45900 68900 220000 230000
2021-03-21 17:45 16.77 126000 241000 (2019) 43300 (2017) 114000 44700 45900 68900 220000 230000
2021-03-21 16:45 17.00 128000 241000 (2019) 43300 (2017) 114000 44700 45900 68900 220000 230000
2021-03-21 15:45 17.09 129000 241000 (2019) 43300 (2017) 114000 44700 45900 68900 220000 230000
2021-03-21 14:45 17.26 131000 241000 (2019) 43300 (2017) 114000 44700 45900 68900 220000 230000
2021-03-21 13:45 17.44 134000 241000 (2019) 43300 (2017) 114000 44700 45900 68900 220000 230000
2021-03-21 12:45 17.58 135000 241000 (2019) 43300 (2017) 114000 44700 45900 68900 220000 230000
2021-03-21 11:45 17.74 137000 241000 (2019) 43300 (2017) 114000 44700 45900 68900 220000 230000
2021-03-21 10:45 17.88 139000 241000 (2019) 43300 (2017) 114000 44700 45900 68900 220000 230000
2021-03-21 09:45 18.11 142000 241000 (2019) 43300 (2017) 114000 44700 45900 68900 220000 230000
2021-03-21 08:45 18.28 144000 241000 (2019) 43300 (2017) 114000 44700 45900 68900 220000 230000
2021-03-21 07:45 18.42 146000 241000 (2019) 43300 (2017) 114000 44700 45900 68900 220000 230000
2021-03-21 06:45 18.54 148000 241000 (2019) 43300 (2017) 114000 44700 45900 68900 220000 230000
2021-03-21 05:45 18.73 150000 241000 (2019) 43300 (2017) 114000 44700 45900 68900 220000 230000
2021-03-21 04:45 18.87 152000 241000 (2019) 43300 (2017) 114000 44700 45900 68900 220000 230000
2021-03-21 03:45 18.98 154000 241000 (2019) 43300 (2017) 114000 44700 45900 68900 220000 230000
2021-03-21 02:45 19.13 156000 241000 (2019) 43300 (2017) 114000 44700 45900 68900 220000 230000
2021-03-21 01:45 19.34 159000 241000 (2019) 43300 (2017) 114000 44700 45900 68900 220000 230000
2021-03-21 00:45 19.44 160000 241000 (2019) 43300 (2017) 114000 44700 45900 68900 220000 230000
2021-03-20 23:45 19.64 163000 245000 (2019) 43800 (2015) 115000 44000 44200 68000 226000 235000
2021-03-20 22:45 19.71 164000 245000 (2019) 43800 (2015) 115000 44000 44200 68000 226000 235000
2021-03-20 21:45 19.90 166000 245000 (2019) 43800 (2015) 115000 44000 44200 68000 226000 235000
2021-03-20 20:45 19.98 167000 245000 (2019) 43800 (2015) 115000 44000 44200 68000 226000 235000
2021-03-20 19:45 20.22 171000 245000 (2019) 43800 (2015) 115000 44000 44200 68000 226000 235000
2021-03-20 18:45 20.34 173000 245000 (2019) 43800 (2015) 115000 44000 44200 68000 226000 235000
2021-03-20 17:45 20.50 175000 245000 (2019) 43800 (2015) 115000 44000 44200 68000 226000 235000
2021-03-20 16:45 20.60 176000 245000 (2019) 43800 (2015) 115000 44000 44200 68000 226000 235000
2021-03-20 15:45 20.78 179000 245000 (2019) 43800 (2015) 115000 44000 44200 68000 226000 235000
2021-03-20 14:45 20.87 181000 245000 (2019) 43800 (2015) 115000 44000 44200 68000 226000 235000
2021-03-20 13:45 21.10 198000 245000 (2019) 43800 (2015) 115000 44000 44200 68000 226000 235000
2021-03-20 12:45 21.28 201000 245000 (2019) 43800 (2015) 115000 44000 44200 68000 226000 235000
2021-03-20 11:45 21.41 203000 245000 (2019) 43800 (2015) 115000 44000 44200 68000 226000 235000
2021-03-20 10:45 21.62 206000 245000 (2019) 43800 (2015) 115000 44000 44200 68000 226000 235000
2021-03-20 09:45 21.81 209000 245000 (2019) 43800 (2015) 115000 44000 44200 68000 226000 235000
2021-03-20 08:45 22.02 212000 245000 (2019) 43800 (2015) 115000 44000 44200 68000 226000 235000
2021-03-20 07:45 22.25 215000 245000 (2019) 43800 (2015) 115000 44000 44200 68000 226000 235000
2021-03-20 06:45 22.50 219000 245000 (2019) 43800 (2015) 115000 44000 44200 68000 226000 235000
2021-03-20 05:45 22.72 223000 245000 (2019) 43800 (2015) 115000 44000 44200 68000 226000 235000
2021-03-20 04:45 22.86 225000 245000 (2019) 43800 (2015) 115000 44000 44200 68000 226000 235000
2021-03-20 03:45 23.10 228000 245000 (2019) 43800 (2015) 115000 44000 44200 68000 226000 235000
2021-03-20 02:45 23.30 231000 245000 (2019) 43800 (2015) 115000 44000 44200 68000 226000 235000
2021-03-20 01:45 23.50 234000 245000 (2019) 43800 (2015) 115000 44000 44200 68000 226000 235000
2021-03-20 00:45 23.60 235000 245000 (2019) 43800 (2015) 115000 44000 44200 68000 226000 235000
2021-03-19 23:45 23.77 238000 254000 (2019) 42200 (2015) 107000 43600 44800 64000 193000 222000
2021-03-19 22:45 23.90 239000 254000 (2019) 42200 (2015) 107000 43600 44800 64000 193000 222000
2021-03-19 21:45 23.97 240000 254000 (2019) 42200 (2015) 107000 43600 44800 64000 193000 222000
2021-03-19 20:45 24.14 243000 254000 (2019) 42200 (2015) 107000 43600 44800 64000 193000 222000
2021-03-19 19:45 24.24 244000 254000 (2019) 42200 (2015) 107000 43600 44800 64000 193000 222000
2021-03-19 18:45 24.27 245000 254000 (2019) 42200 (2015) 107000 43600 44800 64000 193000 222000
2021-03-19 17:45 24.40 246000 254000 (2019) 42200 (2015) 107000 43600 44800 64000 193000 222000
2021-03-19 16:45 24.49 248000 254000 (2019) 42200 (2015) 107000 43600 44800 64000 193000 222000
2021-03-19 15:45 24.57 249000 254000 (2019) 42200 (2015) 107000 43600 44800 64000 193000 222000
2021-03-19 14:45 24.66 250000 254000 (2019) 42200 (2015) 107000 43600 44800 64000 193000 222000
2021-03-19 13:45 24.76 252000 254000 (2019) 42200 (2015) 107000 43600 44800 64000 193000 222000
2021-03-19 12:45 24.76 252000 254000 (2019) 42200 (2015) 107000 43600 44800 64000 193000 222000
2021-03-19 11:45 24.83 253000 254000 (2019) 42200 (2015) 107000 43600 44800 64000 193000 222000
2021-03-19 10:45 24.86 253000 254000 (2019) 42200 (2015) 107000 43600 44800 64000 193000 222000
2021-03-19 09:45 24.92 254000 254000 (2019) 42200 (2015) 107000 43600 44800 64000 193000 222000
2021-03-19 08:45 24.92 254000 254000 (2019) 42200 (2015) 107000 43600 44800 64000 193000 222000
2021-03-19 07:45 25.06 256000 254000 (2019) 42200 (2015) 107000 43600 44800 64000 193000 222000
2021-03-19 06:45 24.99 255000 254000 (2019) 42200 (2015) 107000 43600 44800 64000 193000 222000
2021-03-19 05:45 25.00 255000 254000 (2019) 42200 (2015) 107000 43600 44800 64000 193000 222000
2021-03-19 04:45 25.01 255000 254000 (2019) 42200 (2015) 107000 43600 44800 64000 193000 222000
2021-03-19 03:45 24.97 255000 254000 (2019) 42200 (2015) 107000 43600 44800 64000 193000 222000
2021-03-19 02:45 24.98 255000 254000 (2019) 42200 (2015) 107000 43600 44800 64000 193000 222000
2021-03-19 01:45 25.05 256000 254000 (2019) 42200 (2015) 107000 43600 44800 64000 193000 222000
2021-03-19 00:45 25.06 256000 254000 (2019) 42200 (2015) 107000 43600 44800 64000 193000 222000
2021-03-18 23:45 24.95 254000 257000 (2019) 42000 (2015) 100000 44000 45800 61200 163000 207000
2021-03-18 22:45 25.03 256000 257000 (2019) 42000 (2015) 100000 44000 45800 61200 163000 207000
2021-03-18 21:45 24.95 254000 257000 (2019) 42000 (2015) 100000 44000 45800 61200 163000 207000
2021-03-18 20:45 24.76 252000 257000 (2019) 42000 (2015) 100000 44000 45800 61200 163000 207000
2021-03-18 19:45 24.61 250000 257000 (2019) 42000 (2015) 100000 44000 45800 61200 163000 207000
2021-03-18 18:45 24.66 250000 257000 (2019) 42000 (2015) 100000 44000 45800 61200 163000 207000
2021-03-18 17:45 24.53 248000 257000 (2019) 42000 (2015) 100000 44000 45800 61200 163000 207000
2021-03-18 16:45 24.39 246000 257000 (2019) 42000 (2015) 100000 44000 45800 61200 163000 207000
2021-03-18 15:45 24.22 244000 257000 (2019) 42000 (2015) 100000 44000 45800 61200 163000 207000
2021-03-18 14:45 24.12 242000 257000 (2019) 42000 (2015) 100000 44000 45800 61200 163000 207000
2021-03-18 13:45 23.89 239000 257000 (2019) 42000 (2015) 100000 44000 45800 61200 163000 207000
2021-03-18 12:45 23.67 236000 257000 (2019) 42000 (2015) 100000 44000 45800 61200 163000 207000
2021-03-18 11:45 23.49 234000 257000 (2019) 42000 (2015) 100000 44000 45800 61200 163000 207000
2021-03-18 10:45 23.24 230000 257000 (2019) 42000 (2015) 100000 44000 45800 61200 163000 207000
2021-03-18 09:45 22.99 227000 257000 (2019) 42000 (2015) 100000 44000 45800 61200 163000 207000
2021-03-18 08:45 22.80 224000 257000 (2019) 42000 (2015) 100000 44000 45800 61200 163000 207000
2021-03-18 07:45 22.57 220000 257000 (2019) 42000 (2015) 100000 44000 45800 61200 163000 207000
2021-03-18 06:45 22.38 217000 257000 (2019) 42000 (2015) 100000 44000 45800 61200 163000 207000
2021-03-18 05:45 22.01 212000 257000 (2019) 42000 (2015) 100000 44000 45800 61200 163000 207000
2021-03-18 04:45 21.82 209000 257000 (2019) 42000 (2015) 100000 44000 45800 61200 163000 207000
2021-03-18 03:45 21.48 204000 257000 (2019) 42000 (2015) 100000 44000 45800 61200 163000 207000
2021-03-18 02:45 21.10 198000 257000 (2019) 42000 (2015) 100000 44000 45800 61200 163000 207000
2021-03-18 01:45 20.92 196000 257000 (2019) 42000 (2015) 100000 44000 45800 61200 163000 207000
2021-03-18 00:45 20.40 188000 257000 (2019) 42000 (2015) 100000 44000 45800 61200 163000 207000
2021-03-17 23:45 20.05 182000 253000 (2019) 42600 (2015) 99400 44700 46500 60000 163000 205000
2021-03-17 22:45 19.71 177000 253000 (2019) 42600 (2015) 99400 44700 46500 60000 163000 205000
2021-03-17 21:45 19.40 173000 253000 (2019) 42600 (2015) 99400 44700 46500 60000 163000 205000
2021-03-17 20:45 19.25 171000 253000 (2019) 42600 (2015) 99400 44700 46500 60000 163000 205000
2021-03-17 19:45 18.95 166000 253000 (2019) 42600 (2015) 99400 44700 46500 60000 163000 205000
2021-03-17 18:45 18.51 160000 253000 (2019) 42600 (2015) 99400 44700 46500 60000 163000 205000
2021-03-17 17:45 18.26 157000 253000 (2019) 42600 (2015) 99400 44700 46500 60000 163000 205000
2021-03-17 16:45 17.83 151000 253000 (2019) 42600 (2015) 99400 44700 46500 60000 163000 205000
2021-03-17 15:45 17.33 144000 253000 (2019) 42600 (2015) 99400 44700 46500 60000 163000 205000
2021-03-17 14:45 16.94 139000 253000 (2019) 42600 (2015) 99400 44700 46500 60000 163000 205000
2021-03-17 13:45 16.31 131000 253000 (2019) 42600 (2015) 99400 44700 46500 60000 163000 205000
2021-03-17 12:45 15.84 126000 253000 (2019) 42600 (2015) 99400 44700 46500 60000 163000 205000
2021-03-17 11:45 15.36 120000 253000 (2019) 42600 (2015) 99400 44700 46500 60000 163000 205000
2021-03-17 10:45 14.97 116000 253000 (2019) 42600 (2015) 99400 44700 46500 60000 163000 205000
2021-03-17 09:45 14.61 112000 253000 (2019) 42600 (2015) 99400 44700 46500 60000 163000 205000
2021-03-17 08:45 14.43 110000 253000 (2019) 42600 (2015) 99400 44700 46500 60000 163000 205000
2021-03-17 07:45 14.20 108000 253000 (2019) 42600 (2015) 99400 44700 46500 60000 163000 205000
2021-03-17 06:45 13.99 106000 253000 (2019) 42600 (2015) 99400 44700 46500 60000 163000 205000
2021-03-17 05:45 13.83 105000 253000 (2019) 42600 (2015) 99400 44700 46500 60000 163000 205000
2021-03-17 04:45 13.67 103000 253000 (2019) 42600 (2015) 99400 44700 46500 60000 163000 205000
2021-03-17 03:45 13.43 101000 253000 (2019) 42600 (2015) 99400 44700 46500 60000 163000 205000
2021-03-17 02:45 13.23 99000 253000 (2019) 42600 (2015) 99400 44700 46500 60000 163000 205000
2021-03-17 01:45 13.05 97500 253000 (2019) 42600 (2015) 99400 44700 46500 60000 163000 205000
2021-03-17 00:45 12.83 95500 253000 (2019) 42600 (2015) 99400 44700 46500 60000 163000 205000
2021-03-16 23:45 12.61 93600 245000 (2019) 43600 (2015) 99200 45500 47100 60600 164000 202000
2021-03-16 22:45 12.39 91800 245000 (2019) 43600 (2015) 99200 45500 47100 60600 164000 202000
2021-03-16 21:45 12.15 89800 245000 (2019) 43600 (2015) 99200 45500 47100 60600 164000 202000
2021-03-16 20:45 11.90 87700 245000 (2019) 43600 (2015) 99200 45500 47100 60600 164000 202000
2021-03-16 19:45 11.66 85800 245000 (2019) 43600 (2015) 99200 45500 47100 60600 164000 202000
2021-03-16 18:45 11.46 84200 245000 (2019) 43600 (2015) 99200 45500 47100 60600 164000 202000
2021-03-16 17:45 11.21 82300 245000 (2019) 43600 (2015) 99200 45500 47100 60600 164000 202000
2021-03-16 16:45 11.03 80900 245000 (2019) 43600 (2015) 99200 45500 47100 60600 164000 202000
2021-03-16 15:45 10.86 79600 245000 (2019) 43600 (2015) 99200 45500 47100 60600 164000 202000
2021-03-16 14:45 10.67 78200 245000 (2019) 43600 (2015) 99200 45500 47100 60600 164000 202000
2021-03-16 13:45 10.53 77200 245000 (2019) 43600 (2015) 99200 45500 47100 60600 164000 202000
2021-03-16 12:45 10.42 76400 245000 (2019) 43600 (2015) 99200 45500 47100 60600 164000 202000
2021-03-16 11:45 10.30 75500 245000 (2019) 43600 (2015) 99200 45500 47100 60600 164000 202000
2021-03-16 10:45 10.18 74700 245000 (2019) 43600 (2015) 99200 45500 47100 60600 164000 202000
2021-03-16 09:45 10.08 73900 245000 (2019) 43600 (2015) 99200 45500 47100 60600 164000 202000
2021-03-16 08:45 9.98 73200 245000 (2019) 43600 (2015) 99200 45500 47100 60600 164000 202000
2021-03-16 07:45 9.88 72500 245000 (2019) 43600 (2015) 99200 45500 47100 60600 164000 202000
2021-03-16 06:45 9.78 71800 245000 (2019) 43600 (2015) 99200 45500 47100 60600 164000 202000
2021-03-16 05:45 9.71 71400 245000 (2019) 43600 (2015) 99200 45500 47100 60600 164000 202000
2021-03-16 04:45 9.58 70500 245000 (2019) 43600 (2015) 99200 45500 47100 60600 164000 202000
2021-03-16 03:45 9.47 69700 245000 (2019) 43600 (2015) 99200 45500 47100 60600 164000 202000
2021-03-16 02:45 9.39 69200 245000 (2019) 43600 (2015) 99200 45500 47100 60600 164000 202000
2021-03-16 01:45 9.23 68100 245000 (2019) 43600 (2015) 99200 45500 47100 60600 164000 202000
2021-03-16 00:45 9.17 67700 245000 (2019) 43600 (2015) 99200 45500 47100 60600 164000 202000
2021-03-15 23:45 9.06 67000 225000 (2019) 44400 (2015) 96000 46200 47800 60900 158000 189000
2021-03-15 22:45 8.95 66300 225000 (2019) 44400 (2015) 96000 46200 47800 60900 158000 189000
2021-03-15 21:45 8.85 65600 225000 (2019) 44400 (2015) 96000 46200 47800 60900 158000 189000
2021-03-15 20:45 8.77 65100 225000 (2019) 44400 (2015) 96000 46200 47800 60900 158000 189000
2021-03-15 19:45 8.66 64400 225000 (2019) 44400 (2015) 96000 46200 47800 60900 158000 189000
2021-03-15 18:45 8.57 63900 225000 (2019) 44400 (2015) 96000 46200 47800 60900 158000 189000
2021-03-15 17:45 8.44 63100 225000 (2019) 44400 (2015) 96000 46200 47800 60900 158000 189000
2021-03-15 16:45 8.39 62700 225000 (2019) 44400 (2015) 96000 46200 47800 60900 158000 189000
2021-03-15 15:45 8.28 62100 225000 (2019) 44400 (2015) 96000 46200 47800 60900 158000 189000
2021-03-15 14:45 8.11 61000 225000 (2019) 44400 (2015) 96000 46200 47800 60900 158000 189000
2021-03-15 13:45 8.05 60700 225000 (2019) 44400 (2015) 96000 46200 47800 60900 158000 189000
2021-03-15 12:45 7.94 60000 225000 (2019) 44400 (2015) 96000 46200 47800 60900 158000 189000
2021-03-15 11:45 7.90 59800 225000 (2019) 44400 (2015) 96000 46200 47800 60900 158000 189000
2021-03-15 10:45 7.74 58800 225000 (2019) 44400 (2015) 96000 46200 47800 60900 158000 189000
2021-03-15 09:45 7.71 58600 225000 (2019) 44400 (2015) 96000 46200 47800 60900 158000 189000
2021-03-15 08:45 7.63 58200 225000 (2019) 44400 (2015) 96000 46200 47800 60900 158000 189000
2021-03-15 07:45 7.53 57600 225000 (2019) 44400 (2015) 96000 46200 47800 60900 158000 189000
2021-03-15 06:45 7.48 57300 225000 (2019) 44400 (2015) 96000 46200 47800 60900 158000 189000
2021-03-15 05:45 7.40 56800 225000 (2019) 44400 (2015) 96000 46200 47800 60900 158000 189000
2021-03-15 04:45 7.31 56300 225000 (2019) 44400 (2015) 96000 46200 47800 60900 158000 189000
2021-03-15 03:45 7.26 56000 225000 (2019) 44400 (2015) 96000 46200 47800 60900 158000 189000
2021-03-15 02:45 7.20 55700 225000 (2019) 44400 (2015) 96000 46200 47800 60900 158000 189000
2021-03-15 01:45 7.14 55400 225000 (2019) 44400 (2015) 96000 46200 47800 60900 158000 189000
2021-03-15 00:45 7.11 55200 225000 (2019) 44400 (2015) 96000 46200 47800 60900 158000 189000
2021-03-14 23:45 7.06 54900 194000 (2019) 43600 (2015) 89600 45600 47400 59800 147000 169000
2021-03-14 22:45 6.97 54400 194000 (2019) 43600 (2015) 89600 45600 47400 59800 147000 169000
2021-03-14 21:45 6.88 53900 194000 (2019) 43600 (2015) 89600 45600 47400 59800 147000 169000
2021-03-14 20:45 6.95 54300 194000 (2019) 43600 (2015) 89600 45600 47400 59800 147000 169000
2021-03-14 19:45 6.92 54100 194000 (2019) 43600 (2015) 89600 45600 47400 59800 147000 169000
2021-03-14 18:45 6.96 54400 194000 (2019) 43600 (2015) 89600 45600 47400 59800 147000 169000
2021-03-14 17:45 6.94 54300 194000 (2019) 43600 (2015) 89600 45600 47400 59800 147000 169000
2021-03-14 16:45 6.88 53900 194000 (2019) 43600 (2015) 89600 45600 47400 59800 147000 169000
2021-03-14 15:45 6.82 53600 194000 (2019) 43600 (2015) 89600 45600 47400 59800 147000 169000
2021-03-14 14:45 6.77 53300 194000 (2019) 43600 (2015) 89600 45600 47400 59800 147000 169000
2021-03-14 13:45 6.88 53900 194000 (2019) 43600 (2015) 89600 45600 47400 59800 147000 169000
2021-03-14 12:45 6.86 53800 194000 (2019) 43600 (2015) 89600 45600 47400 59800 147000 169000
2021-03-14 11:45 6.84 53700 194000 (2019) 43600 (2015) 89600 45600 47400 59800 147000 169000
2021-03-14 10:45 6.85 53800 194000 (2019) 43600 (2015) 89600 45600 47400 59800 147000 169000
2021-03-14 09:45 6.82 53600 194000 (2019) 43600 (2015) 89600 45600 47400 59800 147000 169000
2021-03-14 08:45 6.79 53400 194000 (2019) 43600 (2015) 89600 45600 47400 59800 147000 169000
2021-03-14 07:45 6.80 53500 194000 (2019) 43600 (2015) 89600 45600 47400 59800 147000 169000
2021-03-14 06:45 6.80 53500 194000 (2019) 43600 (2015) 89600 45600 47400 59800 147000 169000
2021-03-14 05:45 6.81 53500 194000 (2019) 43600 (2015) 89600 45600 47400 59800 147000 169000
2021-03-14 04:45 6.78 53400 194000 (2019) 43600 (2015) 89600 45600 47400 59800 147000 169000
2021-03-14 03:45 6.81 53500 194000 (2019) 43600 (2015) 89600 45600 47400 59800 147000 169000
2021-03-14 01:45 6.79 53400 194000 (2019) 43600 (2015) 89600 45600 47400 59800 147000 169000
2021-03-14 00:45 6.81 53500 194000 (2019) 43600 (2015) 89600 45600 47400 59800 147000 169000
2021-03-13 23:45 6.79 53400 183000 (2019) 42200 (2015) 90800 44600 46800 59800 160000 171000
2021-03-13 22:45 6.77 53300 183000 (2019) 42200 (2015) 90800 44600 46800 59800 160000 171000
2021-03-13 21:45 6.76 53300 183000 (2019) 42200 (2015) 90800 44600 46800 59800 160000 171000
2021-03-13 20:45 6.76 53300 183000 (2019) 42200 (2015) 90800 44600 46800 59800 160000 171000
2021-03-13 19:45 6.74 53200 183000 (2019) 42200 (2015) 90800 44600 46800 59800 160000 171000
2021-03-13 18:45 6.70 52900 183000 (2019) 42200 (2015) 90800 44600 46800 59800 160000 171000
2021-03-13 17:45 6.68 52800 183000 (2019) 42200 (2015) 90800 44600 46800 59800 160000 171000
2021-03-13 16:45 6.64 52600 183000 (2019) 42200 (2015) 90800 44600 46800 59800 160000 171000
2021-03-13 15:45 6.60 52400 183000 (2019) 42200 (2015) 90800 44600 46800 59800 160000 171000
2021-03-13 14:45 6.57 52200 183000 (2019) 42200 (2015) 90800 44600 46800 59800 160000 171000
2021-03-13 13:45 6.51 51900 183000 (2019) 42200 (2015) 90800 44600 46800 59800 160000 171000
2021-03-13 12:45 6.45 51600 183000 (2019) 42200 (2015) 90800 44600 46800 59800 160000 171000
2021-03-13 11:45 6.40 51300 183000 (2019) 42200 (2015) 90800 44600 46800 59800 160000 171000
2021-03-13 10:45 6.37 51200 183000 (2019) 42200 (2015) 90800 44600 46800 59800 160000 171000
2021-03-13 09:45 6.34 51000 183000 (2019) 42200 (2015) 90800 44600 46800 59800 160000 171000
2021-03-13 08:45 6.31 50900 183000 (2019) 42200 (2015) 90800 44600 46800 59800 160000 171000
2021-03-13 07:45 6.28 50700 183000 (2019) 42200 (2015) 90800 44600 46800 59800 160000 171000
2021-03-13 06:45 6.25 50500 183000 (2019) 42200 (2015) 90800 44600 46800 59800 160000 171000
2021-03-13 05:45 6.24 50500 183000 (2019) 42200 (2015) 90800 44600 46800 59800 160000 171000
2021-03-13 04:45 6.22 50400 183000 (2019) 42200 (2015) 90800 44600 46800 59800 160000 171000
2021-03-13 03:45 6.19 50200 183000 (2019) 42200 (2015) 90800 44600 46800 59800 160000 171000
2021-03-13 02:45 6.17 50100 183000 (2019) 42200 (2015) 90800 44600 46800 59800 160000 171000
2021-03-13 01:45 6.17 50100 183000 (2019) 42200 (2015) 90800 44600 46800 59800 160000 171000
2021-03-13 00:45 6.13 49900 183000 (2019) 42200 (2015) 90800 44600 46800 59800 160000 171000
2021-03-12 23:45 6.15 50000 174000 (2020) 41200 (2015) 92600 44000 46500 62000 170000 172000
2021-03-12 22:45 6.15 50000 174000 (2020) 41200 (2015) 92600 44000 46500 62000 170000 172000
2021-03-12 21:45 6.16 50100 174000 (2020) 41200 (2015) 92600 44000 46500 62000 170000 172000
2021-03-12 20:45 6.18 50200 174000 (2020) 41200 (2015) 92600 44000 46500 62000 170000 172000
2021-03-12 19:45 6.15 50000 174000 (2020) 41200 (2015) 92600 44000 46500 62000 170000 172000
2021-03-12 18:45 6.17 50100 174000 (2020) 41200 (2015) 92600 44000 46500 62000 170000 172000
2021-03-12 17:45 6.19 50200 174000 (2020) 41200 (2015) 92600 44000 46500 62000 170000 172000
2021-03-12 16:45 6.16 50100 174000 (2020) 41200 (2015) 92600 44000 46500 62000 170000 172000
2021-03-12 15:45 6.19 50200 174000 (2020) 41200 (2015) 92600 44000 46500 62000 170000 172000
2021-03-12 14:45 6.19 50200 174000 (2020) 41200 (2015) 92600 44000 46500 62000 170000 172000
2021-03-12 13:45 6.21 50300 174000 (2020) 41200 (2015) 92600 44000 46500 62000 170000 172000
2021-03-12 12:45 6.20 50300 174000 (2020) 41200 (2015) 92600 44000 46500 62000 170000 172000
2021-03-12 11:45 6.21 50300 174000 (2020) 41200 (2015) 92600 44000 46500 62000 170000 172000
2021-03-12 10:45 6.22 50400 174000 (2020) 41200 (2015) 92600 44000 46500 62000 170000 172000
2021-03-12 09:45 6.22 50400 174000 (2020) 41200 (2015) 92600 44000 46500 62000 170000 172000
2021-03-12 08:45 6.23 50400 174000 (2020) 41200 (2015) 92600 44000 46500 62000 170000 172000
2021-03-12 07:45 6.26 50600 174000 (2020) 41200 (2015) 92600 44000 46500 62000 170000 172000
2021-03-12 06:45 6.28 50700 174000 (2020) 41200 (2015) 92600 44000 46500 62000 170000 172000
2021-03-12 05:45 6.28 50700 174000 (2020) 41200 (2015) 92600 44000 46500 62000 170000 172000
2021-03-12 04:45 6.28 50700 174000 (2020) 41200 (2015) 92600 44000 46500 62000 170000 172000
2021-03-12 03:45 6.29 50800 174000 (2020) 41200 (2015) 92600 44000 46500 62000 170000 172000
2021-03-12 02:45 6.27 50700 174000 (2020) 41200 (2015) 92600 44000 46500 62000 170000 172000
2021-03-12 01:45 6.28 50700 174000 (2020) 41200 (2015) 92600 44000 46500 62000 170000 172000
2021-03-12 00:45 6.28 50700 174000 (2020) 41200 (2015) 92600 44000 46500 62000 170000 172000
2021-03-11 23:45 6.26 50600 168000 (2020) 40300 (2015) 87800 43300 46000 65300 147000 157000
2021-03-11 22:45 6.26 50600 168000 (2020) 40300 (2015) 87800 43300 46000 65300 147000 157000
2021-03-11 21:45 6.26 50600 168000 (2020) 40300 (2015) 87800 43300 46000 65300 147000 157000
2021-03-11 20:45 6.24 50500 168000 (2020) 40300 (2015) 87800 43300 46000 65300 147000 157000
2021-03-11 19:45 6.25 50500 168000 (2020) 40300 (2015) 87800 43300 46000 65300 147000 157000
2021-03-11 18:45 6.26 50600 168000 (2020) 40300 (2015) 87800 43300 46000 65300 147000 157000
2021-03-11 17:45 6.25 50500 168000 (2020) 40300 (2015) 87800 43300 46000 65300 147000 157000
2021-03-11 16:45 6.26 50600 168000 (2020) 40300 (2015) 87800 43300 46000 65300 147000 157000
2021-03-11 15:45 6.26 50600 168000 (2020) 40300 (2015) 87800 43300 46000 65300 147000 157000
2021-03-11 14:45 6.25 50500 168000 (2020) 40300 (2015) 87800 43300 46000 65300 147000 157000
2021-03-11 13:45 6.26 50600 168000 (2020) 40300 (2015) 87800 43300 46000 65300 147000 157000
2021-03-11 12:45 6.25 50500 168000 (2020) 40300 (2015) 87800 43300 46000 65300 147000 157000
2021-03-11 11:45 6.23 50400 168000 (2020) 40300 (2015) 87800 43300 46000 65300 147000 157000
2021-03-11 10:45 6.25 50500 168000 (2020) 40300 (2015) 87800 43300 46000 65300 147000 157000
2021-03-11 09:45 6.24 50500 168000 (2020) 40300 (2015) 87800 43300 46000 65300 147000 157000
2021-03-11 08:45 6.24 50500 168000 (2020) 40300 (2015) 87800 43300 46000 65300 147000 157000
2021-03-11 07:45 6.25 50500 168000 (2020) 40300 (2015) 87800 43300 46000 65300 147000 157000
2021-03-11 06:45 6.26 50600 168000 (2020) 40300 (2015) 87800 43300 46000 65300 147000 157000
2021-03-11 05:45 6.27 50700 168000 (2020) 40300 (2015) 87800 43300 46000 65300 147000 157000
2021-03-11 04:45 6.24 50500 168000 (2020) 40300 (2015) 87800 43300 46000 65300 147000 157000
2021-03-11 03:45 6.26 50600 168000 (2020) 40300 (2015) 87800 43300 46000 65300 147000 157000
2021-03-11 02:45 6.25 50500 168000 (2020) 40300 (2015) 87800 43300 46000 65300 147000 157000
2021-03-11 01:45 6.24 50500 168000 (2020) 40300 (2015) 87800 43300 46000 65300 147000 157000
2021-03-11 00:45 6.23 50400 168000 (2020) 40300 (2015) 87800 43300 46000 65300 147000 157000
2021-03-10 23:45 6.24 50500 122000 (2020) 39500 (2015) 73600 42700 45600 68500 102000 111000
2021-03-10 22:45 6.24 50500 122000 (2020) 39500 (2015) 73600 42700 45600 68500 102000 111000
2021-03-10 21:45 6.25 50500 122000 (2020) 39500 (2015) 73600 42700 45600 68500 102000 111000
2021-03-10 20:45 6.28 50700 122000 (2020) 39500 (2015) 73600 42700 45600 68500 102000 111000
2021-03-10 19:45 6.24 50500 122000 (2020) 39500 (2015) 73600 42700 45600 68500 102000 111000
2021-03-10 18:45 6.29 50800 122000 (2020) 39500 (2015) 73600 42700 45600 68500 102000 111000
2021-03-10 17:45 6.30 50800 122000 (2020) 39500 (2015) 73600 42700 45600 68500 102000 111000
2021-03-10 16:45 6.28 50700 122000 (2020) 39500 (2015) 73600 42700 45600 68500 102000 111000
2021-03-10 15:45 6.30 50800 122000 (2020) 39500 (2015) 73600 42700 45600 68500 102000 111000
2021-03-10 14:45 6.23 50400 122000 (2020) 39500 (2015) 73600 42700 45600 68500 102000 111000
2021-03-10 13:45 6.29 50800 122000 (2020) 39500 (2015) 73600 42700 45600 68500 102000 111000
2021-03-10 12:45 6.29 50800 122000 (2020) 39500 (2015) 73600 42700 45600 68500 102000 111000
2021-03-10 11:45 6.34 51000 122000 (2020) 39500 (2015) 73600 42700 45600 68500 102000 111000
2021-03-10 10:45 6.28 50700 122000 (2020) 39500 (2015) 73600 42700 45600 68500 102000 111000
2021-03-10 09:45 6.35 51100 122000 (2020) 39500 (2015) 73600 42700 45600 68500 102000 111000
2021-03-10 08:45 6.35 51100 122000 (2020) 39500 (2015) 73600 42700 45600 68500 102000 111000
2021-03-10 07:45 6.38 51200 122000 (2020) 39500 (2015) 73600 42700 45600 68500 102000 111000
2021-03-10 06:45 6.43 51500 122000 (2020) 39500 (2015) 73600 42700 45600 68500 102000 111000
2021-03-10 05:45 6.41 51400 122000 (2020) 39500 (2015) 73600 42700 45600 68500 102000 111000
2021-03-10 04:45 6.42 51400 122000 (2020) 39500 (2015) 73600 42700 45600 68500 102000 111000
2021-03-10 03:45 6.43 51500 122000 (2020) 39500 (2015) 73600 42700 45600 68500 102000 111000
2021-03-10 02:45 6.46 51700 122000 (2020) 39500 (2015) 73600 42700 45600 68500 102000 111000
2021-03-10 01:45 6.46 51700 122000 (2020) 39500 (2015) 73600 42700 45600 68500 102000 111000
2021-03-10 00:45 6.48 51800 122000 (2020) 39500 (2015) 73600 42700 45600 68500 102000 111000
2021-03-09 23:45 6.48 51800 89000 (2020) 38600 (2015) 63300 42300 45600 67900 73400 80700
2021-03-09 22:45 6.49 51800 89000 (2020) 38600 (2015) 63300 42300 45600 67900 73400 80700
2021-03-09 21:45 6.50 51900 89000 (2020) 38600 (2015) 63300 42300 45600 67900 73400 80700
2021-03-09 20:45 6.50 51900 89000 (2020) 38600 (2015) 63300 42300 45600 67900 73400 80700
2021-03-09 19:45 6.53 52000 89000 (2020) 38600 (2015) 63300 42300 45600 67900 73400 80700
2021-03-09 18:45 6.50 51900 89000 (2020) 38600 (2015) 63300 42300 45600 67900 73400 80700
2021-03-09 17:45 6.52 52000 89000 (2020) 38600 (2015) 63300 42300 45600 67900 73400 80700
2021-03-09 16:45 6.49 51800 89000 (2020) 38600 (2015) 63300 42300 45600 67900 73400 80700
2021-03-09 15:45 6.53 52000 89000 (2020) 38600 (2015) 63300 42300 45600 67900 73400 80700
2021-03-09 14:45 6.48 51800 89000 (2020) 38600 (2015) 63300 42300 45600 67900 73400 80700
2021-03-09 13:45 6.53 52000 89000 (2020) 38600 (2015) 63300 42300 45600 67900 73400 80700
2021-03-09 12:45 6.54 52100 89000 (2020) 38600 (2015) 63300 42300 45600 67900 73400 80700
2021-03-09 11:45 6.56 52200 89000 (2020) 38600 (2015) 63300 42300 45600 67900 73400 80700
2021-03-09 10:45 6.55 52100 89000 (2020) 38600 (2015) 63300 42300 45600 67900 73400 80700
2021-03-09 09:45 6.57 52200 89000 (2020) 38600 (2015) 63300 42300 45600 67900 73400 80700
2021-03-09 08:45 6.58 52300 89000 (2020) 38600 (2015) 63300 42300 45600 67900 73400 80700
2021-03-09 07:45 6.60 52400 89000 (2020) 38600 (2015) 63300 42300 45600 67900 73400 80700
2021-03-09 06:45 6.61 52500 89000 (2020) 38600 (2015) 63300 42300 45600 67900 73400 80700
2021-03-09 05:45 6.61 52500 89000 (2020) 38600 (2015) 63300 42300 45600 67900 73400 80700
2021-03-09 04:45 6.59 52300 89000 (2020) 38600 (2015) 63300 42300 45600 67900 73400 80700
2021-03-09 03:45 6.64 52600 89000 (2020) 38600 (2015) 63300 42300 45600 67900 73400 80700
2021-03-09 02:45 6.60 52400 89000 (2020) 38600 (2015) 63300 42300 45600 67900 73400 80700
2021-03-09 01:45 6.63 52600 89000 (2020) 38600 (2015) 63300 42300 45600 67900 73400 80700
2021-03-09 00:45 6.61 52500 89000 (2020) 38600 (2015) 63300 42300 45600 67900 73400 80700
2021-03-08 23:45 6.62 52500 84600 (2020) 37200 (2015) 59700 41500 45300 60500 71700 77700
2021-03-08 22:45 6.64 52600 84600 (2020) 37200 (2015) 59700 41500 45300 60500 71700 77700
2021-03-08 21:45 6.67 52800 84600 (2020) 37200 (2015) 59700 41500 45300 60500 71700 77700
2021-03-08 20:45 6.67 52800 84600 (2020) 37200 (2015) 59700 41500 45300 60500 71700 77700
2021-03-08 19:45 6.64 52600 84600 (2020) 37200 (2015) 59700 41500 45300 60500 71700 77700
2021-03-08 18:45 6.64 52600 84600 (2020) 37200 (2015) 59700 41500 45300 60500 71700 77700
2021-03-08 17:45 6.70 52900 84600 (2020) 37200 (2015) 59700 41500 45300 60500 71700 77700
2021-03-08 16:45 6.67 52800 84600 (2020) 37200 (2015) 59700 41500 45300 60500 71700 77700
2021-03-08 15:45 6.68 52800 84600 (2020) 37200 (2015) 59700 41500 45300 60500 71700 77700
2021-03-08 14:45 6.70 52900 84600 (2020) 37200 (2015) 59700 41500 45300 60500 71700 77700
2021-03-08 13:45 6.67 52800 84600 (2020) 37200 (2015) 59700 41500 45300 60500 71700 77700
2021-03-08 12:45 6.67 52800 84600 (2020) 37200 (2015) 59700 41500 45300 60500 71700 77700
2021-03-08 11:45 6.67 52800 84600 (2020) 37200 (2015) 59700 41500 45300 60500 71700 77700
2021-03-08 10:45 6.67 52800 84600 (2020) 37200 (2015) 59700 41500 45300 60500 71700 77700
2021-03-08 09:45 6.70 52900 84600 (2020) 37200 (2015) 59700 41500 45300 60500 71700 77700
2021-03-08 08:45 6.72 53000 84600 (2020) 37200 (2015) 59700 41500 45300 60500 71700 77700
2021-03-08 07:45 6.70 52900 84600 (2020) 37200 (2015) 59700 41500 45300 60500 71700 77700
2021-03-08 06:45 6.72 53000 84600 (2020) 37200 (2015) 59700 41500 45300 60500 71700 77700
2021-03-08 05:45 6.74 53200 84600 (2020) 37200 (2015) 59700 41500 45300 60500 71700 77700
2021-03-08 04:45 6.76 53300 84600 (2020) 37200 (2015) 59700 41500 45300 60500 71700 77700
2021-03-08 03:45 6.77 53300 84600 (2020) 37200 (2015) 59700 41500 45300 60500 71700 77700
2021-03-08 02:45 6.78 53400 84600 (2020) 37200 (2015) 59700 41500 45300 60500 71700 77700
2021-03-08 01:45 6.78 53400 84600 (2020) 37200 (2015) 59700 41500 45300 60500 71700 77700
2021-03-08 00:45 6.80 53500 84600 (2020) 37200 (2015) 59700 41500 45300 60500 71700 77700
2021-03-07 23:45 6.82 53600 82700 (2020) 36900 (2015) 58900 41300 45100 59400 71000 76500
2021-03-07 22:45 6.84 53700 82700 (2020) 36900 (2015) 58900 41300 45100 59400 71000 76500
2021-03-07 21:45 6.87 53900 82700 (2020) 36900 (2015) 58900 41300 45100 59400 71000 76500
2021-03-07 20:45 6.89 54000 82700 (2020) 36900 (2015) 58900 41300 45100 59400 71000 76500
2021-03-07 19:45 6.89 54000 82700 (2020) 36900 (2015) 58900 41300 45100 59400 71000 76500
2021-03-07 18:45 6.91 54100 82700 (2020) 36900 (2015) 58900 41300 45100 59400 71000 76500
2021-03-07 17:45 6.95 54300 82700 (2020) 36900 (2015) 58900 41300 45100 59400 71000 76500
2021-03-07 16:45 6.95 54300 82700 (2020) 36900 (2015) 58900 41300 45100 59400 71000 76500
2021-03-07 15:45 6.97 54400 82700 (2020) 36900 (2015) 58900 41300 45100 59400 71000 76500
2021-03-07 14:45 7.01 54600 82700 (2020) 36900 (2015) 58900 41300 45100 59400 71000 76500
2021-03-07 13:45 7.04 54800 82700 (2020) 36900 (2015) 58900 41300 45100 59400 71000 76500
2021-03-07 12:45 7.04 54800 82700 (2020) 36900 (2015) 58900 41300 45100 59400 71000 76500
2021-03-07 11:45 7.06 54900 82700 (2020) 36900 (2015) 58900 41300 45100 59400 71000 76500
2021-03-07 10:45 7.11 55200 82700 (2020) 36900 (2015) 58900 41300 45100 59400 71000 76500
2021-03-07 09:45 7.10 55100 82700 (2020) 36900 (2015) 58900 41300 45100 59400 71000 76500
2021-03-07 08:45 7.12 55300 82700 (2020) 36900 (2015) 58900 41300 45100 59400 71000 76500
2021-03-07 07:45 7.15 55400 82700 (2020) 36900 (2015) 58900 41300 45100 59400 71000 76500
2021-03-07 06:45 7.19 55600 82700 (2020) 36900 (2015) 58900 41300 45100 59400 71000 76500
2021-03-07 05:45 7.22 55800 82700 (2020) 36900 (2015) 58900 41300 45100 59400 71000 76500
2021-03-07 04:45 7.26 56000 82700 (2020) 36900 (2015) 58900 41300 45100 59400 71000 76500
2021-03-07 03:45 7.26 56000 82700 (2020) 36900 (2015) 58900 41300 45100 59400 71000 76500
2021-03-07 02:45 7.28 56200 82700 (2020) 36900 (2015) 58900 41300 45100 59400 71000 76500
2021-03-07 01:45 7.31 56300 82700 (2020) 36900 (2015) 58900 41300 45100 59400 71000 76500
2021-03-07 00:45 7.34 56500 82700 (2020) 36900 (2015) 58900 41300 45100 59400 71000 76500
2021-03-06 23:45 7.36 56600 83000 (2020) 37900 (2015) 59500 41700 45000 60200 72000 77100
2021-03-06 22:45 7.37 56700 83000 (2020) 37900 (2015) 59500 41700 45000 60200 72000 77100
2021-03-06 21:45 7.43 57000 83000 (2020) 37900 (2015) 59500 41700 45000 60200 72000 77100
2021-03-06 20:45 7.45 57100 83000 (2020) 37900 (2015) 59500 41700 45000 60200 72000 77100
2021-03-06 19:45 7.47 57200 83000 (2020) 37900 (2015) 59500 41700 45000 60200 72000 77100
2021-03-06 18:45 7.48 57300 83000 (2020) 37900 (2015) 59500 41700 45000 60200 72000 77100
2021-03-06 17:45 7.50 57400 83000 (2020) 37900 (2015) 59500 41700 45000 60200 72000 77100
2021-03-06 16:45 7.52 57500 83000 (2020) 37900 (2015) 59500 41700 45000 60200 72000 77100
2021-03-06 15:45 7.50 57400 83000 (2020) 37900 (2015) 59500 41700 45000 60200 72000 77100
2021-03-06 14:45 7.52 57500 83000 (2020) 37900 (2015) 59500 41700 45000 60200 72000 77100
2021-03-06 13:45 7.50 57400 83000 (2020) 37900 (2015) 59500 41700 45000 60200 72000 77100
2021-03-06 12:45 7.54 57600 83000 (2020) 37900 (2015) 59500 41700 45000 60200 72000 77100
2021-03-06 11:45 7.53 57600 83000 (2020) 37900 (2015) 59500 41700 45000 60200 72000 77100
2021-03-06 10:45 7.54 57600 83000 (2020) 37900 (2015) 59500 41700 45000 60200 72000 77100
2021-03-06 09:45 7.58 57900 83000 (2020) 37900 (2015) 59500 41700 45000 60200 72000 77100
2021-03-06 08:45 7.58 57900 83000 (2020) 37900 (2015) 59500 41700 45000 60200 72000 77100
2021-03-06 07:45 7.61 58100 83000 (2020) 37900 (2015) 59500 41700 45000 60200 72000 77100
2021-03-06 06:45 7.62 58100 83000 (2020) 37900 (2015) 59500 41700 45000 60200 72000 77100
2021-03-06 05:45 7.63 58200 83000 (2020) 37900 (2015) 59500 41700 45000 60200 72000 77100
2021-03-06 04:45 7.60 58000 83000 (2020) 37900 (2015) 59500 41700 45000 60200 72000 77100
2021-03-06 03:45 7.56 57800 83000 (2020) 37900 (2015) 59500 41700 45000 60200 72000 77100
2021-03-06 02:45 7.63 58200 83000 (2020) 37900 (2015) 59500 41700 45000 60200 72000 77100
2021-03-06 01:45 7.57 57800 83000 (2020) 37900 (2015) 59500 41700 45000 60200 72000 77100
2021-03-06 00:45 7.57 57800 83000 (2020) 37900 (2015) 59500 41700 45000 60200 72000 77100
2021-03-05 23:45 7.58 57900 83700 (2020) 38600 (2015) 60200 42500 45900 60600 72800 77900
2021-03-05 22:45 7.57 57800 83700 (2020) 38600 (2015) 60200 42500 45900 60600 72800 77900
2021-03-05 21:45 7.60 58000 83700 (2020) 38600 (2015) 60200 42500 45900 60600 72800 77900
2021-03-05 20:45 7.59 57900 83700 (2020) 38600 (2015) 60200 42500 45900 60600 72800 77900
2021-03-05 19:45 7.61 58100 83700 (2020) 38600 (2015) 60200 42500 45900 60600 72800 77900
2021-03-05 18:45 7.58 57900 83700 (2020) 38600 (2015) 60200 42500 45900 60600 72800 77900
2021-03-05 17:45 7.59 57900 83700 (2020) 38600 (2015) 60200 42500 45900 60600 72800 77900
2021-03-05 16:45 7.58 57900 83700 (2020) 38600 (2015) 60200 42500 45900 60600 72800 77900
2021-03-05 15:45 7.59 48800 83700 (2020) 38600 (2015) 60200 42500 45900 60600 72800 77900
2021-03-05 14:45 7.58 48700 83700 (2020) 38600 (2015) 60200 42500 45900 60600 72800 77900
2021-03-05 13:45 7.56 48600 83700 (2020) 38600 (2015) 60200 42500 45900 60600 72800 77900
2021-03-05 12:45 7.56 48600 83700 (2020) 38600 (2015) 60200 42500 45900 60600 72800 77900
2021-03-05 11:45 7.53 48500 83700 (2020) 38600 (2015) 60200 42500 45900 60600 72800 77900
2021-03-05 10:45 7.53 48500 83700 (2020) 38600 (2015) 60200 42500 45900 60600 72800 77900
2021-03-05 09:45 7.53 48500 83700 (2020) 38600 (2015) 60200 42500 45900 60600 72800 77900
2021-03-05 08:45 7.48 48200 83700 (2020) 38600 (2015) 60200 42500 45900 60600 72800 77900
2021-03-05 07:45 7.51 48400 83700 (2020) 38600 (2015) 60200 42500 45900 60600 72800 77900
2021-03-05 06:45 7.49 48300 83700 (2020) 38600 (2015) 60200 42500 45900 60600 72800 77900
2021-03-05 05:45 7.46 48100 83700 (2020) 38600 (2015) 60200 42500 45900 60600 72800 77900
2021-03-05 04:45 7.45 48100 83700 (2020) 38600 (2015) 60200 42500 45900 60600 72800 77900
2021-03-05 03:45 7.40 47800 83700 (2020) 38600 (2015) 60200 42500 45900 60600 72800 77900
2021-03-05 02:45 7.35 47600 83700 (2020) 38600 (2015) 60200 42500 45900 60600 72800 77900
2021-03-05 01:45 7.37 47700 83700 (2020) 38600 (2015) 60200 42500 45900 60600 72800 77900
2021-03-05 00:45 7.36 47600 83700 (2020) 38600 (2015) 60200 42500 45900 60600 72800 77900
2021-03-04 23:45 7.35 47600 84400 (2020) 38300 (2015) 60100 42500 46100 59500 73800 78700
2021-03-04 22:45 7.31 47400 84400 (2020) 38300 (2015) 60100 42500 46100 59500 73800 78700
2021-03-04 21:45 7.31 47400 84400 (2020) 38300 (2015) 60100 42500 46100 59500 73800 78700
2021-03-04 20:45 7.28 47200 84400 (2020) 38300 (2015) 60100 42500 46100 59500 73800 78700
2021-03-04 19:45 7.26 47100 84400 (2020) 38300 (2015) 60100 42500 46100 59500 73800 78700
2021-03-04 18:45 7.28 47200 84400 (2020) 38300 (2015) 60100 42500 46100 59500 73800 78700
2021-03-04 17:45 7.24 47000 84400 (2020) 38300 (2015) 60100 42500 46100 59500 73800 78700
2021-03-04 16:45 7.24 47000 84400 (2020) 38300 (2015) 60100 42500 46100 59500 73800 78700
2021-03-04 15:45 7.24 47000 84400 (2020) 38300 (2015) 60100 42500 46100 59500 73800 78700
2021-03-04 14:45 7.22 46900 84400 (2020) 38300 (2015) 60100 42500 46100 59500 73800 78700
2021-03-04 13:45 7.21 46900 84400 (2020) 38300 (2015) 60100 42500 46100 59500 73800 78700
2021-03-04 12:45 7.20 46800 84400 (2020) 38300 (2015) 60100 42500 46100 59500 73800 78700
2021-03-04 11:45 7.18 46800 84400 (2020) 38300 (2015) 60100 42500 46100 59500 73800 78700
2021-03-04 10:45 7.22 46900 84400 (2020) 38300 (2015) 60100 42500 46100 59500 73800 78700
2021-03-04 09:45 7.22 46900 84400 (2020) 38300 (2015) 60100 42500 46100 59500 73800 78700
2021-03-04 08:45 7.23 47000 84400 (2020) 38300 (2015) 60100 42500 46100 59500 73800 78700
2021-03-04 07:45 7.21 46900 84400 (2020) 38300 (2015) 60100 42500 46100 59500 73800 78700
2021-03-04 06:45 7.22 46900 84400 (2020) 38300 (2015) 60100 42500 46100 59500 73800 78700
2021-03-04 05:45 7.25 47100 84400 (2020) 38300 (2015) 60100 42500 46100 59500 73800 78700
2021-03-04 04:45 7.26 47100 84400 (2020) 38300 (2015) 60100 42500 46100 59500 73800 78700
2021-03-04 03:45 7.25 47100 84400 (2020) 38300 (2015) 60100 42500 46100 59500 73800 78700
2021-03-04 02:45 7.26 47100 84400 (2020) 38300 (2015) 60100 42500 46100 59500 73800 78700
2021-03-04 01:45 7.26 47100 84400 (2020) 38300 (2015) 60100 42500 46100 59500 73800 78700
2021-03-04 00:45 7.29 47300 84400 (2020) 38300 (2015) 60100 42500 46100 59500 73800 78700
2021-03-03 23:45 7.29 47300 84900 (2020) 38700 (2015) 60600 41200 43400 60300 77000 80700
2021-03-03 22:45 7.31 47400 84900 (2020) 38700 (2015) 60600 41200 43400 60300 77000 80700
2021-03-03 21:45 7.29 47300 84900 (2020) 38700 (2015) 60600 41200 43400 60300 77000 80700
2021-03-03 20:45 7.31 47400 84900 (2020) 38700 (2015) 60600 41200 43400 60300 77000 80700
2021-03-03 19:45 7.29 47300 84900 (2020) 38700 (2015) 60600 41200 43400 60300 77000 80700
2021-03-03 18:45 7.34 47500 84900 (2020) 38700 (2015) 60600 41200 43400 60300 77000 80700
2021-03-03 17:45 7.35 47600 84900 (2020) 38700 (2015) 60600 41200 43400 60300 77000 80700
2021-03-03 16:45 7.34 47500 84900 (2020) 38700 (2015) 60600 41200 43400 60300 77000 80700
2021-03-03 15:45 7.34 47500 84900 (2020) 38700 (2015) 60600 41200 43400 60300 77000 80700
2021-03-03 14:45 7.36 47600 84900 (2020) 38700 (2015) 60600 41200 43400 60300 77000 80700
2021-03-03 13:45 7.37 47700 84900 (2020) 38700 (2015) 60600 41200 43400 60300 77000 80700
2021-03-03 12:45 7.43 48000 84900 (2020) 38700 (2015) 60600 41200 43400 60300 77000 80700
2021-03-03 11:45 7.42 47900 84900 (2020) 38700 (2015) 60600 41200 43400 60300 77000 80700
2021-03-03 10:45 7.45 48100 84900 (2020) 38700 (2015) 60600 41200 43400 60300 77000 80700
2021-03-03 09:45 7.43 48000 84900 (2020) 38700 (2015) 60600 41200 43400 60300 77000 80700
2021-03-03 08:45 7.46 48100 84900 (2020) 38700 (2015) 60600 41200 43400 60300 77000 80700
2021-03-03 07:45 7.45 48100 84900 (2020) 38700 (2015) 60600 41200 43400 60300 77000 80700
2021-03-03 06:45 7.49 48300 84900 (2020) 38700 (2015) 60600 41200 43400 60300 77000 80700
2021-03-03 05:45 7.49 48300 84900 (2020) 38700 (2015) 60600 41200 43400 60300 77000 80700
2021-03-03 04:45 7.51 48400 84900 (2020) 38700 (2015) 60600 41200 43400 60300 77000 80700
2021-03-03 03:45 7.50 48300 84900 (2020) 38700 (2015) 60600 41200 43400 60300 77000 80700
2021-03-03 02:45 7.51 48400 84900 (2020) 38700 (2015) 60600 41200 43400 60300 77000 80700
2021-03-03 01:45 7.52 48400 84900 (2020) 38700 (2015) 60600 41200 43400 60300 77000 80700
2021-03-03 00:45 7.53 48500 84900 (2020) 38700 (2015) 60600 41200 43400 60300 77000 80700
2021-03-02 23:45 7.51 48400 85500 (2020) 40500 (2015) 62500 42200 43700 61500 82400 83900
2021-03-02 22:45 7.50 48300 85500 (2020) 40500 (2015) 62500 42200 43700 61500 82400 83900
2021-03-02 21:45 7.54 48500 85500 (2020) 40500 (2015) 62500 42200 43700 61500 82400 83900
2021-03-02 20:45 7.50 48300 85500 (2020) 40500 (2015) 62500 42200 43700 61500 82400 83900
2021-03-02 19:45 7.50 48300 85500 (2020) 40500 (2015) 62500 42200 43700 61500 82400 83900
2021-03-02 18:45 7.49 48300 85500 (2020) 40500 (2015) 62500 42200 43700 61500 82400 83900
2021-03-02 17:45 7.49 48300 85500 (2020) 40500 (2015) 62500 42200 43700 61500 82400 83900
2021-03-02 16:45 7.47 48200 85500 (2020) 40500 (2015) 62500 42200 43700 61500 82400 83900
2021-03-02 15:45 7.45 48100 85500 (2020) 40500 (2015) 62500 42200 43700 61500 82400 83900
2021-03-02 14:45 7.42 47900 85500 (2020) 40500 (2015) 62500 42200 43700 61500 82400 83900
2021-03-02 13:45 7.40 47800 85500 (2020) 40500 (2015) 62500 42200 43700 61500 82400 83900
2021-03-02 12:45 7.40 47800 85500 (2020) 40500 (2015) 62500 42200 43700 61500 82400 83900
2021-03-02 11:45 7.40 47800 85500 (2020) 40500 (2015) 62500 42200 43700 61500 82400 83900
2021-03-02 10:45 7.39 47800 85500 (2020) 40500 (2015) 62500 42200 43700 61500 82400 83900
2021-03-02 09:45 7.38 47700 85500 (2020) 40500 (2015) 62500 42200 43700 61500 82400 83900
2021-03-02 08:45 7.39 47800 85500 (2020) 40500 (2015) 62500 42200 43700 61500 82400 83900
2021-03-02 07:45 7.38 47700 85500 (2020) 40500 (2015) 62500 42200 43700 61500 82400 83900
2021-03-02 06:45 7.36 47600 85500 (2020) 40500 (2015) 62500 42200 43700 61500 82400 83900
2021-03-02 05:45 7.33 47500 85500 (2020) 40500 (2015) 62500 42200 43700 61500 82400 83900
2021-03-02 04:45 7.31 47400 85500 (2020) 40500 (2015) 62500 42200 43700 61500 82400 83900
2021-03-02 03:45 7.32 47400 85500 (2020) 40500 (2015) 62500 42200 43700 61500 82400 83900
2021-03-02 02:45 7.28 47200 85500 (2020) 40500 (2015) 62500 42200 43700 61500 82400 83900
2021-03-02 01:45 7.27 47200 85500 (2020) 40500 (2015) 62500 42200 43700 61500 82400 83900
2021-03-02 00:45 7.22 46900 85500 (2020) 40500 (2015) 62500 42200 43700 61500 82400 83900
2021-03-01 23:45 7.22 46900 94000 (2019) 41500 (2015) 65300 43000 44400 62300 88500 91100
2021-03-01 22:45 7.23 47000 94000 (2019) 41500 (2015) 65300 43000 44400 62300 88500 91100
2021-03-01 21:45 7.21 46900 94000 (2019) 41500 (2015) 65300 43000 44400 62300 88500 91100
2021-03-01 20:45 7.18 46800 94000 (2019) 41500 (2015) 65300 43000 44400 62300 88500 91100
2021-03-01 19:45 7.18 46800 94000 (2019) 41500 (2015) 65300 43000 44400 62300 88500 91100
2021-03-01 18:45 7.15 46600 94000 (2019) 41500 (2015) 65300 43000 44400 62300 88500 91100
2021-03-01 17:45 7.15 46600 94000 (2019) 41500 (2015) 65300 43000 44400 62300 88500 91100
2021-03-01 16:45 7.11 46400 94000 (2019) 41500 (2015) 65300 43000 44400 62300 88500 91100
2021-03-01 15:45 7.10 46400 94000 (2019) 41500 (2015) 65300 43000 44400 62300 88500 91100
2021-03-01 14:45 7.09 46300 94000 (2019) 41500 (2015) 65300 43000 44400 62300 88500 91100
2021-03-01 13:45 7.05 46100 94000 (2019) 41500 (2015) 65300 43000 44400 62300 88500 91100
2021-03-01 12:45 7.07 46200 94000 (2019) 41500 (2015) 65300 43000 44400 62300 88500 91100
2021-03-01 11:45 7.04 46100 94000 (2019) 41500 (2015) 65300 43000 44400 62300 88500 91100
2021-03-01 10:45 7.03 46000 94000 (2019) 41500 (2015) 65300 43000 44400 62300 88500 91100
2021-03-01 09:45 7.01 45900 94000 (2019) 41500 (2015) 65300 43000 44400 62300 88500 91100
2021-03-01 08:45 7.01 45900 94000 (2019) 41500 (2015) 65300 43000 44400 62300 88500 91100
2021-03-01 07:45 7.02 46000 94000 (2019) 41500 (2015) 65300 43000 44400 62300 88500 91100
2021-03-01 06:45 7.02 46000 94000 (2019) 41500 (2015) 65300 43000 44400 62300 88500 91100
2021-03-01 05:45 7.02 46000 94000 (2019) 41500 (2015) 65300 43000 44400 62300 88500 91100
2021-03-01 04:45 7.04 46100 94000 (2019) 41500 (2015) 65300 43000 44400 62300 88500 91100
2021-03-01 03:45 7.03 46000 94000 (2019) 41500 (2015) 65300 43000 44400 62300 88500 91100
2021-03-01 02:45 7.01 45900 94000 (2019) 41500 (2015) 65300 43000 44400 62300 88500 91100
2021-03-01 01:45 7.01 45900 94000 (2019) 41500 (2015) 65300 43000 44400 62300 88500 91100
2021-03-01 00:45 7.06 46200 94000 (2019) 41500 (2015) 65300 43000 44400 62300 88500 91100
2021-02-28 23:45 7.04 46100 115000 (2019) 40700 (2015) 70400 43500 46000 63500 97500 106000
2021-02-28 22:45 7.07 46200 115000 (2019) 40700 (2015) 70400 43500 46000 63500 97500 106000
2021-02-28 21:45 7.09 46300 115000 (2019) 40700 (2015) 70400 43500 46000 63500 97500 106000
2021-02-28 20:45 7.07 46200 115000 (2019) 40700 (2015) 70400 43500 46000 63500 97500 106000
2021-02-28 19:45 7.06 46200 115000 (2019) 40700 (2015) 70400 43500 46000 63500 97500 106000
2021-02-28 18:45 7.11 46400 115000 (2019) 40700 (2015) 70400 43500 46000 63500 97500 106000
2021-02-28 17:45 7.14 46600 115000 (2019) 40700 (2015) 70400 43500 46000 63500 97500 106000
2021-02-28 16:45 7.16 46700 115000 (2019) 40700 (2015) 70400 43500 46000 63500 97500 106000
2021-02-28 15:45 7.16 46700 115000 (2019) 40700 (2015) 70400 43500 46000 63500 97500 106000
2021-02-28 14:45 7.19 46800 115000 (2019) 40700 (2015) 70400 43500 46000 63500 97500 106000
2021-02-28 13:45 7.22 46900 115000 (2019) 40700 (2015) 70400 43500 46000 63500 97500 106000
2021-02-28 12:45 7.25 47100 115000 (2019) 40700 (2015) 70400 43500 46000 63500 97500 106000
2021-02-28 11:45 7.22 46900 115000 (2019) 40700 (2015) 70400 43500 46000 63500 97500 106000
2021-02-28 10:45 7.29 47300 115000 (2019) 40700 (2015) 70400 43500 46000 63500 97500 106000
2021-02-28 09:45 7.28 47200 115000 (2019) 40700 (2015) 70400 43500 46000 63500 97500 106000
2021-02-28 08:45 7.35 47600 115000 (2019) 40700 (2015) 70400 43500 46000 63500 97500 106000
2021-02-28 07:45 7.34 47500 115000 (2019) 40700 (2015) 70400 43500 46000 63500 97500 106000
2021-02-28 06:45 7.36 47600 115000 (2019) 40700 (2015) 70400 43500 46000 63500 97500 106000
2021-02-28 05:45 7.40 47800 115000 (2019) 40700 (2015) 70400 43500 46000 63500 97500 106000
2021-02-28 04:45 7.43 48000 115000 (2019) 40700 (2015) 70400 43500 46000 63500 97500 106000
2021-02-28 03:45 7.44 48000 115000 (2019) 40700 (2015) 70400 43500 46000 63500 97500 106000
2021-02-28 02:45 7.49 48300 115000 (2019) 40700 (2015) 70400 43500 46000 63500 97500 106000
2021-02-28 01:45 7.50 48300 115000 (2019) 40700 (2015) 70400 43500 46000 63500 97500 106000
2021-02-28 00:45 7.57 48700 115000 (2019) 40700 (2015) 70400 43500 46000 63500 97500 106000
2021-02-27 23:45 7.56 48600 137000 (2019) 40000 (2015) 75200 44000 47500 65500 104000 120000
2021-02-27 22:45 7.58 48700 137000 (2019) 40000 (2015) 75200 44000 47500 65500 104000 120000
2021-02-27 21:45 7.61 48900 137000 (2019) 40000 (2015) 75200 44000 47500 65500 104000 120000
2021-02-27 20:45 7.65 49100 137000 (2019) 40000 (2015) 75200 44000 47500 65500 104000 120000
2021-02-27 19:45 7.65 49100 137000 (2019) 40000 (2015) 75200 44000 47500 65500 104000 120000
2021-02-27 18:45 7.67 49200 137000 (2019) 40000 (2015) 75200 44000 47500 65500 104000 120000
2021-02-27 17:45 7.68 49300 137000 (2019) 40000 (2015) 75200 44000 47500 65500 104000 120000
2021-02-27 16:45 7.72 49500 137000 (2019) 40000 (2015) 75200 44000 47500 65500 104000 120000
2021-02-27 15:45 7.73 49500 137000 (2019) 40000 (2015) 75200 44000 47500 65500 104000 120000
2021-02-27 14:45 7.72 49500 137000 (2019) 40000 (2015) 75200 44000 47500 65500 104000 120000
2021-02-27 13:45 7.75 49600 137000 (2019) 40000 (2015) 75200 44000 47500 65500 104000 120000
2021-02-27 12:45 7.75 49600 137000 (2019) 40000 (2015) 75200 44000 47500 65500 104000 120000
2021-02-27 11:45 7.73 49500 137000 (2019) 40000 (2015) 75200 44000 47500 65500 104000 120000
2021-02-27 10:45 7.73 49500 137000 (2019) 40000 (2015) 75200 44000 47500 65500 104000 120000
2021-02-27 09:45 7.67 49200 137000 (2019) 40000 (2015) 75200 44000 47500 65500 104000 120000
2021-02-27 08:45 7.71 49400 137000 (2019) 40000 (2015) 75200 44000 47500 65500 104000 120000
2021-02-27 07:45 7.69 49300 137000 (2019) 40000 (2015) 75200 44000 47500 65500 104000 120000
2021-02-27 06:45 7.70 49400 137000 (2019) 40000 (2015) 75200 44000 47500 65500 104000 120000
2021-02-27 05:45 7.66 49200 137000 (2019) 40000 (2015) 75200 44000 47500 65500 104000 120000
2021-02-27 04:45 7.63 49000 137000 (2019) 40000 (2015) 75200 44000 47500 65500 104000 120000
2021-02-27 03:45 7.62 48900 137000 (2019) 40000 (2015) 75200 44000 47500 65500 104000 120000
2021-02-27 02:45 7.59 48800 137000 (2019) 40000 (2015) 75200 44000 47500 65500 104000 120000
2021-02-27 01:45 7.51 48400 137000 (2019) 40000 (2015) 75200 44000 47500 65500 104000 120000
2021-02-27 00:45 7.47 48200 137000 (2019) 40000 (2015) 75200 44000 47500 65500 104000 120000
2021-02-26 23:45 7.41 47900 144000 (2019) 41400 (2015) 77700 44900 48000 67600 107000 124000
2021-02-26 22:45 7.29 47300 144000 (2019) 41400 (2015) 77700 44900 48000 67600 107000 124000
2021-02-26 21:45 7.22 46900 144000 (2019) 41400 (2015) 77700 44900 48000 67600 107000 124000
2021-02-26 20:45 7.09 46300 144000 (2019) 41400 (2015) 77700 44900 48000 67600 107000 124000
2021-02-26 19:45 7.03 46000 144000 (2019) 41400 (2015) 77700 44900 48000 67600 107000 124000
2021-02-26 18:45 6.96 45700 144000 (2019) 41400 (2015) 77700 44900 48000 67600 107000 124000
2021-02-26 17:45 6.86 45200 144000 (2019) 41400 (2015) 77700 44900 48000 67600 107000 124000
2021-02-26 16:45 6.74 44600 144000 (2019) 41400 (2015) 77700 44900 48000 67600 107000 124000
2021-02-26 15:45 6.64 44200 144000 (2019) 41400 (2015) 77700 44900 48000 67600 107000 124000
2021-02-26 14:45 6.56 43800 144000 (2019) 41400 (2015) 77700 44900 48000 67600 107000 124000
2021-02-26 13:45 6.46 43300 144000 (2019) 41400 (2015) 77700 44900 48000 67600 107000 124000
2021-02-26 12:45 6.36 42900 144000 (2019) 41400 (2015) 77700 44900 48000 67600 107000 124000
2021-02-26 11:45 6.26 42400 144000 (2019) 41400 (2015) 77700 44900 48000 67600 107000 124000
2021-02-26 10:45 6.21 42200 144000 (2019) 41400 (2015) 77700 44900 48000 67600 107000 124000
2021-02-26 09:45 6.17 42000 144000 (2019) 41400 (2015) 77700 44900 48000 67600 107000 124000
2021-02-26 08:45 6.08 41600 144000 (2019) 41400 (2015) 77700 44900 48000 67600 107000 124000
2021-02-26 07:45 6.06 41500 144000 (2019) 41400 (2015) 77700 44900 48000 67600 107000 124000
2021-02-26 06:45 6.04 41400 144000 (2019) 41400 (2015) 77700 44900 48000 67600 107000 124000
2021-02-26 05:45 5.98 41200 144000 (2019) 41400 (2015) 77700 44900 48000 67600 107000 124000
2021-02-26 04:45 5.95 41000 144000 (2019) 41400 (2015) 77700 44900 48000 67600 107000 124000
2021-02-26 03:45 5.96 41100 144000 (2019) 41400 (2015) 77700 44900 48000 67600 107000 124000
2021-02-26 02:45 5.95 41000 144000 (2019) 41400 (2015) 77700 44900 48000 67600 107000 124000
2021-02-26 01:45 5.95 41000 144000 (2019) 41400 (2015) 77700 44900 48000 67600 107000 124000
2021-02-26 00:45 5.98 41200 144000 (2019) 41400 (2015) 77700 44900 48000 67600 107000 124000
2021-02-25 23:45 6.00 41200 142000 (2019) 43100 (2015) 77500 46000 48500 68400 105000 122000
2021-02-25 22:45 6.07 41600 142000 (2019) 43100 (2015) 77500 46000 48500 68400 105000 122000
2021-02-25 21:45 6.12 41800 142000 (2019) 43100 (2015) 77500 46000 48500 68400 105000 122000
2021-02-25 20:45 6.14 41900 142000 (2019) 43100 (2015) 77500 46000 48500 68400 105000 122000
2021-02-25 19:45 6.21 42200 142000 (2019) 43100 (2015) 77500 46000 48500 68400 105000 122000
2021-02-25 18:45 6.26 42400 142000 (2019) 43100 (2015) 77500 46000 48500 68400 105000 122000
2021-02-25 17:45 6.34 42800 142000 (2019) 43100 (2015) 77500 46000 48500 68400 105000 122000
2021-02-25 16:45 6.41 43100 142000 (2019) 43100 (2015) 77500 46000 48500 68400 105000 122000
2021-02-25 15:45 6.47 43400 142000 (2019) 43100 (2015) 77500 46000 48500 68400 105000 122000
2021-02-25 14:45 6.56 43800 142000 (2019) 43100 (2015) 77500 46000 48500 68400 105000 122000
2021-02-25 13:45 6.68 44300 142000 (2019) 43100 (2015) 77500 46000 48500 68400 105000 122000
2021-02-25 12:45 6.75 44700 142000 (2019) 43100 (2015) 77500 46000 48500 68400 105000 122000
2021-02-25 11:45 6.81 45000 142000 (2019) 43100 (2015) 77500 46000 48500 68400 105000 122000
2021-02-25 10:45 6.90 45400 142000 (2019) 43100 (2015) 77500 46000 48500 68400 105000 122000
2021-02-25 09:45 6.99 45800 142000 (2019) 43100 (2015) 77500 46000 48500 68400 105000 122000
2021-02-25 08:45 7.09 46300 142000 (2019) 43100 (2015) 77500 46000 48500 68400 105000 122000
2021-02-25 07:45 7.19 46800 142000 (2019) 43100 (2015) 77500 46000 48500 68400 105000 122000
2021-02-25 06:45 7.27 47200 142000 (2019) 43100 (2015) 77500 46000 48500 68400 105000 122000
2021-02-25 05:45 7.36 47600 142000 (2019) 43100 (2015) 77500 46000 48500 68400 105000 122000
2021-02-25 04:45 7.45 48100 142000 (2019) 43100 (2015) 77500 46000 48500 68400 105000 122000
2021-02-25 03:45 7.53 48500 142000 (2019) 43100 (2015) 77500 46000 48500 68400 105000 122000
2021-02-25 02:45 7.62 48900 142000 (2019) 43100 (2015) 77500 46000 48500 68400 105000 122000
2021-02-25 01:45 7.69 49300 142000 (2019) 43100 (2015) 77500 46000 48500 68400 105000 122000
2021-02-25 00:45 7.78 49800 142000 (2019) 43100 (2015) 77500 46000 48500 68400 105000 122000
2021-02-24 23:45 7.86 50200 98400 (2019) 41800 (2015) 67700 43900 45800 66900 88400 93100
2021-02-24 22:45 7.95 50700 98400 (2019) 41800 (2015) 67700 43900 45800 66900 88400 93100
2021-02-24 21:45 8.08 51300 98400 (2019) 41800 (2015) 67700 43900 45800 66900 88400 93100
2021-02-24 20:45 8.03 51100 98400 (2019) 41800 (2015) 67700 43900 45800 66900 88400 93100
2021-02-24 19:45 8.04 51100 98400 (2019) 41800 (2015) 67700 43900 45800 66900 88400 93100
2021-02-24 18:45 8.01 51000 98400 (2019) 41800 (2015) 67700 43900 45800 66900 88400 93100
2021-02-24 17:45 7.98 50800 98400 (2019) 41800 (2015) 67700 43900 45800 66900 88400 93100
2021-02-24 16:45 7.95 50700 98400 (2019) 41800 (2015) 67700 43900 45800 66900 88400 93100
2021-02-24 15:45 7.91 50400 98400 (2019) 41800 (2015) 67700 43900 45800 66900 88400 93100
2021-02-24 14:45 7.88 50300 98400 (2019) 41800 (2015) 67700 43900 45800 66900 88400 93100
2021-02-24 13:45 7.88 50300 98400 (2019) 41800 (2015) 67700 43900 45800 66900 88400 93100
2021-02-24 12:45 7.85 50100 98400 (2019) 41800 (2015) 67700 43900 45800 66900 88400 93100
2021-02-24 11:45 7.87 50200 98400 (2019) 41800 (2015) 67700 43900 45800 66900 88400 93100
2021-02-24 10:45 7.89 50300 98400 (2019) 41800 (2015) 67700 43900 45800 66900 88400 93100
2021-02-24 09:45 7.95 50700 98400 (2019) 41800 (2015) 67700 43900 45800 66900 88400 93100
2021-02-24 08:45 7.96 50700 98400 (2019) 41800 (2015) 67700 43900 45800 66900 88400 93100
2021-02-24 07:45 8.02 51000 98400 (2019) 41800 (2015) 67700 43900 45800 66900 88400 93100
2021-02-24 06:45 8.11 55800 98400 (2019) 41800 (2015) 67700 43900 45800 66900 88400 93100
2021-02-24 05:45 8.21 47900 98400 (2019) 41800 (2015) 67700 43900 45800 66900 88400 93100
2021-02-24 04:45 8.29 48300 98400 (2019) 41800 (2015) 67700 43900 45800 66900 88400 93100
2021-02-24 03:45 8.41 48900 98400 (2019) 41800 (2015) 67700 43900 45800 66900 88400 93100
2021-02-24 02:45 8.52 49500 98400 (2019) 41800 (2015) 67700 43900 45800 66900 88400 93100
2021-02-24 01:45 8.59 49900 98400 (2019) 41800 (2015) 67700 43900 45800 66900 88400 93100
2021-02-24 00:45 8.67 50300 98400 (2019) 41800 (2015) 67700 43900 45800 66900 88400 93100
2021-02-23 23:45 8.81 51000 85100 (2020) 40900 (2015) 62200 44300 47300 61200 77900 81300
2021-02-23 22:45 8.93 51700 85100 (2020) 40900 (2015) 62200 44300 47300 61200 77900 81300
2021-02-23 21:45 9.04 52200 85100 (2020) 40900 (2015) 62200 44300 47300 61200 77900 81300
2021-02-23 20:45 9.16 52900 85100 (2020) 40900 (2015) 62200 44300 47300 61200 77900 81300
2021-02-23 19:45 9.25 53400 85100 (2020) 40900 (2015) 62200 44300 47300 61200 77900 81300
2021-02-23 18:45 9.41 54300 85100 (2020) 40900 (2015) 62200 44300 47300 61200 77900 81300
2021-02-23 17:45 9.55 55000 85100 (2020) 40900 (2015) 62200 44300 47300 61200 77900 81300
2021-02-23 16:45 9.67 55700 85100 (2020) 40900 (2015) 62200 44300 47300 61200 77900 81300
2021-02-23 15:45 9.75 56200 85100 (2020) 40900 (2015) 62200 44300 47300 61200 77900 81300
2021-02-23 14:45 9.96 57400 85100 (2020) 40900 (2015) 62200 44300 47300 61200 77900 81300
2021-02-23 13:45 10.02 57700 85100 (2020) 40900 (2015) 62200 44300 47300 61200 77900 81300
2021-02-23 12:45 10.05 57900 85100 (2020) 40900 (2015) 62200 44300 47300 61200 77900 81300
2021-02-23 11:45 9.76 56200 85100 (2020) 40900 (2015) 62200 44300 47300 61200 77900 81300
2021-02-23 10:45 9.70 55900 85100 (2020) 40900 (2015) 62200 44300 47300 61200 77900 81300
2021-02-23 09:45 9.50 54700 85100 (2020) 40900 (2015) 62200 44300 47300 61200 77900 81300
2021-02-23 08:45 9.21 53200 85100 (2020) 40900 (2015) 62200 44300 47300 61200 77900 81300
2021-02-23 07:45 9.03 52200 85100 (2020) 40900 (2015) 62200 44300 47300 61200 77900 81300
2021-02-23 06:45 8.88 51400 85100 (2020) 40900 (2015) 62200 44300 47300 61200 77900 81300
2021-02-23 05:45 8.83 51100 85100 (2020) 40900 (2015) 62200 44300 47300 61200 77900 81300
2021-02-23 04:45 8.28 48300 85100 (2020) 40900 (2015) 62200 44300 47300 61200 77900 81300
2021-02-23 03:45 7.34 43700 85100 (2020) 40900 (2015) 62200 44300 47300 61200 77900 81300
2021-02-23 02:45 4.38 31600 85100 (2020) 40900 (2015) 62200 44300 47300 61200 77900 81300
2021-02-23 01:45 1.25 21800 85100 (2020) 40900 (2015) 62200 44300 47300 61200 77900 81300
2021-02-23 00:45 1.19 21700 85100 (2020) 40900 (2015) 62200 44300 47300 61200 77900 81300
2021-02-22 23:45 1.12 21500 86800 (2020) 42500 (2015) 62700 45600 48300 62500 75600 80800
2021-02-22 22:45 1.04 21300 86800 (2020) 42500 (2015) 62700 45600 48300 62500 75600 80800
2021-02-22 21:45 0.94 21000 86800 (2020) 42500 (2015) 62700 45600 48300 62500 75600 80800
2021-02-22 20:45 0.85 20800 86800 (2020) 42500 (2015) 62700 45600 48300 62500 75600 80800
2021-02-22 19:45 0.76 20600 86800 (2020) 42500 (2015) 62700 45600 48300 62500 75600 80800
2021-02-22 18:45 0.67 20300 86800 (2020) 42500 (2015) 62700 45600 48300 62500 75600 80800
2021-02-22 17:45 0.97 21100 86800 (2020) 42500 (2015) 62700 45600 48300 62500 75600 80800
2021-02-22 16:45 0.89 20900 86800 (2020) 42500 (2015) 62700 45600 48300 62500 75600 80800
2021-02-22 15:45 0.94 21000 86800 (2020) 42500 (2015) 62700 45600 48300 62500 75600 80800
2021-02-22 14:45 0.92 21000 86800 (2020) 42500 (2015) 62700 45600 48300 62500 75600 80800
2021-02-22 13:45 0.90 20900 86800 (2020) 42500 (2015) 62700 45600 48300 62500 75600 80800
2021-02-22 12:45 0.89 20900 86800 (2020) 42500 (2015) 62700 45600 48300 62500 75600 80800
2021-02-22 11:45 0.86 20800 86800 (2020) 42500 (2015) 62700 45600 48300 62500 75600 80800
2021-02-22 10:45 0.85 20800 86800 (2020) 42500 (2015) 62700 45600 48300 62500 75600 80800
2021-02-22 09:45 0.82 20700 86800 (2020) 42500 (2015) 62700 45600 48300 62500 75600 80800
2021-02-22 08:45 0.81 20700 86800 (2020) 42500 (2015) 62700 45600 48300 62500 75600 80800
2021-02-22 07:45 0.79 20600 86800 (2020) 42500 (2015) 62700 45600 48300 62500 75600 80800
2021-02-22 06:45 0.76 20600 86800 (2020) 42500 (2015) 62700 45600 48300 62500 75600 80800
2021-02-22 05:45 0.74 20500 86800 (2020) 42500 (2015) 62700 45600 48300 62500 75600 80800
2021-02-22 04:45 0.71 20400 86800 (2020) 42500 (2015) 62700 45600 48300 62500 75600 80800
2021-02-22 03:45 0.67 20300 86800 (2020) 42500 (2015) 62700 45600 48300 62500 75600 80800
2021-02-22 02:45 0.62 20200 86800 (2020) 42500 (2015) 62700 45600 48300 62500 75600 80800
2021-02-22 01:45 0.61 20200 86800 (2020) 42500 (2015) 62700 45600 48300 62500 75600 80800
2021-02-22 00:45 0.57 20100 86800 (2020) 42500 (2015) 62700 45600 48300 62500 75600 80800
2021-02-21 23:45 0.48 19900 86100 (2020) 43700 (2015) 61200 45300 46700 59800 74000 79600
2021-02-21 22:45 0.50 19900 86100 (2020) 43700 (2015) 61200 45300 46700 59800 74000 79600
2021-02-21 21:45 0.46 19800 86100 (2020) 43700 (2015) 61200 45300 46700 59800 74000 79600
2021-02-21 20:45 0.43 19700 86100 (2020) 43700 (2015) 61200 45300 46700 59800 74000 79600
2021-02-21 19:45 0.40 19700 86100 (2020) 43700 (2015) 61200 45300 46700 59800 74000 79600
2021-02-21 18:45 0.35 19500 86100 (2020) 43700 (2015) 61200 45300 46700 59800 74000 79600
2021-02-21 17:45 0.34 19500 86100 (2020) 43700 (2015) 61200 45300 46700 59800 74000 79600
2021-02-21 16:45 0.29 19400 86100 (2020) 43700 (2015) 61200 45300 46700 59800 74000 79600
2021-02-21 15:45 0.28 19400 86100 (2020) 43700 (2015) 61200 45300 46700 59800 74000 79600
2021-02-21 14:45 0.24 19300 86100 (2020) 43700 (2015) 61200 45300 46700 59800 74000 79600
2021-02-21 13:45 0.21 19200 86100 (2020) 43700 (2015) 61200 45300 46700 59800 74000 79600
2021-02-21 12:45 0.18 19100 86100 (2020) 43700 (2015) 61200 45300 46700 59800 74000 79600
2021-02-21 11:45 0.19 19200 86100 (2020) 43700 (2015) 61200 45300 46700 59800 74000 79600
2021-02-21 10:45 0.17 19100 86100 (2020) 43700 (2015) 61200 45300 46700 59800 74000 79600
2021-02-21 09:45 0.17 19100 86100 (2020) 43700 (2015) 61200 45300 46700 59800 74000 79600
2021-02-21 08:45 -0.04 18600 86100 (2020) 43700 (2015) 61200 45300 46700 59800 74000 79600
2021-02-21 07:45 -0.01 18700 86100 (2020) 43700 (2015) 61200 45300 46700 59800 74000 79600
2021-02-21 06:45 0.15 19100 86100 (2020) 43700 (2015) 61200 45300 46700 59800 74000 79600
2021-02-21 05:45 0.02 18800 86100 (2020) 43700 (2015) 61200 45300 46700 59800 74000 79600
2021-02-21 04:45 0.05 18800 86100 (2020) 43700 (2015) 61200 45300 46700 59800 74000 79600
2021-02-21 03:45 0.02 18800 86100 (2020) 43700 (2015) 61200 45300 46700 59800 74000 79600
2021-02-21 02:45 0.06 18800 86100 (2020) 43700 (2015) 61200 45300 46700 59800 74000 79600
2021-02-21 01:45 0.08 18900 86100 (2020) 43700 (2015) 61200 45300 46700 59800 74000 79600
2021-02-21 00:45 0.06 18800 86100 (2020) 43700 (2015) 61200 45300 46700 59800 74000 79600
2021-02-20 23:45 0.04 18800 82000 (2020) 36300 (2018) 58400 39200 41800 59600 72500 76900
2021-02-20 22:45 0.05 18800 82000 (2020) 36300 (2018) 58400 39200 41800 59600 72500 76900
2021-02-20 21:45 0.08 18900 82000 (2020) 36300 (2018) 58400 39200 41800 59600 72500 76900
2021-02-20 20:45 0.05 18800 82000 (2020) 36300 (2018) 58400 39200 41800 59600 72500 76900
2021-02-20 19:45 -0.12 18400 82000 (2020) 36300 (2018) 58400 39200 41800 59600 72500 76900
2021-02-20 18:45 0.07 18900 82000 (2020) 36300 (2018) 58400 39200 41800 59600 72500 76900
2021-02-20 17:45 0.08 18900 82000 (2020) 36300 (2018) 58400 39200 41800 59600 72500 76900
2021-02-20 16:45 0.06 18800 82000 (2020) 36300 (2018) 58400 39200 41800 59600 72500 76900
2021-02-20 15:45 18700 82000 (2020) 36300 (2018) 58400 39200 41800 59600 72500 76900
2021-02-20 14:45 0.01 18700 82000 (2020) 36300 (2018) 58400 39200 41800 59600 72500 76900
2021-02-20 13:45 -0.28 18100 82000 (2020) 36300 (2018) 58400 39200 41800 59600 72500 76900
2021-02-20 12:45 -0.09 18500 82000 (2020) 36300 (2018) 58400 39200 41800 59600 72500 76900
2021-02-20 11:45 -0.04 18600 82000 (2020) 36300 (2018) 58400 39200 41800 59600 72500 76900
2021-02-20 10:45 -0.31 18000 82000 (2020) 36300 (2018) 58400 39200 41800 59600 72500 76900
2021-02-20 09:45 -0.31 18000 82000 (2020) 36300 (2018) 58400 39200 41800 59600 72500 76900
2021-02-20 08:45 0.01 18700 82000 (2020) 36300 (2018) 58400 39200 41800 59600 72500 76900
2021-02-20 07:45 -0.11 18400 82000 (2020) 36300 (2018) 58400 39200 41800 59600 72500 76900
2021-02-20 06:45 -0.15 18400 82000 (2020) 36300 (2018) 58400 39200 41800 59600 72500 76900
2021-02-20 05:45 -0.16 18300 82000 (2020) 36300 (2018) 58400 39200 41800 59600 72500 76900
2021-02-20 04:45 -0.07 18500 82000 (2020) 36300 (2018) 58400 39200 41800 59600 72500 76900
2021-02-20 03:45 -0.04 18600 82000 (2020) 36300 (2018) 58400 39200 41800 59600 72500 76900
2021-02-20 02:45 -0.20 18200 82000 (2020) 36300 (2018) 58400 39200 41800 59600 72500 76900
2021-02-20 01:45 -0.22 18200 82000 (2020) 36300 (2018) 58400 39200 41800 59600 72500 76900
2021-02-20 00:45 -0.34 17900 82000 (2020) 36300 (2018) 58400 39200 41800 59600 72500 76900
2021-02-19 23:45 -0.28 18100 78400 (2020) 35000 (2018) 57700 38500 41600 59200 72500 75200
2021-02-19 22:45 -0.27 18100 78400 (2020) 35000 (2018) 57700 38500 41600 59200 72500 75200
2021-02-19 21:45 -0.26 18100 78400 (2020) 35000 (2018) 57700 38500 41600 59200 72500 75200
2021-02-19 20:45 -0.26 18100 78400 (2020) 35000 (2018) 57700 38500 41600 59200 72500 75200
2021-02-19 19:45 -0.28 18100 78400 (2020) 35000 (2018) 57700 38500 41600 59200 72500 75200
2021-02-19 18:45 -0.31 18000 78400 (2020) 35000 (2018) 57700 38500 41600 59200 72500 75200
2021-02-19 17:45 -0.31 18000 78400 (2020) 35000 (2018) 57700 38500 41600 59200 72500 75200
2021-02-19 16:45 -0.34 17900 78400 (2020) 35000 (2018) 57700 38500 41600 59200 72500 75200
2021-02-19 15:45 -0.35 17900 78400 (2020) 35000 (2018) 57700 38500 41600 59200 72500 75200
2021-02-19 14:45 -0.31 18000 78400 (2020) 35000 (2018) 57700 38500 41600 59200 72500 75200
2021-02-19 13:45 -0.34 17900 78400 (2020) 35000 (2018) 57700 38500 41600 59200 72500 75200
2021-02-19 12:45 -0.33 17900 78400 (2020) 35000 (2018) 57700 38500 41600 59200 72500 75200
2021-02-19 11:45 -0.23 16300 78400 (2020) 35000 (2018) 57700 38500 41600 59200 72500 75200
2021-02-19 10:45 -0.17 16500 78400 (2020) 35000 (2018) 57700 38500 41600 59200 72500 75200
2021-02-19 09:45 -0.21 16400 78400 (2020) 35000 (2018) 57700 38500 41600 59200 72500 75200
2021-02-19 08:45 -0.14 16500 78400 (2020) 35000 (2018) 57700 38500 41600 59200 72500 75200
2021-02-19 07:45 -0.33 78400 (2020) 35000 (2018) 57700 38500 41600 59200 72500 75200
2021-02-19 06:45 -0.33 78400 (2020) 35000 (2018) 57700 38500 41600 59200 72500 75200
2021-02-19 06:30 16300 78400 (2020) 35000 (2018) 57700 38500 41600 59200 72500 75200
2021-02-19 05:45 -0.34 78400 (2020) 35000 (2018) 57700 38500 41600 59200 72500 75200
2021-02-19 05:30 16300 78400 (2020) 35000 (2018) 57700 38500 41600 59200 72500 75200
2021-02-19 04:45 -0.05 16700 78400 (2020) 35000 (2018) 57700 38500 41600 59200 72500 75200
2021-02-19 03:45 -0.17 16500 78400 (2020) 35000 (2018) 57700 38500 41600 59200 72500 75200
2021-02-19 02:45 -0.16 16500 78400 (2020) 35000 (2018) 57700 38500 41600 59200 72500 75200
2021-02-19 01:45 -0.23 16300 78400 (2020) 35000 (2018) 57700 38500 41600 59200 72500 75200
2021-02-19 00:45 -0.16 16500 78400 (2020) 35000 (2018) 57700 38500 41600 59200 72500 75200
2021-02-18 23:45 -0.13 16500 78300 (2020) 34600 (2018) 58000 38700 42300 58000 75300 76700
2021-02-18 22:45 -0.17 16500 78300 (2020) 34600 (2018) 58000 38700 42300 58000 75300 76700
2021-02-18 21:45 -0.17 16500 78300 (2020) 34600 (2018) 58000 38700 42300 58000 75300 76700
2021-02-18 20:45 -0.12 16600 78300 (2020) 34600 (2018) 58000 38700 42300 58000 75300 76700
2021-02-18 19:45 -0.18 16400 78300 (2020) 34600 (2018) 58000 38700 42300 58000 75300 76700
2021-02-18 18:45 -0.17 16500 78300 (2020) 34600 (2018) 58000 38700 42300 58000 75300 76700
2021-02-18 17:45 -0.19 16400 78300 (2020) 34600 (2018) 58000 38700 42300 58000 75300 76700
2021-02-18 16:45 -0.19 16400 78300 (2020) 34600 (2018) 58000 38700 42300 58000 75300 76700
2021-02-18 15:45 -0.23 16300 78300 (2020) 34600 (2018) 58000 38700 42300 58000 75300 76700
2021-02-18 14:45 -0.20 22200 78300 (2020) 34600 (2018) 58000 38700 42300 58000 75300 76700
2021-02-18 13:45 -0.29 21900 78300 (2020) 34600 (2018) 58000 38700 42300 58000 75300 76700
2021-02-18 12:45 -0.29 21900 78300 (2020) 34600 (2018) 58000 38700 42300 58000 75300 76700
2021-02-18 11:45 -0.29 21900 78300 (2020) 34600 (2018) 58000 38700 42300 58000 75300 76700
2021-02-18 10:45 -0.20 22200 78300 (2020) 34600 (2018) 58000 38700 42300 58000 75300 76700
2021-02-18 09:45 -0.16 22300 78300 (2020) 34600 (2018) 58000 38700 42300 58000 75300 76700
2021-02-18 08:45 -0.27 22000 78300 (2020) 34600 (2018) 58000 38700 42300 58000 75300 76700
2021-02-17 12:45 81200 (2019) 35200 (2018) 58600 40000 44100 54700 79400 80200
2021-02-17 11:30 0.11 23000 81200 (2019) 35200 (2018) 58600 40000 44100 54700 79400 80200
2021-02-17 10:45 0.22 23300 81200 (2019) 35200 (2018) 58600 40000 44100 54700 79400 80200
2021-02-17 09:45 0.30 23600 81200 (2019) 35200 (2018) 58600 40000 44100 54700 79400 80200
2021-02-17 08:45 0.40 23800 81200 (2019) 35200 (2018) 58600 40000 44100 54700 79400 80200
2021-02-17 07:45 0.46 24000 81200 (2019) 35200 (2018) 58600 40000 44100 54700 79400 80200
2021-02-17 06:45 0.50 24100 81200 (2019) 35200 (2018) 58600 40000 44100 54700 79400 80200
2021-02-17 05:45 0.46 24000 81200 (2019) 35200 (2018) 58600 40000 44100 54700 79400 80200
2021-02-17 04:45 0.47 24000 81200 (2019) 35200 (2018) 58600 40000 44100 54700 79400 80200
2021-02-17 03:45 0.66 24600 81200 (2019) 35200 (2018) 58600 40000 44100 54700 79400 80200
2021-02-17 02:45 0.94 25400 81200 (2019) 35200 (2018) 58600 40000 44100 54700 79400 80200
2021-02-17 01:45 1.28 26500 81200 (2019) 35200 (2018) 58600 40000 44100 54700 79400 80200
2021-02-17 00:45 1.74 27900 81200 (2019) 35200 (2018) 58600 40000 44100 54700 79400 80200
2021-02-16 23:45 2.31 29800 83600 (2019) 35700 (2018) 59600 38900 41600 56800 81900 82700
2021-02-16 22:45 3.61 34600 83600 (2019) 35700 (2018) 59600 38900 41600 56800 81900 82700
2021-02-16 21:45 3.88 35600 83600 (2019) 35700 (2018) 59600 38900 41600 56800 81900 82700
2021-02-16 20:45 3.86 35500 83600 (2019) 35700 (2018) 59600 38900 41600 56800 81900 82700
2021-02-16 19:45 3.92 35800 83600 (2019) 35700 (2018) 59600 38900 41600 56800 81900 82700
2021-02-16 18:45 3.97 36000 83600 (2019) 35700 (2018) 59600 38900 41600 56800 81900 82700
2021-02-16 17:45 4.02 36200 83600 (2019) 35700 (2018) 59600 38900 41600 56800 81900 82700
2021-02-16 16:45 4.07 36400 83600 (2019) 35700 (2018) 59600 38900 41600 56800 81900 82700
2021-02-16 15:45 4.00 36100 83600 (2019) 35700 (2018) 59600 38900 41600 56800 81900 82700
2021-02-16 14:45 3.73 35000 83600 (2019) 35700 (2018) 59600 38900 41600 56800 81900 82700
2021-02-16 13:45 3.59 34500 83600 (2019) 35700 (2018) 59600 38900 41600 56800 81900 82700
2021-02-16 12:45 3.70 34900 83600 (2019) 35700 (2018) 59600 38900 41600 56800 81900 82700
2021-02-16 11:45 3.82 35400 83600 (2019) 35700 (2018) 59600 38900 41600 56800 81900 82700
2021-02-16 10:45 3.83 35400 83600 (2019) 35700 (2018) 59600 38900 41600 56800 81900 82700
2021-02-16 09:45 3.84 35500 83600 (2019) 35700 (2018) 59600 38900 41600 56800 81900 82700
2021-02-16 08:45 3.49 34100 83600 (2019) 35700 (2018) 59600 38900 41600 56800 81900 82700
2021-02-16 05:45 3.27 33300 83600 (2019) 35700 (2018) 59600 38900 41600 56800 81900 82700
2021-02-16 04:45 3.81 35400 83600 (2019) 35700 (2018) 59600 38900 41600 56800 81900 82700
2021-02-16 03:45 4.03 36200 83600 (2019) 35700 (2018) 59600 38900 41600 56800 81900 82700
2021-02-16 02:45 4.14 36700 83600 (2019) 35700 (2018) 59600 38900 41600 56800 81900 82700
2021-02-16 01:45 3.34 33500 83600 (2019) 35700 (2018) 59600 38900 41600 56800 81900 82700
2021-02-16 00:45 3.01 32300 83600 (2019) 35700 (2018) 59600 38900 41600 56800 81900 82700
2021-02-15 23:45 3.48 34100 85700 (2020) 36000 (2018) 61200 39100 41800 59800 82900 84200
2021-02-15 22:45 4.26 37200 85700 (2020) 36000 (2018) 61200 39100 41800 59800 82900 84200
2021-02-15 21:45 3.61 34600 85700 (2020) 36000 (2018) 61200 39100 41800 59800 82900 84200
2021-02-15 20:45 3.41 33800 85700 (2020) 36000 (2018) 61200 39100 41800 59800 82900 84200
2021-02-15 19:45 3.52 34200 85700 (2020) 36000 (2018) 61200 39100 41800 59800 82900 84200
2021-02-15 18:45 3.66 34800 85700 (2020) 36000 (2018) 61200 39100 41800 59800 82900 84200
2021-02-15 17:45 3.83 35400 85700 (2020) 36000 (2018) 61200 39100 41800 59800 82900 84200
2021-02-15 16:45 3.84 35500 85700 (2020) 36000 (2018) 61200 39100 41800 59800 82900 84200
2021-02-15 15:45 3.78 35200 85700 (2020) 36000 (2018) 61200 39100 41800 59800 82900 84200
2021-02-15 14:45 3.75 35100 85700 (2020) 36000 (2018) 61200 39100 41800 59800 82900 84200
2021-02-15 13:45 3.62 34600 85700 (2020) 36000 (2018) 61200 39100 41800 59800 82900 84200
2021-02-15 12:45 3.41 33800 85700 (2020) 36000 (2018) 61200 39100 41800 59800 82900 84200
2021-02-15 11:45 3.48 34100 85700 (2020) 36000 (2018) 61200 39100 41800 59800 82900 84200
2021-02-15 10:45 3.63 34700 85700 (2020) 36000 (2018) 61200 39100 41800 59800 82900 84200
2021-02-15 09:45 3.63 34700 85700 (2020) 36000 (2018) 61200 39100 41800 59800 82900 84200
2021-02-15 08:45 3.35 33600 85700 (2020) 36000 (2018) 61200 39100 41800 59800 82900 84200
2021-02-15 07:45 3.48 34100 85700 (2020) 36000 (2018) 61200 39100 41800 59800 82900 84200
2021-02-15 06:45 3.70 34900 85700 (2020) 36000 (2018) 61200 39100 41800 59800 82900 84200
2021-02-15 05:45 3.71 35000 85700 (2020) 36000 (2018) 61200 39100 41800 59800 82900 84200
2021-02-15 04:45 3.58 34500 85700 (2020) 36000 (2018) 61200 39100 41800 59800 82900 84200
2021-02-15 03:45 3.62 34600 85700 (2020) 36000 (2018) 61200 39100 41800 59800 82900 84200
2021-02-15 02:45 3.73 35000 85700 (2020) 36000 (2018) 61200 39100 41800 59800 82900 84200
2021-02-15 01:45 3.57 34400 85700 (2020) 36000 (2018) 61200 39100 41800 59800 82900 84200
2021-02-15 00:45 3.69 34900 85700 (2020) 36000 (2018) 61200 39100 41800 59800 82900 84200
2021-02-14 23:45 3.97 36000 88200 (2020) 36100 (2018) 62500 39500 42500 60700 85500 86800
2021-02-14 22:45 3.66 34800 88200 (2020) 36100 (2018) 62500 39500 42500 60700 85500 86800
2021-02-14 21:45 3.61 34600 88200 (2020) 36100 (2018) 62500 39500 42500 60700 85500 86800
2021-02-14 20:45 3.80 35300 88200 (2020) 36100 (2018) 62500 39500 42500 60700 85500 86800
2021-02-14 19:45 3.74 35100 88200 (2020) 36100 (2018) 62500 39500 42500 60700 85500 86800
2021-02-14 18:45 3.68 34800 88200 (2020) 36100 (2018) 62500 39500 42500 60700 85500 86800
2021-02-14 17:45 3.69 34900 88200 (2020) 36100 (2018) 62500 39500 42500 60700 85500 86800
2021-02-14 16:45 3.86 35500 88200 (2020) 36100 (2018) 62500 39500 42500 60700 85500 86800
2021-02-14 15:45 3.93 35800 88200 (2020) 36100 (2018) 62500 39500 42500 60700 85500 86800
2021-02-14 14:45 3.72 35000 88200 (2020) 36100 (2018) 62500 39500 42500 60700 85500 86800
2021-02-14 13:45 3.53 34300 88200 (2020) 36100 (2018) 62500 39500 42500 60700 85500 86800
2021-02-14 12:45 3.59 34500 88200 (2020) 36100 (2018) 62500 39500 42500 60700 85500 86800
2021-02-14 11:45 3.65 34700 88200 (2020) 36100 (2018) 62500 39500 42500 60700 85500 86800
2021-02-14 10:45 3.74 35100 88200 (2020) 36100 (2018) 62500 39500 42500 60700 85500 86800
2021-02-14 09:45 3.59 34500 88200 (2020) 36100 (2018) 62500 39500 42500 60700 85500 86800
2021-02-14 08:45 3.59 34500 88200 (2020) 36100 (2018) 62500 39500 42500 60700 85500 86800
2021-02-14 07:45 3.83 35400 88200 (2020) 36100 (2018) 62500 39500 42500 60700 85500 86800
2021-02-14 06:45 3.84 35500 88200 (2020) 36100 (2018) 62500 39500 42500 60700 85500 86800
2021-02-14 05:45 3.86 35500 88200 (2020) 36100 (2018) 62500 39500 42500 60700 85500 86800
2021-02-14 04:45 3.75 35100 88200 (2020) 36100 (2018) 62500 39500 42500 60700 85500 86800
2021-02-14 03:45 3.78 35200 88200 (2020) 36100 (2018) 62500 39500 42500 60700 85500 86800
2021-02-14 02:45 3.71 35000 88200 (2020) 36100 (2018) 62500 39500 42500 60700 85500 86800
2021-02-14 01:45 3.76 35200 88200 (2020) 36100 (2018) 62500 39500 42500 60700 85500 86800
2021-02-14 00:45 3.76 35200 88200 (2020) 36100 (2018) 62500 39500 42500 60700 85500 86800
2021-02-13 23:45 3.77 35200 88400 (2020) 36300 (2018) 62200 39800 42900 59200 85700 87000
2021-02-13 22:45 3.78 35200 88400 (2020) 36300 (2018) 62200 39800 42900 59200 85700 87000
2021-02-13 21:45 3.82 35400 88400 (2020) 36300 (2018) 62200 39800 42900 59200 85700 87000
2021-02-13 20:45 3.85 35500 88400 (2020) 36300 (2018) 62200 39800 42900 59200 85700 87000
2021-02-13 19:45 3.87 35600 88400 (2020) 36300 (2018) 62200 39800 42900 59200 85700 87000
2021-02-13 18:45 3.89 35700 88400 (2020) 36300 (2018) 62200 39800 42900 59200 85700 87000
2021-02-13 17:45 3.91 35700 88400 (2020) 36300 (2018) 62200 39800 42900 59200 85700 87000
2021-02-13 16:45 3.88 35600 88400 (2020) 36300 (2018) 62200 39800 42900 59200 85700 87000
2021-02-13 15:45 3.89 35700 88400 (2020) 36300 (2018) 62200 39800 42900 59200 85700 87000
2021-02-13 14:45 3.90 35700 88400 (2020) 36300 (2018) 62200 39800 42900 59200 85700 87000
2021-02-13 13:45 3.90 35700 88400 (2020) 36300 (2018) 62200 39800 42900 59200 85700 87000
2021-02-13 12:45 3.87 35600 88400 (2020) 36300 (2018) 62200 39800 42900 59200 85700 87000
2021-02-13 11:45 3.89 35700 88400 (2020) 36300 (2018) 62200 39800 42900 59200 85700 87000
2021-02-13 10:45 3.89 35700 88400 (2020) 36300 (2018) 62200 39800 42900 59200 85700 87000
2021-02-13 09:45 3.91 35700 88400 (2020) 36300 (2018) 62200 39800 42900 59200 85700 87000
2021-02-13 08:45 3.92 35800 88400 (2020) 36300 (2018) 62200 39800 42900 59200 85700 87000
2021-02-13 07:45 3.91 35700 88400 (2020) 36300 (2018) 62200 39800 42900 59200 85700 87000
2021-02-13 06:45 3.92 35800 88400 (2020) 36300 (2018) 62200 39800 42900 59200 85700 87000
2021-02-13 05:45 3.96 35900 88400 (2020) 36300 (2018) 62200 39800 42900 59200 85700 87000
2021-02-13 04:45 3.94 35900 88400 (2020) 36300 (2018) 62200 39800 42900 59200 85700 87000
2021-02-13 03:45 3.96 35900 88400 (2020) 36300 (2018) 62200 39800 42900 59200 85700 87000
2021-02-13 02:45 3.95 35900 88400 (2020) 36300 (2018) 62200 39800 42900 59200 85700 87000
2021-02-13 01:45 3.95 35900 88400 (2020) 36300 (2018) 62200 39800 42900 59200 85700 87000
2021-02-13 00:45 3.97 36000 88400 (2020) 36300 (2018) 62200 39800 42900 59200 85700 87000
2021-02-12 23:45 3.98 36000 90300 (2020) 36700 (2018) 60800 40300 43400 60000 76600 83000
2021-02-12 22:45 3.98 36000 90300 (2020) 36700 (2018) 60800 40300 43400 60000 76600 83000
2021-02-12 21:45 4.00 36100 90300 (2020) 36700 (2018) 60800 40300 43400 60000 76600 83000
2021-02-12 20:45 4.02 36200 90300 (2020) 36700 (2018) 60800 40300 43400 60000 76600 83000
2021-02-12 19:45 4.03 36200 90300 (2020) 36700 (2018) 60800 40300 43400 60000 76600 83000
2021-02-12 18:45 4.04 36300 90300 (2020) 36700 (2018) 60800 40300 43400 60000 76600 83000
2021-02-12 17:45 4.07 36400 90300 (2020) 36700 (2018) 60800 40300 43400 60000 76600 83000
2021-02-12 16:45 4.07 36400 90300 (2020) 36700 (2018) 60800 40300 43400 60000 76600 83000
2021-02-12 15:45 4.09 36500 90300 (2020) 36700 (2018) 60800 40300 43400 60000 76600 83000
2021-02-12 14:45 4.11 36500 90300 (2020) 36700 (2018) 60800 40300 43400 60000 76600 83000
2021-02-12 13:45 4.11 36500 90300 (2020) 36700 (2018) 60800 40300 43400 60000 76600 83000
2021-02-12 12:45 4.15 36700 90300 (2020) 36700 (2018) 60800 40300 43400 60000 76600 83000
2021-02-12 11:45 4.13 36600 90300 (2020) 36700 (2018) 60800 40300 43400 60000 76600 83000
2021-02-12 10:45 4.14 36700 90300 (2020) 36700 (2018) 60800 40300 43400 60000 76600 83000
2021-02-12 09:45 4.16 36700 90300 (2020) 36700 (2018) 60800 40300 43400 60000 76600 83000
2021-02-12 08:45 4.18 36800 90300 (2020) 36700 (2018) 60800 40300 43400 60000 76600 83000
2021-02-12 07:45 4.19 36900 90300 (2020) 36700 (2018) 60800 40300 43400 60000 76600 83000
2021-02-12 06:45 4.20 36900 90300 (2020) 36700 (2018) 60800 40300 43400 60000 76600 83000
2021-02-12 05:45 4.23 37000 90300 (2020) 36700 (2018) 60800 40300 43400 60000 76600 83000
2021-02-12 04:45 4.25 37100 90300 (2020) 36700 (2018) 60800 40300 43400 60000 76600 83000
2021-02-12 03:45 4.27 37200 90300 (2020) 36700 (2018) 60800 40300 43400 60000 76600 83000
2021-02-12 02:45 4.27 37200 90300 (2020) 36700 (2018) 60800 40300 43400 60000 76600 83000
2021-02-12 01:45 4.27 37200 90300 (2020) 36700 (2018) 60800 40300 43400 60000 76600 83000
2021-02-12 00:45 4.28 37200 90300 (2020) 36700 (2018) 60800 40300 43400 60000 76600 83000
2021-02-11 23:45 4.29 37300 95900 (2020) 36600 (2018) 61400 40300 43600 60600 75700 85100
2021-02-11 22:45 4.32 37400 95900 (2020) 36600 (2018) 61400 40300 43600 60600 75700 85100
2021-02-11 21:45 4.34 37500 95900 (2020) 36600 (2018) 61400 40300 43600 60600 75700 85100
2021-02-11 20:45 4.35 37500 95900 (2020) 36600 (2018) 61400 40300 43600 60600 75700 85100
2021-02-11 19:45 4.37 37600 95900 (2020) 36600 (2018) 61400 40300 43600 60600 75700 85100
2021-02-11 18:45 4.39 37700 95900 (2020) 36600 (2018) 61400 40300 43600 60600 75700 85100
2021-02-11 17:45 4.41 37800 95900 (2020) 36600 (2018) 61400 40300 43600 60600 75700 85100
2021-02-11 16:45 4.41 37800 95900 (2020) 36600 (2018) 61400 40300 43600 60600 75700 85100
2021-02-11 15:45 4.46 38000 95900 (2020) 36600 (2018) 61400 40300 43600 60600 75700 85100
2021-02-11 14:45 4.46 38000 95900 (2020) 36600 (2018) 61400 40300 43600 60600 75700 85100
2021-02-11 13:45 4.47 38000 95900 (2020) 36600 (2018) 61400 40300 43600 60600 75700 85100
2021-02-11 12:45 4.49 38100 95900 (2020) 36600 (2018) 61400 40300 43600 60600 75700 85100
2021-02-11 11:45 4.50 38100 95900 (2020) 36600 (2018) 61400 40300 43600 60600 75700 85100
2021-02-11 10:45 4.52 38200 95900 (2020) 36600 (2018) 61400 40300 43600 60600 75700 85100
2021-02-11 09:45 4.53 38300 95900 (2020) 36600 (2018) 61400 40300 43600 60600 75700 85100
2021-02-11 08:45 4.54 38300 95900 (2020) 36600 (2018) 61400 40300 43600 60600 75700 85100
2021-02-11 07:45 4.55 38400 95900 (2020) 36600 (2018) 61400 40300 43600 60600 75700 85100
2021-02-11 06:45 4.57 38400 95900 (2020) 36600 (2018) 61400 40300 43600 60600 75700 85100
2021-02-11 05:45 4.57 38400 95900 (2020) 36600 (2018) 61400 40300 43600 60600 75700 85100
2021-02-11 04:45 4.59 38500 95900 (2020) 36600 (2018) 61400 40300 43600 60600 75700 85100
2021-02-11 03:45 4.59 38500 95900 (2020) 36600 (2018) 61400 40300 43600 60600 75700 85100
2021-02-11 02:45 4.61 38600 95900 (2020) 36600 (2018) 61400 40300 43600 60600 75700 85100
2021-02-11 01:45 4.60 38600 95900 (2020) 36600 (2018) 61400 40300 43600 60600 75700 85100
2021-02-11 00:45 4.63 38700 95900 (2020) 36600 (2018) 61400 40300 43600 60600 75700 85100
2021-02-10 23:45 4.63 38700 100000 (2020) 36400 (2018) 62200 39700 42500 57400 83200 91000
2021-02-10 22:45 4.64 38700 100000 (2020) 36400 (2018) 62200 39700 42500 57400 83200 91000
2021-02-10 21:45 4.63 38700 100000 (2020) 36400 (2018) 62200 39700 42500 57400 83200 91000
2021-02-10 20:45 4.64 38700 100000 (2020) 36400 (2018) 62200 39700 42500 57400 83200 91000
2021-02-10 19:45 4.65 38800 100000 (2020) 36400 (2018) 62200 39700 42500 57400 83200 91000
2021-02-10 18:45 4.66 38800 100000 (2020) 36400 (2018) 62200 39700 42500 57400 83200 91000
2021-02-10 17:45 4.66 38800 100000 (2020) 36400 (2018) 62200 39700 42500 57400 83200 91000
2021-02-10 16:45 4.68 38900 100000 (2020) 36400 (2018) 62200 39700 42500 57400 83200 91000
2021-02-10 15:45 4.69 38900 100000 (2020) 36400 (2018) 62200 39700 42500 57400 83200 91000
2021-02-10 14:45 4.69 38900 100000 (2020) 36400 (2018) 62200 39700 42500 57400 83200 91000
2021-02-10 13:45 4.71 39000 100000 (2020) 36400 (2018) 62200 39700 42500 57400 83200 91000
2021-02-10 12:45 4.72 39100 100000 (2020) 36400 (2018) 62200 39700 42500 57400 83200 91000
2021-02-10 11:45 4.72 39100 100000 (2020) 36400 (2018) 62200 39700 42500 57400 83200 91000
2021-02-10 10:45 4.73 39100 100000 (2020) 36400 (2018) 62200 39700 42500 57400 83200 91000
2021-02-10 09:45 4.73 39100 100000 (2020) 36400 (2018) 62200 39700 42500 57400 83200 91000
2021-02-10 08:45 4.74 39200 100000 (2020) 36400 (2018) 62200 39700 42500 57400 83200 91000
2021-02-10 07:45 4.75 39200 100000 (2020) 36400 (2018) 62200 39700 42500 57400 83200 91000
2021-02-10 06:45 4.75 39200 100000 (2020) 36400 (2018) 62200 39700 42500 57400 83200 91000
2021-02-10 05:45 4.76 39200 100000 (2020) 36400 (2018) 62200 39700 42500 57400 83200 91000
2021-02-10 04:45 4.76 39200 100000 (2020) 36400 (2018) 62200 39700 42500 57400 83200 91000
2021-02-10 03:45 4.77 39300 100000 (2020) 36400 (2018) 62200 39700 42500 57400 83200 91000
2021-02-10 02:45 4.79 39400 100000 (2020) 36400 (2018) 62200 39700 42500 57400 83200 91000
2021-02-10 01:45 4.75 39200 100000 (2020) 36400 (2018) 62200 39700 42500 57400 83200 91000
2021-02-10 00:45 4.79 39400 100000 (2020) 36400 (2018) 62200 39700 42500 57400 83200 91000
2021-02-09 23:45 4.80 39400 101000 (2020) 37000 (2018) 64900 38300 39500 58300 96400 98500
2021-02-09 22:45 4.79 39400 101000 (2020) 37000 (2018) 64900 38300 39500 58300 96400 98500
2021-02-09 21:45 4.81 39500 101000 (2020) 37000 (2018) 64900 38300 39500 58300 96400 98500
2021-02-09 20:45 4.81 39500 101000 (2020) 37000 (2018) 64900 38300 39500 58300 96400 98500
2021-02-09 19:45 4.83 39500 101000 (2020) 37000 (2018) 64900 38300 39500 58300 96400 98500
2021-02-09 18:45 4.85 39600 101000 (2020) 37000 (2018) 64900 38300 39500 58300 96400 98500
2021-02-09 17:45 4.86 39700 101000 (2020) 37000 (2018) 64900 38300 39500 58300 96400 98500
2021-02-09 16:45 4.90 39800 101000 (2020) 37000 (2018) 64900 38300 39500 58300 96400 98500
2021-02-09 15:45 4.93 40000 101000 (2020) 37000 (2018) 64900 38300 39500 58300 96400 98500
2021-02-09 14:45 4.93 40000 101000 (2020) 37000 (2018) 64900 38300 39500 58300 96400 98500
2021-02-09 13:45 4.96 40100 101000 (2020) 37000 (2018) 64900 38300 39500 58300 96400 98500
2021-02-09 12:45 4.99 40200 101000 (2020) 37000 (2018) 64900 38300 39500 58300 96400 98500
2021-02-09 11:45 5.01 40300 101000 (2020) 37000 (2018) 64900 38300 39500 58300 96400 98500
2021-02-09 10:45 5.01 40300 101000 (2020) 37000 (2018) 64900 38300 39500 58300 96400 98500
2021-02-09 09:45 5.05 40500 101000 (2020) 37000 (2018) 64900 38300 39500 58300 96400 98500
2021-02-09 08:45 5.09 40700 101000 (2020) 37000 (2018) 64900 38300 39500 58300 96400 98500
2021-02-09 07:45 5.09 40700 101000 (2020) 37000 (2018) 64900 38300 39500 58300 96400 98500
2021-02-09 06:45 5.10 40700 101000 (2020) 37000 (2018) 64900 38300 39500 58300 96400 98500
2021-02-09 05:45 5.14 40900 101000 (2020) 37000 (2018) 64900 38300 39500 58300 96400 98500
2021-02-09 04:45 5.17 41000 101000 (2020) 37000 (2018) 64900 38300 39500 58300 96400 98500
2021-02-09 03:45 5.21 41200 101000 (2020) 37000 (2018) 64900 38300 39500 58300 96400 98500
2021-02-09 02:45 5.24 41300 101000 (2020) 37000 (2018) 64900 38300 39500 58300 96400 98500
2021-02-09 01:45 5.26 41400 101000 (2020) 37000 (2018) 64900 38300 39500 58300 96400 98500
2021-02-09 00:45 5.30 41600 101000 (2020) 37000 (2018) 64900 38300 39500 58300 96400 98500
2021-02-08 23:45 5.32 41700 122000 (2019) 38000 (2018) 71600 39400 40600 61200 110000 116000
2021-02-08 22:45 5.35 41800 122000 (2019) 38000 (2018) 71600 39400 40600 61200 110000 116000
2021-02-08 21:45 5.39 42000 122000 (2019) 38000 (2018) 71600 39400 40600 61200 110000 116000
2021-02-08 20:45 5.42 42100 122000 (2019) 38000 (2018) 71600 39400 40600 61200 110000 116000
2021-02-08 19:45 5.44 42200 122000 (2019) 38000 (2018) 71600 39400 40600 61200 110000 116000
2021-02-08 18:45 5.47 42400 122000 (2019) 38000 (2018) 71600 39400 40600 61200 110000 116000
2021-02-08 17:45 5.52 42600 122000 (2019) 38000 (2018) 71600 39400 40600 61200 110000 116000
2021-02-08 16:45 5.56 42800 122000 (2019) 38000 (2018) 71600 39400 40600 61200 110000 116000
2021-02-08 15:45 5.59 42900 122000 (2019) 38000 (2018) 71600 39400 40600 61200 110000 116000
2021-02-08 14:45 5.62 43000 122000 (2019) 38000 (2018) 71600 39400 40600 61200 110000 116000
2021-02-08 13:45 5.65 43200 122000 (2019) 38000 (2018) 71600 39400 40600 61200 110000 116000
2021-02-08 12:45 5.66 43200 122000 (2019) 38000 (2018) 71600 39400 40600 61200 110000 116000
2021-02-08 11:45 5.74 43600 122000 (2019) 38000 (2018) 71600 39400 40600 61200 110000 116000
2021-02-08 10:45 5.74 43600 122000 (2019) 38000 (2018) 71600 39400 40600 61200 110000 116000
2021-02-08 09:45 5.78 43800 122000 (2019) 38000 (2018) 71600 39400 40600 61200 110000 116000
2021-02-08 08:45 5.79 43800 122000 (2019) 38000 (2018) 71600 39400 40600 61200 110000 116000
2021-02-08 07:45 5.83 44000 122000 (2019) 38000 (2018) 71600 39400 40600 61200 110000 116000
2021-02-08 06:45 5.86 44200 122000 (2019) 38000 (2018) 71600 39400 40600 61200 110000 116000
2021-02-08 05:45 5.88 44300 122000 (2019) 38000 (2018) 71600 39400 40600 61200 110000 116000
2021-02-08 04:45 5.90 44300 122000 (2019) 38000 (2018) 71600 39400 40600 61200 110000 116000
2021-02-08 03:45 5.92 44400 122000 (2019) 38000 (2018) 71600 39400 40600 61200 110000 116000
2021-02-08 02:45 5.94 44500 122000 (2019) 38000 (2018) 71600 39400 40600 61200 110000 116000
2021-02-08 01:45 5.95 44600 122000 (2019) 38000 (2018) 71600 39400 40600 61200 110000 116000
2021-02-08 00:45 5.96 44600 122000 (2019) 38000 (2018) 71600 39400 40600 61200 110000 116000
2021-02-07 23:45 5.97 44700 134000 (2019) 38100 (2018) 76800 40700 43000 65600 118000 126000
2021-02-07 22:45 5.97 44700 134000 (2019) 38100 (2018) 76800 40700 43000 65600 118000 126000
2021-02-07 21:45 5.99 44800 134000 (2019) 38100 (2018) 76800 40700 43000 65600 118000 126000
2021-02-07 20:45 6.02 44900 134000 (2019) 38100 (2018) 76800 40700 43000 65600 118000 126000
2021-02-07 19:45 6.00 44800 134000 (2019) 38100 (2018) 76800 40700 43000 65600 118000 126000
2021-02-07 18:45 6.01 44900 134000 (2019) 38100 (2018) 76800 40700 43000 65600 118000 126000
2021-02-07 17:45 6.02 44900 134000 (2019) 38100 (2018) 76800 40700 43000 65600 118000 126000
2021-02-07 16:45 6.00 44800 134000 (2019) 38100 (2018) 76800 40700 43000 65600 118000 126000
2021-02-07 15:45 6.03 45000 134000 (2019) 38100 (2018) 76800 40700 43000 65600 118000 126000
2021-02-07 14:45 6.03 45000 134000 (2019) 38100 (2018) 76800 40700 43000 65600 118000 126000
2021-02-07 13:45 6.03 45000 134000 (2019) 38100 (2018) 76800 40700 43000 65600 118000 126000
2021-02-07 12:45 6.02 44900 134000 (2019) 38100 (2018) 76800 40700 43000 65600 118000 126000
2021-02-07 10:45 6.03 45000 134000 (2019) 38100 (2018) 76800 40700 43000 65600 118000 126000
2021-02-07 09:45 6.02 44900 134000 (2019) 38100 (2018) 76800 40700 43000 65600 118000 126000
2021-02-07 08:45 6.02 44900 134000 (2019) 38100 (2018) 76800 40700 43000 65600 118000 126000
2021-02-07 07:45 6.03 45000 134000 (2019) 38100 (2018) 76800 40700 43000 65600 118000 126000
2021-02-07 06:45 6.02 44900 134000 (2019) 38100 (2018) 76800 40700 43000 65600 118000 126000
2021-02-07 05:45 6.01 44900 134000 (2019) 38100 (2018) 76800 40700 43000 65600 118000 126000
2021-02-07 04:45 6.00 44800 134000 (2019) 38100 (2018) 76800 40700 43000 65600 118000 126000
2021-02-07 03:45 6.00 44800 134000 (2019) 38100 (2018) 76800 40700 43000 65600 118000 126000
2021-02-07 02:45 6.01 44900 134000 (2019) 38100 (2018) 76800 40700 43000 65600 118000 126000
2021-02-07 01:45 5.99 44800 134000 (2019) 38100 (2018) 76800 40700 43000 65600 118000 126000
2021-02-07 00:45 5.99 44800 134000 (2019) 38100 (2018) 76800 40700 43000 65600 118000 126000
2021-02-06 23:45 5.99 44800 121000 (2020) 37900 (2018) 77200 42100 45700 70100 117000 119000
2021-02-06 22:45 6.00 44800 121000 (2020) 37900 (2018) 77200 42100 45700 70100 117000 119000
2021-02-06 21:45 6.00 44800 121000 (2020) 37900 (2018) 77200 42100 45700 70100 117000 119000
2021-02-06 20:45 6.02 44900 121000 (2020) 37900 (2018) 77200 42100 45700 70100 117000 119000
2021-02-06 19:45 5.98 44700 121000 (2020) 37900 (2018) 77200 42100 45700 70100 117000 119000
2021-02-06 18:45 6.00 44800 121000 (2020) 37900 (2018) 77200 42100 45700 70100 117000 119000
2021-02-06 17:45 5.99 44800 121000 (2020) 37900 (2018) 77200 42100 45700 70100 117000 119000
2021-02-06 16:45 6.00 44800 121000 (2020) 37900 (2018) 77200 42100 45700 70100 117000 119000
2021-02-06 15:45 6.02 44900 121000 (2020) 37900 (2018) 77200 42100 45700 70100 117000 119000
2021-02-06 14:45 6.01 44900 121000 (2020) 37900 (2018) 77200 42100 45700 70100 117000 119000
2021-02-06 13:45 6.03 45000 121000 (2020) 37900 (2018) 77200 42100 45700 70100 117000 119000
2021-02-06 12:45 6.04 45000 121000 (2020) 37900 (2018) 77200 42100 45700 70100 117000 119000
2021-02-06 11:45 6.05 45100 121000 (2020) 37900 (2018) 77200 42100 45700 70100 117000 119000
2021-02-06 10:45 6.05 45100 121000 (2020) 37900 (2018) 77200 42100 45700 70100 117000 119000
2021-02-06 09:45 6.07 45200 121000 (2020) 37900 (2018) 77200 42100 45700 70100 117000 119000
2021-02-06 08:45 6.08 45200 121000 (2020) 37900 (2018) 77200 42100 45700 70100 117000 119000
2021-02-06 07:45 6.09 45300 121000 (2020) 37900 (2018) 77200 42100 45700 70100 117000 119000
2021-02-06 06:45 6.13 45400 121000 (2020) 37900 (2018) 77200 42100 45700 70100 117000 119000
2021-02-06 05:45 6.13 45400 121000 (2020) 37900 (2018) 77200 42100 45700 70100 117000 119000
2021-02-06 04:45 6.14 45500 121000 (2020) 37900 (2018) 77200 42100 45700 70100 117000 119000
2021-02-06 03:45 6.16 45600 121000 (2020) 37900 (2018) 77200 42100 45700 70100 117000 119000
2021-02-06 02:45 6.17 45600 121000 (2020) 37900 (2018) 77200 42100 45700 70100 117000 119000
2021-02-06 01:45 6.20 45800 121000 (2020) 37900 (2018) 77200 42100 45700 70100 117000 119000
2021-02-06 00:45 6.20 45800 121000 (2020) 37900 (2018) 77200 42100 45700 70100 117000 119000
2021-02-05 23:45 6.23 45900 121000 (2020) 38400 (2018) 76300 42400 45800 75200 105000 113000
2021-02-05 22:45 6.25 46000 121000 (2020) 38400 (2018) 76300 42400 45800 75200 105000 113000
2021-02-05 21:45 6.27 46100 121000 (2020) 38400 (2018) 76300 42400 45800 75200 105000 113000
2021-02-05 20:45 6.29 46200 121000 (2020) 38400 (2018) 76300 42400 45800 75200 105000 113000
2021-02-05 19:45 6.33 46400 121000 (2020) 38400 (2018) 76300 42400 45800 75200 105000 113000
2021-02-05 18:45 6.35 46500 121000 (2020) 38400 (2018) 76300 42400 45800 75200 105000 113000
2021-02-05 17:45 6.36 46600 121000 (2020) 38400 (2018) 76300 42400 45800 75200 105000 113000
2021-02-05 16:45 6.39 46700 121000 (2020) 38400 (2018) 76300 42400 45800 75200 105000 113000
2021-02-05 15:45 6.42 46800 121000 (2020) 38400 (2018) 76300 42400 45800 75200 105000 113000
2021-02-05 14:45 6.45 47000 121000 (2020) 38400 (2018) 76300 42400 45800 75200 105000 113000
2021-02-05 13:45 6.48 47100 121000 (2020) 38400 (2018) 76300 42400 45800 75200 105000 113000
2021-02-05 12:45 6.51 47300 121000 (2020) 38400 (2018) 76300 42400 45800 75200 105000 113000
2021-02-05 11:45 6.54 47400 121000 (2020) 38400 (2018) 76300 42400 45800 75200 105000 113000
2021-02-05 10:45 6.58 47600 121000 (2020) 38400 (2018) 76300 42400 45800 75200 105000 113000
2021-02-05 09:45 6.61 47800 121000 (2020) 38400 (2018) 76300 42400 45800 75200 105000 113000
2021-02-05 08:45 6.66 48000 121000 (2020) 38400 (2018) 76300 42400 45800 75200 105000 113000
2021-02-05 07:45 6.69 48200 121000 (2020) 38400 (2018) 76300 42400 45800 75200 105000 113000
2021-02-05 06:45 6.71 48300 121000 (2020) 38400 (2018) 76300 42400 45800 75200 105000 113000
2021-02-05 05:45 6.76 48500 121000 (2020) 38400 (2018) 76300 42400 45800 75200 105000 113000
2021-02-05 04:45 6.83 48900 121000 (2020) 38400 (2018) 76300 42400 45800 75200 105000 113000
2021-02-05 03:45 6.83 48900 121000 (2020) 38400 (2018) 76300 42400 45800 75200 105000 113000
2021-02-05 02:45 6.91 49300 121000 (2020) 38400 (2018) 76300 42400 45800 75200 105000 113000
2021-02-05 01:45 6.93 49400 121000 (2020) 38400 (2018) 76300 42400 45800 75200 105000 113000
2021-02-05 00:45 6.98 49700 121000 (2020) 38400 (2018) 76300 42400 45800 75200 105000 113000
2021-02-04 23:45 7.01 49800 109000 (2020) 39300 (2018) 69900 43300 46700 64500 97100 103000
2021-02-04 22:45 7.08 50200 109000 (2020) 39300 (2018) 69900 43300 46700 64500 97100 103000
2021-02-04 21:45 7.13 50400 109000 (2020) 39300 (2018) 69900 43300 46700 64500 97100 103000
2021-02-04 20:45 7.14 50500 109000 (2020) 39300 (2018) 69900 43300 46700 64500 97100 103000
2021-02-04 19:45 7.21 50900 109000 (2020) 39300 (2018) 69900 43300 46700 64500 97100 103000
2021-02-04 18:45 7.23 51000 109000 (2020) 39300 (2018) 69900 43300 46700 64500 97100 103000
2021-02-04 17:45 7.27 51200 109000 (2020) 39300 (2018) 69900 43300 46700 64500 97100 103000
2021-02-04 16:45 7.37 51700 109000 (2020) 39300 (2018) 69900 43300 46700 64500 97100 103000
2021-02-04 15:45 7.40 51900 109000 (2020) 39300 (2018) 69900 43300 46700 64500 97100 103000
2021-02-04 14:45 7.42 52000 109000 (2020) 39300 (2018) 69900 43300 46700 64500 97100 103000
2021-02-04 13:45 7.49 52300 109000 (2020) 39300 (2018) 69900 43300 46700 64500 97100 103000
2021-02-04 12:45 7.52 52500 109000 (2020) 39300 (2018) 69900 43300 46700 64500 97100 103000
2021-02-04 11:45 7.63 53100 109000 (2020) 39300 (2018) 69900 43300 46700 64500 97100 103000
2021-02-04 10:45 7.69 53400 109000 (2020) 39300 (2018) 69900 43300 46700 64500 97100 103000
2021-02-04 09:45 7.75 53800 109000 (2020) 39300 (2018) 69900 43300 46700 64500 97100 103000
2021-02-04 08:45 7.80 54000 109000 (2020) 39300 (2018) 69900 43300 46700 64500 97100 103000
2021-02-04 07:45 7.84 54300 109000 (2020) 39300 (2018) 69900 43300 46700 64500 97100 103000
2021-02-04 06:45 7.94 54800 109000 (2020) 39300 (2018) 69900 43300 46700 64500 97100 103000
2021-02-04 05:45 8.01 55200 109000 (2020) 39300 (2018) 69900 43300 46700 64500 97100 103000
2021-02-04 04:45 8.05 55400 109000 (2020) 39300 (2018) 69900 43300 46700 64500 97100 103000
2021-02-04 03:45 8.13 55900 109000 (2020) 39300 (2018) 69900 43300 46700 64500 97100 103000
2021-02-04 02:45 8.20 56300 109000 (2020) 39300 (2018) 69900 43300 46700 64500 97100 103000
2021-02-04 01:45 8.26 56600 109000 (2020) 39300 (2018) 69900 43300 46700 64500 97100 103000
2021-02-04 00:45 8.35 57100 109000 (2020) 39300 (2018) 69900 43300 46700 64500 97100 103000
2021-02-03 23:45 8.43 57600 97500 (2020) 40300 (2018) 64100 44100 47400 61400 80200 88300
2021-02-03 22:45 8.50 58000 97500 (2020) 40300 (2018) 64100 44100 47400 61400 80200 88300
2021-02-03 21:45 8.57 58400 97500 (2020) 40300 (2018) 64100 44100 47400 61400 80200 88300
2021-02-03 20:45 8.64 58800 97500 (2020) 40300 (2018) 64100 44100 47400 61400 80200 88300
2021-02-03 19:45 8.74 59400 97500 (2020) 40300 (2018) 64100 44100 47400 61400 80200 88300
2021-02-03 18:45 8.81 59800 97500 (2020) 40300 (2018) 64100 44100 47400 61400 80200 88300
2021-02-03 17:45 8.87 60200 97500 (2020) 40300 (2018) 64100 44100 47400 61400 80200 88300
2021-02-03 16:45 8.92 60500 97500 (2020) 40300 (2018) 64100 44100 47400 61400 80200 88300
2021-02-03 15:45 9.01 61000 97500 (2020) 40300 (2018) 64100 44100 47400 61400 80200 88300
2021-02-03 14:45 9.09 61500 97500 (2020) 40300 (2018) 64100 44100 47400 61400 80200 88300
2021-02-03 13:45 9.16 61900 97500 (2020) 40300 (2018) 64100 44100 47400 61400 80200 88300
2021-02-03 12:45 9.25 62500 97500 (2020) 40300 (2018) 64100 44100 47400 61400 80200 88300
2021-02-03 11:45 9.35 63100 97500 (2020) 40300 (2018) 64100 44100 47400 61400 80200 88300
2021-02-03 10:45 9.43 63600 97500 (2020) 40300 (2018) 64100 44100 47400 61400 80200 88300
2021-02-03 09:45 9.44 63700 97500 (2020) 40300 (2018) 64100 44100 47400 61400 80200 88300
2021-02-03 08:45 9.56 64400 97500 (2020) 40300 (2018) 64100 44100 47400 61400 80200 88300
2021-02-03 07:45 9.62 64800 97500 (2020) 40300 (2018) 64100 44100 47400 61400 80200 88300
2021-02-03 06:45 9.70 65300 97500 (2020) 40300 (2018) 64100 44100 47400 61400 80200 88300
2021-02-03 05:45 9.79 65900 97500 (2020) 40300 (2018) 64100 44100 47400 61400 80200 88300
2021-02-03 04:45 9.85 66300 97500 (2020) 40300 (2018) 64100 44100 47400 61400 80200 88300
2021-02-03 03:45 9.91 66700 97500 (2020) 40300 (2018) 64100 44100 47400 61400 80200 88300
2021-02-03 02:45 9.98 67100 97500 (2020) 40300 (2018) 64100 44100 47400 61400 80200 88300
2021-02-03 01:45 10.03 67500 97500 (2020) 40300 (2018) 64100 44100 47400 61400 80200 88300
2021-02-03 00:45 10.10 67900 97500 (2020) 40300 (2018) 64100 44100 47400 61400 80200 88300
2021-02-02 23:45 10.12 68100 89800 (2020) 40600 (2018) 61800 44200 47400 59600 76000 82400
2021-02-02 22:45 10.23 68800 89800 (2020) 40600 (2018) 61800 44200 47400 59600 76000 82400
2021-02-02 21:45 10.25 68900 89800 (2020) 40600 (2018) 61800 44200 47400 59600 76000 82400
2021-02-02 20:45 10.31 69300 89800 (2020) 40600 (2018) 61800 44200 47400 59600 76000 82400
2021-02-02 19:45 10.34 69500 89800 (2020) 40600 (2018) 61800 44200 47400 59600 76000 82400
2021-02-02 18:45 10.38 69800 89800 (2020) 40600 (2018) 61800 44200 47400 59600 76000 82400
2021-02-02 17:45 10.42 70100 89800 (2020) 40600 (2018) 61800 44200 47400 59600 76000 82400
2021-02-02 16:45 10.45 70300 89800 (2020) 40600 (2018) 61800 44200 47400 59600 76000 82400
2021-02-02 15:45 10.45 70300 89800 (2020) 40600 (2018) 61800 44200 47400 59600 76000 82400
2021-02-02 14:45 10.49 70500 89800 (2020) 40600 (2018) 61800 44200 47400 59600 76000 82400
2021-02-02 13:45 10.51 70700 89800 (2020) 40600 (2018) 61800 44200 47400 59600 76000 82400
2021-02-02 12:45 10.53 70800 89800 (2020) 40600 (2018) 61800 44200 47400 59600 76000 82400
2021-02-02 11:45 10.50 70600 89800 (2020) 40600 (2018) 61800 44200 47400 59600 76000 82400
2021-02-02 10:45 10.53 70800 89800 (2020) 40600 (2018) 61800 44200 47400 59600 76000 82400
2021-02-02 09:45 10.54 70900 89800 (2020) 40600 (2018) 61800 44200 47400 59600 76000 82400
2021-02-02 08:45 10.48 70500 89800 (2020) 40600 (2018) 61800 44200 47400 59600 76000 82400
2021-02-02 07:45 10.47 70400 89800 (2020) 40600 (2018) 61800 44200 47400 59600 76000 82400
2021-02-02 06:45 10.45 70300 89800 (2020) 40600 (2018) 61800 44200 47400 59600 76000 82400
2021-02-02 05:45 10.44 70200 89800 (2020) 40600 (2018) 61800 44200 47400 59600 76000 82400
2021-02-02 04:45 10.40 69900 89800 (2020) 40600 (2018) 61800 44200 47400 59600 76000 82400
2021-02-02 03:45 10.33 69500 89800 (2020) 40600 (2018) 61800 44200 47400 59600 76000 82400
2021-02-02 02:45 10.29 69200 89800 (2020) 40600 (2018) 61800 44200 47400 59600 76000 82400
2021-02-02 01:45 10.20 68600 89800 (2020) 40600 (2018) 61800 44200 47400 59600 76000 82400
2021-02-02 00:45 10.14 68200 89800 (2020) 40600 (2018) 61800 44200 47400 59600 76000 82400
2021-02-01 23:45 10.06 67700 85300 (2020) 40300 (2018) 60700 42200 43900 59300 77600 81200
2021-02-01 22:45 9.93 66800 85300 (2020) 40300 (2018) 60700 42200 43900 59300 77600 81200
2021-02-01 21:45 9.86 66400 85300 (2020) 40300 (2018) 60700 42200 43900 59300 77600 81200
2021-02-01 20:45 9.74 65600 85300 (2020) 40300 (2018) 60700 42200 43900 59300 77600 81200
2021-02-01 19:45 9.57 64500 85300 (2020) 40300 (2018) 60700 42200 43900 59300 77600 81200
2021-02-01 18:45 9.49 64000 85300 (2020) 40300 (2018) 60700 42200 43900 59300 77600 81200
2021-02-01 17:45 9.36 63200 85300 (2020) 40300 (2018) 60700 42200 43900 59300 77600 81200
2021-02-01 16:45 9.26 62600 85300 (2020) 40300 (2018) 60700 42200 43900 59300 77600 81200
2021-02-01 15:45 9.16 61900 85300 (2020) 40300 (2018) 60700 42200 43900 59300 77600 81200
2021-02-01 14:45 8.99 60900 85300 (2020) 40300 (2018) 60700 42200 43900 59300 77600 81200
2021-02-01 13:45 8.89 60300 85300 (2020) 40300 (2018) 60700 42200 43900 59300 77600 81200
2021-02-01 12:45 8.76 59500 85300 (2020) 40300 (2018) 60700 42200 43900 59300 77600 81200
2021-02-01 11:45 8.65 58900 85300 (2020) 40300 (2018) 60700 42200 43900 59300 77600 81200
2021-02-01 10:45 8.56 58300 85300 (2020) 40300 (2018) 60700 42200 43900 59300 77600 81200
2021-02-01 09:45 8.45 57700 85300 (2020) 40300 (2018) 60700 42200 43900 59300 77600 81200
2021-02-01 08:45 8.33 57000 85300 (2020) 40300 (2018) 60700 42200 43900 59300 77600 81200
2021-02-01 07:45 8.22 56400 85300 (2020) 40300 (2018) 60700 42200 43900 59300 77600 81200
2021-02-01 06:45 8.16 56000 85300 (2020) 40300 (2018) 60700 42200 43900 59300 77600 81200
2021-02-01 05:45 8.04 55400 85300 (2020) 40300 (2018) 60700 42200 43900 59300 77600 81200
2021-02-01 04:45 7.96 54900 85300 (2020) 40300 (2018) 60700 42200 43900 59300 77600 81200
2021-02-01 03:45 7.89 54500 85300 (2020) 40300 (2018) 60700 42200 43900 59300 77600 81200
2021-02-01 02:45 7.78 53900 85300 (2020) 40300 (2018) 60700 42200 43900 59300 77600 81200
2021-02-01 01:45 7.72 53600 85300 (2020) 40300 (2018) 60700 42200 43900 59300 77600 81200
2021-02-01 00:45 7.56 52700 85300 (2020) 40300 (2018) 60700 42200 43900 59300 77600 81200
2021-01-31 23:45 7.59 52900 82800 (2020) 39800 (2018) 60300 40800 41700 60100 78300 80400
2021-01-31 22:45 7.51 52500 82800 (2020) 39800 (2018) 60300 40800 41700 60100 78300 80400
2021-01-31 21:45 7.49 52300 82800 (2020) 39800 (2018) 60300 40800 41700 60100 78300 80400
2021-01-31 20:45 7.43 52000 82800 (2020) 39800 (2018) 60300 40800 41700 60100 78300 80400
2021-01-31 19:45 7.33 51500 82800 (2020) 39800 (2018) 60300 40800 41700 60100 78300 80400
2021-01-31 18:45 7.29 51300 82800 (2020) 39800 (2018) 60300 40800 41700 60100 78300 80400
2021-01-31 17:45 7.26 51100 82800 (2020) 39800 (2018) 60300 40800 41700 60100 78300 80400
2021-01-31 16:45 7.19 50800 82800 (2020) 39800 (2018) 60300 40800 41700 60100 78300 80400
2021-01-31 15:45 7.18 50700 82800 (2020) 39800 (2018) 60300 40800 41700 60100 78300 80400
2021-01-31 14:45 7.08 50200 82800 (2020) 39800 (2018) 60300 40800 41700 60100 78300 80400
2021-01-31 13:45 7.02 49900 82800 (2020) 39800 (2018) 60300 40800 41700 60100 78300 80400
2021-01-31 12:45 6.96 49600 82800 (2020) 39800 (2018) 60300 40800 41700 60100 78300 80400
2021-01-31 11:45 6.92 49400 82800 (2020) 39800 (2018) 60300 40800 41700 60100 78300 80400
2021-01-31 10:45 6.89 49200 82800 (2020) 39800 (2018) 60300 40800 41700 60100 78300 80400
2021-01-31 09:45 6.81 48800 82800 (2020) 39800 (2018) 60300 40800 41700 60100 78300 80400
2021-01-31 08:45 6.74 48400 82800 (2020) 39800 (2018) 60300 40800 41700 60100 78300 80400
2021-01-31 07:45 6.62 47800 82800 (2020) 39800 (2018) 60300 40800 41700 60100 78300 80400
2021-01-31 06:45 6.52 47300 82800 (2020) 39800 (2018) 60300 40800 41700 60100 78300 80400
2021-01-31 05:45 6.45 47000 82800 (2020) 39800 (2018) 60300 40800 41700 60100 78300 80400
2021-01-31 04:45 6.30 46300 82800 (2020) 39800 (2018) 60300 40800 41700 60100 78300 80400
2021-01-31 03:45 6.23 45900 82800 (2020) 39800 (2018) 60300 40800 41700 60100 78300 80400
2021-01-31 02:45 6.07 45200 82800 (2020) 39800 (2018) 60300 40800 41700 60100 78300 80400
2021-01-31 01:45 6.03 45000 82800 (2020) 39800 (2018) 60300 40800 41700 60100 78300 80400
2021-01-31 00:45 5.87 44200 82800 (2020) 39800 (2018) 60300 40800 41700 60100 78300 80400
2021-01-30 23:45 5.72 43500 82500 (2020) 39800 (2018) 60500 40400 41000 60500 79100 80700
2021-01-30 22:45 5.69 43400 82500 (2020) 39800 (2018) 60500 40400 41000 60500 79100 80700
2021-01-30 21:45 5.61 43000 82500 (2020) 39800 (2018) 60500 40400 41000 60500 79100 80700
2021-01-30 20:45 5.44 42200 82500 (2020) 39800 (2018) 60500 40400 41000 60500 79100 80700
2021-01-30 19:45 5.30 41600 82500 (2020) 39800 (2018) 60500 40400 41000 60500 79100 80700
2021-01-30 18:45 5.15 40900 82500 (2020) 39800 (2018) 60500 40400 41000 60500 79100 80700
2021-01-30 17:45 4.97 40100 82500 (2020) 39800 (2018) 60500 40400 41000 60500 79100 80700
2021-01-30 16:45 4.83 39500 82500 (2020) 39800 (2018) 60500 40400 41000 60500 79100 80700
2021-01-30 15:45 4.73 39100 82500 (2020) 39800 (2018) 60500 40400 41000 60500 79100 80700
2021-01-30 14:45 4.64 38700 82500 (2020) 39800 (2018) 60500 40400 41000 60500 79100 80700
2021-01-30 13:45 4.60 38600 82500 (2020) 39800 (2018) 60500 40400 41000 60500 79100 80700
2021-01-30 12:45 4.65 38800 82500 (2020) 39800 (2018) 60500 40400 41000 60500 79100 80700
2021-01-30 11:45 4.64 38700 82500 (2020) 39800 (2018) 60500 40400 41000 60500 79100 80700
2021-01-30 10:45 4.63 38700 82500 (2020) 39800 (2018) 60500 40400 41000 60500 79100 80700
2021-01-30 09:45 4.62 38600 82500 (2020) 39800 (2018) 60500 40400 41000 60500 79100 80700
2021-01-30 08:45 4.58 38500 82500 (2020) 39800 (2018) 60500 40400 41000 60500 79100 80700
2021-01-30 07:45 4.65 38800 82500 (2020) 39800 (2018) 60500 40400 41000 60500 79100 80700
2021-01-30 06:45 4.70 39000 82500 (2020) 39800 (2018) 60500 40400 41000 60500 79100 80700
2021-01-30 05:45 4.76 39200 82500 (2020) 39800 (2018) 60500 40400 41000 60500 79100 80700
2021-01-30 04:45 4.78 39300 82500 (2020) 39800 (2018) 60500 40400 41000 60500 79100 80700
2021-01-30 03:45 4.79 39400 82500 (2020) 39800 (2018) 60500 40400 41000 60500 79100 80700
2021-01-30 02:45 4.82 39500 82500 (2020) 39800 (2018) 60500 40400 41000 60500 79100 80700
2021-01-30 01:45 4.85 39600 82500 (2020) 39800 (2018) 60500 40400 41000 60500 79100 80700
2021-01-30 00:45 4.86 39700 82500 (2020) 39800 (2018) 60500 40400 41000 60500 79100 80700
2021-01-29 23:45 4.91 39900 84300 (2020) 40400 (2018) 61000 40700 40900 61300 79100 81500
2021-01-29 22:45 4.92 39900 84300 (2020) 40400 (2018) 61000 40700 40900 61300 79100 81500
2021-01-29 21:45 4.94 40000 84300 (2020) 40400 (2018) 61000 40700 40900 61300 79100 81500
2021-01-29 20:45 4.97 40100 84300 (2020) 40400 (2018) 61000 40700 40900 61300 79100 81500
2021-01-29 19:45 4.98 40200 84300 (2020) 40400 (2018) 61000 40700 40900 61300 79100 81500
2021-01-29 18:45 5.02 40400 84300 (2020) 40400 (2018) 61000 40700 40900 61300 79100 81500
2021-01-29 17:45 5.05 40500 84300 (2020) 40400 (2018) 61000 40700 40900 61300 79100 81500
2021-01-29 16:45 5.07 40600 84300 (2020) 40400 (2018) 61000 40700 40900 61300 79100 81500
2021-01-29 15:45 5.07 40600 84300 (2020) 40400 (2018) 61000 40700 40900 61300 79100 81500
2021-01-29 14:45 5.10 40700 84300 (2020) 40400 (2018) 61000 40700 40900 61300 79100 81500
2021-01-29 13:45 5.10 40700 84300 (2020) 40400 (2018) 61000 40700 40900 61300 79100 81500
2021-01-29 12:45 5.17 41000 84300 (2020) 40400 (2018) 61000 40700 40900 61300 79100 81500
2021-01-29 11:45 5.20 41200 84300 (2020) 40400 (2018) 61000 40700 40900 61300 79100 81500
2021-01-29 10:45 5.24 41300 84300 (2020) 40400 (2018) 61000 40700 40900 61300 79100 81500
2021-01-29 09:45 5.27 41500 84300 (2020) 40400 (2018) 61000 40700 40900 61300 79100 81500
2021-01-29 08:45 5.30 41600 84300 (2020) 40400 (2018) 61000 40700 40900 61300 79100 81500
2021-01-29 07:45 5.33 41700 84300 (2020) 40400 (2018) 61000 40700 40900 61300 79100 81500
2021-01-29 06:45 5.34 41800 84300 (2020) 40400 (2018) 61000 40700 40900 61300 79100 81500
2021-01-29 05:45 5.37 41900 84300 (2020) 40400 (2018) 61000 40700 40900 61300 79100 81500
2021-01-29 04:45 5.39 42000 84300 (2020) 40400 (2018) 61000 40700 40900 61300 79100 81500
2021-01-29 03:45 5.43 42200 84300 (2020) 40400 (2018) 61000 40700 40900 61300 79100 81500
2021-01-29 02:45 5.43 42200 84300 (2020) 40400 (2018) 61000 40700 40900 61300 79100 81500
2021-01-29 01:45 5.47 42400 84300 (2020) 40400 (2018) 61000 40700 40900 61300 79100 81500
2021-01-29 00:45 5.48 42400 84300 (2020) 40400 (2018) 61000 40700 40900 61300 79100 81500
2021-01-28 23:45 5.49 42500 84700 (2020) 40500 (2015) 61000 40600 40600 62500 77300 80800
2021-01-28 22:45 5.53 42600 84700 (2020) 40500 (2015) 61000 40600 40600 62500 77300 80800
2021-01-28 21:45 5.52 42600 84700 (2020) 40500 (2015) 61000 40600 40600 62500 77300 80800
2021-01-28 20:45 5.54 42700 84700 (2020) 40500 (2015) 61000 40600 40600 62500 77300 80800
2021-01-28 19:45 5.56 42800 84700 (2020) 40500 (2015) 61000 40600 40600 62500 77300 80800
2021-01-28 18:45 5.57 42800 84700 (2020) 40500 (2015) 61000 40600 40600 62500 77300 80800
2021-01-28 17:45 5.57 42800 84700 (2020) 40500 (2015) 61000 40600 40600 62500 77300 80800
2021-01-28 16:45 5.54 42700 84700 (2020) 40500 (2015) 61000 40600 40600 62500 77300 80800
2021-01-28 15:45 5.53 42600 84700 (2020) 40500 (2015) 61000 40600 40600 62500 77300 80800
2021-01-28 14:45 5.53 42600 84700 (2020) 40500 (2015) 61000 40600 40600 62500 77300 80800
2021-01-28 13:45 5.56 42800 84700 (2020) 40500 (2015) 61000 40600 40600 62500 77300 80800
2021-01-28 12:45 5.53 42600 84700 (2020) 40500 (2015) 61000 40600 40600 62500 77300 80800
2021-01-28 11:45 5.55 42700 84700 (2020) 40500 (2015) 61000 40600 40600 62500 77300 80800
2021-01-28 10:45 5.53 42600 84700 (2020) 40500 (2015) 61000 40600 40600 62500 77300 80800
2021-01-28 09:45 5.50 42500 84700 (2020) 40500 (2015) 61000 40600 40600 62500 77300 80800
2021-01-28 08:45 5.49 42500 84700 (2020) 40500 (2015) 61000 40600 40600 62500 77300 80800
2021-01-28 07:45 5.47 42400 84700 (2020) 40500 (2015) 61000 40600 40600 62500 77300 80800
2021-01-28 06:45 5.44 42200 84700 (2020) 40500 (2015) 61000 40600 40600 62500 77300 80800
2021-01-28 05:45 5.42 42100 84700 (2020) 40500 (2015) 61000 40600 40600 62500 77300 80800
2021-01-28 04:45 5.40 42000 84700 (2020) 40500 (2015) 61000 40600 40600 62500 77300 80800
2021-01-28 03:45 5.33 41700 84700 (2020) 40500 (2015) 61000 40600 40600 62500 77300 80800
2021-01-28 02:45 5.29 41600 84700 (2020) 40500 (2015) 61000 40600 40600 62500 77300 80800
2021-01-28 01:45 5.27 41500 84700 (2020) 40500 (2015) 61000 40600 40600 62500 77300 80800
2021-01-28 00:45 5.23 41300 84700 (2020) 40500 (2015) 61000 40600 40600 62500 77300 80800
2021-01-27 23:45 5.18 41100 81400 (2020) 39900 (2015) 60700 40100 40300 63200 77300 79200
2021-01-27 22:45 5.14 40900 81400 (2020) 39900 (2015) 60700 40100 40300 63200 77300 79200
2021-01-27 21:45 5.08 40600 81400 (2020) 39900 (2015) 60700 40100 40300 63200 77300 79200
2021-01-27 20:45 5.04 40500 81400 (2020) 39900 (2015) 60700 40100 40300 63200 77300 79200
2021-01-27 19:45 5.00 40300 81400 (2020) 39900 (2015) 60700 40100 40300 63200 77300 79200
2021-01-27 18:45 4.94 40000 81400 (2020) 39900 (2015) 60700 40100 40300 63200 77300 79200
2021-01-27 17:45 4.90 39800 81400 (2020) 39900 (2015) 60700 40100 40300 63200 77300 79200
2021-01-27 16:45 4.87 39700 81400 (2020) 39900 (2015) 60700 40100 40300 63200 77300 79200
2021-01-27 15:45 4.81 39500 81400 (2020) 39900 (2015) 60700 40100 40300 63200 77300 79200
2021-01-27 14:45 4.78 39300 81400 (2020) 39900 (2015) 60700 40100 40300 63200 77300 79200
2021-01-27 13:45 4.73 39100 81400 (2020) 39900 (2015) 60700 40100 40300 63200 77300 79200
2021-01-27 12:45 4.71 39000 81400 (2020) 39900 (2015) 60700 40100 40300 63200 77300 79200
2021-01-27 11:45 4.66 38800 81400 (2020) 39900 (2015) 60700 40100 40300 63200 77300 79200
2021-01-27 10:45 4.63 38700 81400 (2020) 39900 (2015) 60700 40100 40300 63200 77300 79200
2021-01-27 09:45 4.59 38500 81400 (2020) 39900 (2015) 60700 40100 40300 63200 77300 79200
2021-01-27 08:45 4.56 38400 81400 (2020) 39900 (2015) 60700 40100 40300 63200 77300 79200
2021-01-27 07:45 4.54 38300 81400 (2020) 39900 (2015) 60700 40100 40300 63200 77300 79200
2021-01-27 06:45 4.52 38200 81400 (2020) 39900 (2015) 60700 40100 40300 63200 77300 79200
2021-01-27 05:45 4.51 38200 81400 (2020) 39900 (2015) 60700 40100 40300 63200 77300 79200
2021-01-27 04:45 4.49 38100 81400 (2020) 39900 (2015) 60700 40100 40300 63200 77300 79200
2021-01-27 03:45 4.48 38100 81400 (2020) 39900 (2015) 60700 40100 40300 63200 77300 79200
2021-01-27 02:45 4.47 38000 81400 (2020) 39900 (2015) 60700 40100 40300 63200 77300 79200
2021-01-27 01:45 4.47 38000 81400 (2020) 39900 (2015) 60700 40100 40300 63200 77300 79200
2021-01-27 00:45 4.47 38000 81400 (2020) 39900 (2015) 60700 40100 40300 63200 77300 79200
2021-01-26 23:45 4.46 38000 80000 (2019) 39500 (2015) 60600 39500 39500 63100 78600 79300
2021-01-26 22:45 4.47 38000 80000 (2019) 39500 (2015) 60600 39500 39500 63100 78600 79300
2021-01-26 21:45 4.47 38000 80000 (2019) 39500 (2015) 60600 39500 39500 63100 78600 79300
2021-01-26 20:45 4.48 38100 80000 (2019) 39500 (2015) 60600 39500 39500 63100 78600 79300
2021-01-26 19:45 4.45 37900 80000 (2019) 39500 (2015) 60600 39500 39500 63100 78600 79300
2021-01-26 18:45 4.49 38100 80000 (2019) 39500 (2015) 60600 39500 39500 63100 78600 79300
2021-01-26 17:45 4.46 38000 80000 (2019) 39500 (2015) 60600 39500 39500 63100 78600 79300
2021-01-26 16:45 4.47 38000 80000 (2019) 39500 (2015) 60600 39500 39500 63100 78600 79300
2021-01-26 15:45 4.46 38000 80000 (2019) 39500 (2015) 60600 39500 39500 63100 78600 79300
2021-01-26 14:45 4.46 38000 80000 (2019) 39500 (2015) 60600 39500 39500 63100 78600 79300
2021-01-26 13:45 4.46 38000 80000 (2019) 39500 (2015) 60600 39500 39500 63100 78600 79300
2021-01-26 12:45 4.44 37900 80000 (2019) 39500 (2015) 60600 39500 39500 63100 78600 79300
2021-01-26 11:45 4.46 38000 80000 (2019) 39500 (2015) 60600 39500 39500 63100 78600 79300
2021-01-26 10:45 4.44 37900 80000 (2019) 39500 (2015) 60600 39500 39500 63100 78600 79300
2021-01-26 09:45 4.40 37700 80000 (2019) 39500 (2015) 60600 39500 39500 63100 78600 79300
2021-01-26 08:45 4.42 37800 80000 (2019) 39500 (2015) 60600 39500 39500 63100 78600 79300
2021-01-26 07:45 4.42 37800 80000 (2019) 39500 (2015) 60600 39500 39500 63100 78600 79300
2021-01-26 06:45 4.39 37700 80000 (2019) 39500 (2015) 60600 39500 39500 63100 78600 79300
2021-01-26 05:45 4.37 37600 80000 (2019) 39500 (2015) 60600 39500 39500 63100 78600 79300
2021-01-26 04:45 4.35 37500 80000 (2019) 39500 (2015) 60600 39500 39500 63100 78600 79300
2021-01-26 03:45 4.33 37400 80000 (2019) 39500 (2015) 60600 39500 39500 63100 78600 79300
2021-01-26 02:45 4.30 37300 80000 (2019) 39500 (2015) 60600 39500 39500 63100 78600 79300
2021-01-26 01:45 4.29 37300 80000 (2019) 39500 (2015) 60600 39500 39500 63100 78600 79300
2021-01-26 00:45 4.27 37200 80000 (2019) 39500 (2015) 60600 39500 39500 63100 78600 79300
2021-01-25 23:45 4.25 37100 84800 (2019) 38200 (2018) 60300 38700 39200 61800 78000 81200
2021-01-25 22:45 4.23 37000 84800 (2019) 38200 (2018) 60300 38700 39200 61800 78000 81200
2021-01-25 21:45 4.21 37000 84800 (2019) 38200 (2018) 60300 38700 39200 61800 78000 81200
2021-01-25 20:45 4.20 36900 84800 (2019) 38200 (2018) 60300 38700 39200 61800 78000 81200
2021-01-25 19:45 4.20 36900 84800 (2019) 38200 (2018) 60300 38700 39200 61800 78000 81200
2021-01-25 18:45 4.16 36700 84800 (2019) 38200 (2018) 60300 38700 39200 61800 78000 81200
2021-01-25 17:45 4.16 36700 84800 (2019) 38200 (2018) 60300 38700 39200 61800 78000 81200
2021-01-25 16:45 4.12 36600 84800 (2019) 38200 (2018) 60300 38700 39200 61800 78000 81200
2021-01-25 15:45 4.06 36300 84800 (2019) 38200 (2018) 60300 38700 39200 61800 78000 81200
2021-01-25 14:45 4.03 36200 84800 (2019) 38200 (2018) 60300 38700 39200 61800 78000 81200
2021-01-25 13:45 4.00 36100 84800 (2019) 38200 (2018) 60300 38700 39200 61800 78000 81200
2021-01-25 12:45 3.99 36100 84800 (2019) 38200 (2018) 60300 38700 39200 61800 78000 81200
2021-01-25 11:45 3.86 35500 84800 (2019) 38200 (2018) 60300 38700 39200 61800 78000 81200
2021-01-25 10:45 3.87 35600 84800 (2019) 38200 (2018) 60300 38700 39200 61800 78000 81200
2021-01-25 09:45 3.95 35900 84800 (2019) 38200 (2018) 60300 38700 39200 61800 78000 81200
2021-01-25 08:45 3.90 35700 84800 (2019) 38200 (2018) 60300 38700 39200 61800 78000 81200
2021-01-25 07:45 3.90 35700 84800 (2019) 38200 (2018) 60300 38700 39200 61800 78000 81200
2021-01-25 06:45 3.85 35500 84800 (2019) 38200 (2018) 60300 38700 39200 61800 78000 81200
2021-01-25 05:45 3.83 35400 84800 (2019) 38200 (2018) 60300 38700 39200 61800 78000 81200
2021-01-25 04:45 3.83 35400 84800 (2019) 38200 (2018) 60300 38700 39200 61800 78000 81200
2021-01-25 03:45 3.79 35300 84800 (2019) 38200 (2018) 60300 38700 39200 61800 78000 81200
2021-01-25 02:45 3.85 35500 84800 (2019) 38200 (2018) 60300 38700 39200 61800 78000 81200
2021-01-25 01:45 3.85 35500 84800 (2019) 38200 (2018) 60300 38700 39200 61800 78000 81200
2021-01-25 00:45 3.79 35300 84800 (2019) 38200 (2018) 60300 38700 39200 61800 78000 81200
2021-01-24 23:45 3.85 35500 92400 (2019) 37500 (2018) 61200 38100 38600 60800 80400 86000
2021-01-24 22:45 3.85 35500 92400 (2019) 37500 (2018) 61200 38100 38600 60800 80400 86000
2021-01-24 21:45 3.84 35500 92400 (2019) 37500 (2018) 61200 38100 38600 60800 80400 86000
2021-01-24 20:45 3.85 35500 92400 (2019) 37500 (2018) 61200 38100 38600 60800 80400 86000
2021-01-24 19:45 3.85 35500 92400 (2019) 37500 (2018) 61200 38100 38600 60800 80400 86000
2021-01-24 18:45 3.86 35500 92400 (2019) 37500 (2018) 61200 38100 38600 60800 80400 86000
2021-01-24 17:45 3.86 35500 92400 (2019) 37500 (2018) 61200 38100 38600 60800 80400 86000
2021-01-24 16:45 3.86 35500 92400 (2019) 37500 (2018) 61200 38100 38600 60800 80400 86000
2021-01-24 15:45 3.87 35600 92400 (2019) 37500 (2018) 61200 38100 38600 60800 80400 86000
2021-01-24 14:45 3.87 35600 92400 (2019) 37500 (2018) 61200 38100 38600 60800 80400 86000
2021-01-24 13:45 3.87 35600 92400 (2019) 37500 (2018) 61200 38100 38600 60800 80400 86000
2021-01-24 12:45 3.88 35600 92400 (2019) 37500 (2018) 61200 38100 38600 60800 80400 86000
2021-01-24 11:45 3.88 35600 92400 (2019) 37500 (2018) 61200 38100 38600 60800 80400 86000
2021-01-24 10:45 3.87 35600 92400 (2019) 37500 (2018) 61200 38100 38600 60800 80400 86000
2021-01-24 09:45 3.89 35700 92400 (2019) 37500 (2018) 61200 38100 38600 60800 80400 86000
2021-01-24 08:45 3.89 35700 92400 (2019) 37500 (2018) 61200 38100 38600 60800 80400 86000
2021-01-24 07:45 3.89 35700 92400 (2019) 37500 (2018) 61200 38100 38600 60800 80400 86000
2021-01-24 06:45 3.89 35700 92400 (2019) 37500 (2018) 61200 38100 38600 60800 80400 86000
2021-01-24 05:45 3.91 35700 92400 (2019) 37500 (2018) 61200 38100 38600 60800 80400 86000
2021-01-24 04:45 3.92 35800 92400 (2019) 37500 (2018) 61200 38100 38600 60800 80400 86000
2021-01-24 03:45 3.91 35700 92400 (2019) 37500 (2018) 61200 38100 38600 60800 80400 86000
2021-01-24 02:45 3.93 35800 92400 (2019) 37500 (2018) 61200 38100 38600 60800 80400 86000
2021-01-24 01:45 3.92 35800 92400 (2019) 37500 (2018) 61200 38100 38600 60800 80400 86000
2021-01-24 00:45 3.93 35800 92400 (2019) 37500 (2018) 61200 38100 38600 60800 80400 86000
2021-01-23 23:45 3.96 35900 91100 (2019) 37800 (2018) 61300 38000 38200 61000 81700 86100
2021-01-23 22:45 3.92 35800 91100 (2019) 37800 (2018) 61300 38000 38200 61000 81700 86100
2021-01-23 21:45 3.96 35900 91100 (2019) 37800 (2018) 61300 38000 38200 61000 81700 86100
2021-01-23 20:45 3.96 35900 91100 (2019) 37800 (2018) 61300 38000 38200 61000 81700 86100
2021-01-23 19:45 3.90 35700 91100 (2019) 37800 (2018) 61300 38000 38200 61000 81700 86100
2021-01-23 18:45 3.91 35700 91100 (2019) 37800 (2018) 61300 38000 38200 61000 81700 86100
2021-01-23 17:45 3.92 35800 91100 (2019) 37800 (2018) 61300 38000 38200 61000 81700 86100
2021-01-23 16:45 3.88 35600 91100 (2019) 37800 (2018) 61300 38000 38200 61000 81700 86100
2021-01-23 15:45 3.87 35600 91100 (2019) 37800 (2018) 61300 38000 38200 61000 81700 86100
2021-01-23 14:45 3.91 35700 91100 (2019) 37800 (2018) 61300 38000 38200 61000 81700 86100
2021-01-23 13:45 3.91 35700 91100 (2019) 37800 (2018) 61300 38000 38200 61000 81700 86100
2021-01-23 12:45 3.91 35700 91100 (2019) 37800 (2018) 61300 38000 38200 61000 81700 86100
2021-01-23 11:45 3.91 35700 91100 (2019) 37800 (2018) 61300 38000 38200 61000 81700 86100
2021-01-23 10:45 3.99 36100 91100 (2019) 37800 (2018) 61300 38000 38200 61000 81700 86100
2021-01-23 09:45 4.01 36100 91100 (2019) 37800 (2018) 61300 38000 38200 61000 81700 86100
2021-01-23 08:45 4.03 36200 91100 (2019) 37800 (2018) 61300 38000 38200 61000 81700 86100
2021-01-23 07:45 4.05 36300 91100 (2019) 37800 (2018) 61300 38000 38200 61000 81700 86100
2021-01-23 06:45 4.07 36400 91100 (2019) 37800 (2018) 61300 38000 38200 61000 81700 86100
2021-01-23 05:45 4.08 36400 91100 (2019) 37800 (2018) 61300 38000 38200 61000 81700 86100
2021-01-23 04:45 4.08 36400 91100 (2019) 37800 (2018) 61300 38000 38200 61000 81700 86100
2021-01-23 03:45 4.09 36500 91100 (2019) 37800 (2018) 61300 38000 38200 61000 81700 86100
2021-01-23 02:45 4.10 36500 91100 (2019) 37800 (2018) 61300 38000 38200 61000 81700 86100
2021-01-23 01:45 4.09 36500 91100 (2019) 37800 (2018) 61300 38000 38200 61000 81700 86100
2021-01-23 00:45 4.12 36600 91100 (2019) 37800 (2018) 61300 38000 38200 61000 81700 86100
2021-01-22 23:45 4.12 36600 85900 (2019) 37700 (2015) 61700 37900 38100 63500 82500 84100
2021-01-22 22:45 4.13 36600 85900 (2019) 37700 (2015) 61700 37900 38100 63500 82500 84100
2021-01-22 21:45 4.13 36600 85900 (2019) 37700 (2015) 61700 37900 38100 63500 82500 84100
2021-01-22 20:45 4.15 36700 85900 (2019) 37700 (2015) 61700 37900 38100 63500 82500 84100
2021-01-22 19:45 4.15 36700 85900 (2019) 37700 (2015) 61700 37900 38100 63500 82500 84100
2021-01-22 18:45 4.16 36700 85900 (2019) 37700 (2015) 61700 37900 38100 63500 82500 84100
2021-01-22 17:45 4.17 36800 85900 (2019) 37700 (2015) 61700 37900 38100 63500 82500 84100
2021-01-22 16:45 4.17 36800 85900 (2019) 37700 (2015) 61700 37900 38100 63500 82500 84100
2021-01-22 15:45 4.18 36800 85900 (2019) 37700 (2015) 61700 37900 38100 63500 82500 84100
2021-01-22 14:45 4.19 36900 85900 (2019) 37700 (2015) 61700 37900 38100 63500 82500 84100
2021-01-22 13:45 4.20 36900 85900 (2019) 37700 (2015) 61700 37900 38100 63500 82500 84100
2021-01-22 12:45 4.20 36900 85900 (2019) 37700 (2015) 61700 37900 38100 63500 82500 84100
2021-01-22 11:45 4.25 37100 85900 (2019) 37700 (2015) 61700 37900 38100 63500 82500 84100
2021-01-22 10:45 4.24 37100 85900 (2019) 37700 (2015) 61700 37900 38100 63500 82500 84100
2021-01-22 09:45 4.25 37100 85900 (2019) 37700 (2015) 61700 37900 38100 63500 82500 84100
2021-01-22 08:45 4.26 37200 85900 (2019) 37700 (2015) 61700 37900 38100 63500 82500 84100
2021-01-22 07:45 4.27 37200 85900 (2019) 37700 (2015) 61700 37900 38100 63500 82500 84100
2021-01-22 06:45 4.28 37200 85900 (2019) 37700 (2015) 61700 37900 38100 63500 82500 84100
2021-01-22 05:45 4.29 37300 85900 (2019) 37700 (2015) 61700 37900 38100 63500 82500 84100
2021-01-22 04:45 4.29 37300 85900 (2019) 37700 (2015) 61700 37900 38100 63500 82500 84100
2021-01-22 03:45 4.32 37400 85900 (2019) 37700 (2015) 61700 37900 38100 63500 82500 84100
2021-01-22 02:45 4.32 37400 85900 (2019) 37700 (2015) 61700 37900 38100 63500 82500 84100
2021-01-22 01:45 4.33 37400 85900 (2019) 37700 (2015) 61700 37900 38100 63500 82500 84100
2021-01-22 00:45 4.32 37400 85900 (2019) 37700 (2015) 61700 37900 38100 63500 82500 84100
2021-01-21 23:45 4.35 37500 97100 (2019) 36900 (2018) 64900 37000 37100 65000 90500 93600
2021-01-21 22:45 4.35 37500 97100 (2019) 36900 (2018) 64900 37000 37100 65000 90500 93600
2021-01-21 21:45 4.36 37600 97100 (2019) 36900 (2018) 64900 37000 37100 65000 90500 93600
2021-01-21 20:45 4.37 37600 97100 (2019) 36900 (2018) 64900 37000 37100 65000 90500 93600
2021-01-21 19:45 4.39 37700 97100 (2019) 36900 (2018) 64900 37000 37100 65000 90500 93600
2021-01-21 18:45 4.40 37700 97100 (2019) 36900 (2018) 64900 37000 37100 65000 90500 93600
2021-01-21 17:45 4.37 37600 97100 (2019) 36900 (2018) 64900 37000 37100 65000 90500 93600
2021-01-21 16:45 4.38 37600 97100 (2019) 36900 (2018) 64900 37000 37100 65000 90500 93600
2021-01-21 15:45 4.40 37700 97100 (2019) 36900 (2018) 64900 37000 37100 65000 90500 93600
2021-01-21 14:45 4.40 37700 97100 (2019) 36900 (2018) 64900 37000 37100 65000 90500 93600
2021-01-21 13:45 4.39 37700 97100 (2019) 36900 (2018) 64900 37000 37100 65000 90500 93600
2021-01-21 12:45 4.40 37700 97100 (2019) 36900 (2018) 64900 37000 37100 65000 90500 93600
2021-01-21 11:45 4.42 37800 97100 (2019) 36900 (2018) 64900 37000 37100 65000 90500 93600
2021-01-21 10:45 4.40 37700 97100 (2019) 36900 (2018) 64900 37000 37100 65000 90500 93600
2021-01-21 09:45 4.42 37800 97100 (2019) 36900 (2018) 64900 37000 37100 65000 90500 93600
2021-01-21 08:45 4.43 37900 97100 (2019) 36900 (2018) 64900 37000 37100 65000 90500 93600
2021-01-21 07:45 4.44 37900 97100 (2019) 36900 (2018) 64900 37000 37100 65000 90500 93600
2021-01-21 06:45 4.45 37900 97100 (2019) 36900 (2018) 64900 37000 37100 65000 90500 93600
2021-01-21 05:45 4.47 38000 97100 (2019) 36900 (2018) 64900 37000 37100 65000 90500 93600
2021-01-21 04:45 4.49 38100 97100 (2019) 36900 (2018) 64900 37000 37100 65000 90500 93600
2021-01-21 03:45 4.48 38100 97100 (2019) 36900 (2018) 64900 37000 37100 65000 90500 93600
2021-01-21 02:45 4.48 38100 97100 (2019) 36900 (2018) 64900 37000 37100 65000 90500 93600
2021-01-21 01:45 4.48 38100 97100 (2019) 36900 (2018) 64900 37000 37100 65000 90500 93600
2021-01-21 00:45 4.50 38100 97100 (2019) 36900 (2018) 64900 37000 37100 65000 90500 93600
2021-01-20 23:45 4.49 38100 108000 (2019) 36200 (2018) 68400 36300 36400 63000 105000 106000
2021-01-20 22:45 4.49 38100 108000 (2019) 36200 (2018) 68400 36300 36400 63000 105000 106000
2021-01-20 21:45 4.47 38000 108000 (2019) 36200 (2018) 68400 36300 36400 63000 105000 106000
2021-01-20 20:45 4.49 38100 108000 (2019) 36200 (2018) 68400 36300 36400 63000 105000 106000
2021-01-20 19:45 4.49 38100 108000 (2019) 36200 (2018) 68400 36300 36400 63000 105000 106000
2021-01-20 18:45 4.50 38100 108000 (2019) 36200 (2018) 68400 36300 36400 63000 105000 106000
2021-01-20 17:45 4.48 38100 108000 (2019) 36200 (2018) 68400 36300 36400 63000 105000 106000
2021-01-20 16:45 4.49 38100 108000 (2019) 36200 (2018) 68400 36300 36400 63000 105000 106000
2021-01-20 15:45 4.50 38100 108000 (2019) 36200 (2018) 68400 36300 36400 63000 105000 106000
2021-01-20 14:45 4.49 38100 108000 (2019) 36200 (2018) 68400 36300 36400 63000 105000 106000
2021-01-20 13:45 4.51 38200 108000 (2019) 36200 (2018) 68400 36300 36400 63000 105000 106000
2021-01-20 12:45 4.48 38100 108000 (2019) 36200 (2018) 68400 36300 36400 63000 105000 106000
2021-01-20 11:45 4.50 38100 108000 (2019) 36200 (2018) 68400 36300 36400 63000 105000 106000
2021-01-20 10:45 4.51 38200 108000 (2019) 36200 (2018) 68400 36300 36400 63000 105000 106000
2021-01-20 09:45 4.50 38100 108000 (2019) 36200 (2018) 68400 36300 36400 63000 105000 106000
2021-01-20 08:45 4.48 38100 108000 (2019) 36200 (2018) 68400 36300 36400 63000 105000 106000
2021-01-20 07:45 4.51 38200 108000 (2019) 36200 (2018) 68400 36300 36400 63000 105000 106000
2021-01-20 06:45 4.48 38100 108000 (2019) 36200 (2018) 68400 36300 36400 63000 105000 106000
2021-01-20 05:45 4.47 38000 108000 (2019) 36200 (2018) 68400 36300 36400 63000 105000 106000
2021-01-20 04:45 4.49 38100 108000 (2019) 36200 (2018) 68400 36300 36400 63000 105000 106000
2021-01-20 03:45 4.48 38100 108000 (2019) 36200 (2018) 68400 36300 36400 63000 105000 106000
2021-01-20 02:45 4.48 38100 108000 (2019) 36200 (2018) 68400 36300 36400 63000 105000 106000
2021-01-20 01:45 4.48 38100 108000 (2019) 36200 (2018) 68400 36300 36400 63000 105000 106000
2021-01-20 00:45 4.49 38100 108000 (2019) 36200 (2018) 68400 36300 36400 63000 105000 106000
2021-01-19 23:45 4.48 38100 121000 (2020) 36100 (2015) 68800 36200 36300 59900 105000 112000
2021-01-19 22:45 4.49 38100 121000 (2020) 36100 (2015) 68800 36200 36300 59900 105000 112000
2021-01-19 21:45 4.48 38100 121000 (2020) 36100 (2015) 68800 36200 36300 59900 105000 112000
2021-01-19 20:45 4.48 38100 121000 (2020) 36100 (2015) 68800 36200 36300 59900 105000 112000
2021-01-19 19:45 4.47 38000 121000 (2020) 36100 (2015) 68800 36200 36300 59900 105000 112000
2021-01-19 18:45 4.49 38100 121000 (2020) 36100 (2015) 68800 36200 36300 59900 105000 112000
2021-01-19 17:45 4.46 38000 121000 (2020) 36100 (2015) 68800 36200 36300 59900 105000 112000
2021-01-19 16:45 4.46 38000 121000 (2020) 36100 (2015) 68800 36200 36300 59900 105000 112000
2021-01-19 15:45 4.49 38100 121000 (2020) 36100 (2015) 68800 36200 36300 59900 105000 112000
2021-01-19 14:45 4.49 38100 121000 (2020) 36100 (2015) 68800 36200 36300 59900 105000 112000
2021-01-19 13:45 4.47 38000 121000 (2020) 36100 (2015) 68800 36200 36300 59900 105000 112000
2021-01-19 12:45 4.48 38100 121000 (2020) 36100 (2015) 68800 36200 36300 59900 105000 112000
2021-01-19 11:45 4.48 38100 121000 (2020) 36100 (2015) 68800 36200 36300 59900 105000 112000
2021-01-19 10:45 4.49 38100 121000 (2020) 36100 (2015) 68800 36200 36300 59900 105000 112000
2021-01-19 09:45 4.49 38100 121000 (2020) 36100 (2015) 68800 36200 36300 59900 105000 112000
2021-01-19 08:45 4.47 38000 121000 (2020) 36100 (2015) 68800 36200 36300 59900 105000 112000
2021-01-19 07:45 4.48 38100 121000 (2020) 36100 (2015) 68800 36200 36300 59900 105000 112000
2021-01-19 06:45 4.49 38100 121000 (2020) 36100 (2015) 68800 36200 36300 59900 105000 112000
2021-01-19 05:45 4.47 38000 121000 (2020) 36100 (2015) 68800 36200 36300 59900 105000 112000
2021-01-19 04:45 4.48 38100 121000 (2020) 36100 (2015) 68800 36200 36300 59900 105000 112000
2021-01-19 03:45 4.48 38100 121000 (2020) 36100 (2015) 68800 36200 36300 59900 105000 112000
2021-01-19 02:45 4.50 38100 121000 (2020) 36100 (2015) 68800 36200 36300 59900 105000 112000
2021-01-19 01:45 4.51 38200 121000 (2020) 36100 (2015) 68800 36200 36300 59900 105000 112000
2021-01-19 00:45 4.52 38200 121000 (2020) 36100 (2015) 68800 36200 36300 59900 105000 112000
2021-01-18 23:45 4.48 38100 115000 (2020) 36000 (2015) 66700 37200 38200 60300 96000 105000
2021-01-18 22:45 4.50 38100 115000 (2020) 36000 (2015) 66700 37200 38200 60300 96000 105000
2021-01-18 21:45 4.50 38100 115000 (2020) 36000 (2015) 66700 37200 38200 60300 96000 105000
2021-01-18 20:45 4.50 38100 115000 (2020) 36000 (2015) 66700 37200 38200 60300 96000 105000
2021-01-18 19:45 4.50 38100 115000 (2020) 36000 (2015) 66700 37200 38200 60300 96000 105000
2021-01-18 18:45 4.50 38100 115000 (2020) 36000 (2015) 66700 37200 38200 60300 96000 105000
2021-01-18 17:45 4.49 38100 115000 (2020) 36000 (2015) 66700 37200 38200 60300 96000 105000
2021-01-18 16:45 4.49 38100 115000 (2020) 36000 (2015) 66700 37200 38200 60300 96000 105000
2021-01-18 15:45 4.48 38100 115000 (2020) 36000 (2015) 66700 37200 38200 60300 96000 105000
2021-01-18 14:45 4.49 38100 115000 (2020) 36000 (2015) 66700 37200 38200 60300 96000 105000
2021-01-18 13:45 4.49 38100 115000 (2020) 36000 (2015) 66700 37200 38200 60300 96000 105000
2021-01-18 12:45 4.48 38100 115000 (2020) 36000 (2015) 66700 37200 38200 60300 96000 105000
2021-01-18 11:45 4.49 38100 115000 (2020) 36000 (2015) 66700 37200 38200 60300 96000 105000
2021-01-18 10:45 4.50 38100 115000 (2020) 36000 (2015) 66700 37200 38200 60300 96000 105000
2021-01-18 09:45 4.49 38100 115000 (2020) 36000 (2015) 66700 37200 38200 60300 96000 105000
2021-01-18 08:45 4.49 38100 115000 (2020) 36000 (2015) 66700 37200 38200 60300 96000 105000
2021-01-18 07:45 4.49 38100 115000 (2020) 36000 (2015) 66700 37200 38200 60300 96000 105000
2021-01-18 06:45 4.49 38100 115000 (2020) 36000 (2015) 66700 37200 38200 60300 96000 105000
2021-01-18 05:45 4.49 38100 115000 (2020) 36000 (2015) 66700 37200 38200 60300 96000 105000
2021-01-18 04:45 4.49 38100 115000 (2020) 36000 (2015) 66700 37200 38200 60300 96000 105000
2021-01-18 03:45 4.49 38100 115000 (2020) 36000 (2015) 66700 37200 38200 60300 96000 105000
2021-01-18 02:45 4.48 38100 115000 (2020) 36000 (2015) 66700 37200 38200 60300 96000 105000
2021-01-18 01:45 4.48 38100 115000 (2020) 36000 (2015) 66700 37200 38200 60300 96000 105000
2021-01-18 00:45 4.48 38100 115000 (2020) 36000 (2015) 66700 37200 38200 60300 96000 105000
2021-01-17 23:45 4.49 38100 97800 (2020) 35800 (2015) 64300 37700 39400 62400 89600 93400
2021-01-17 22:45 4.47 38000 97800 (2020) 35800 (2015) 64300 37700 39400 62400 89600 93400
2021-01-17 21:45 4.47 38000 97800 (2020) 35800 (2015) 64300 37700 39400 62400 89600 93400
2021-01-17 20:45 4.47 38000 97800 (2020) 35800 (2015) 64300 37700 39400 62400 89600 93400
2021-01-17 19:45 4.47 38000 97800 (2020) 35800 (2015) 64300 37700 39400 62400 89600 93400
2021-01-17 18:45 4.47 38000 97800 (2020) 35800 (2015) 64300 37700 39400 62400 89600 93400
2021-01-17 17:45 4.48 38100 97800 (2020) 35800 (2015) 64300 37700 39400 62400 89600 93400
2021-01-17 16:45 4.45 37900 97800 (2020) 35800 (2015) 64300 37700 39400 62400 89600 93400
2021-01-17 15:45 4.44 37900 97800 (2020) 35800 (2015) 64300 37700 39400 62400 89600 93400
2021-01-17 14:45 4.46 38000 97800 (2020) 35800 (2015) 64300 37700 39400 62400 89600 93400
2021-01-17 13:45 4.44 37900 97800 (2020) 35800 (2015) 64300 37700 39400 62400 89600 93400
2021-01-17 12:45 4.43 37900 97800 (2020) 35800 (2015) 64300 37700 39400 62400 89600 93400
2021-01-17 11:45 4.43 37900 97800 (2020) 35800 (2015) 64300 37700 39400 62400 89600 93400
2021-01-17 10:45 4.43 37900 97800 (2020) 35800 (2015) 64300 37700 39400 62400 89600 93400
2021-01-17 09:45 4.45 37900 97800 (2020) 35800 (2015) 64300 37700 39400 62400 89600 93400
2021-01-17 08:45 4.44 37900 97800 (2020) 35800 (2015) 64300 37700 39400 62400 89600 93400
2021-01-17 07:45 4.45 37900 97800 (2020) 35800 (2015) 64300 37700 39400 62400 89600 93400
2021-01-17 06:45 4.44 37900 97800 (2020) 35800 (2015) 64300 37700 39400 62400 89600 93400
2021-01-17 05:45 4.44 37900 97800 (2020) 35800 (2015) 64300 37700 39400 62400 89600 93400
2021-01-17 04:45 4.44 37900 97800 (2020) 35800 (2015) 64300 37700 39400 62400 89600 93400
2021-01-17 03:45 4.36 37600 97800 (2020) 35800 (2015) 64300 37700 39400 62400 89600 93400
2021-01-17 02:45 4.44 37900 97800 (2020) 35800 (2015) 64300 37700 39400 62400 89600 93400
2021-01-17 01:45 4.43 37900 97800 (2020) 35800 (2015) 64300 37700 39400 62400 89600 93400
2021-01-16 22:45 4.42 37800 99400 (2020) 34300 (2015) 65000 37000 39300 63900 90500 94700
2021-01-16 21:45 4.44 37900 99400 (2020) 34300 (2015) 65000 37000 39300 63900 90500 94700
2021-01-16 20:45 4.44 37900 99400 (2020) 34300 (2015) 65000 37000 39300 63900 90500 94700
2021-01-16 19:45 4.45 37900 99400 (2020) 34300 (2015) 65000 37000 39300 63900 90500 94700
2021-01-16 18:45 4.44 37900 99400 (2020) 34300 (2015) 65000 37000 39300 63900 90500 94700
2021-01-16 17:45 4.44 37900 99400 (2020) 34300 (2015) 65000 37000 39300 63900 90500 94700
2021-01-16 16:45 4.42 37800 99400 (2020) 34300 (2015) 65000 37000 39300 63900 90500 94700
2021-01-16 15:45 4.42 37800 99400 (2020) 34300 (2015) 65000 37000 39300 63900 90500 94700
2021-01-16 14:45 4.42 37800 99400 (2020) 34300 (2015) 65000 37000 39300 63900 90500 94700
2021-01-16 13:45 4.41 37800 99400 (2020) 34300 (2015) 65000 37000 39300 63900 90500 94700
2021-01-16 12:45 4.42 37800 99400 (2020) 34300 (2015) 65000 37000 39300 63900 90500 94700
2021-01-16 11:45 4.42 37800 99400 (2020) 34300 (2015) 65000 37000 39300 63900 90500 94700
2021-01-16 10:45 4.41 37800 99400 (2020) 34300 (2015) 65000 37000 39300 63900 90500 94700
2021-01-16 09:45 4.41 37800 99400 (2020) 34300 (2015) 65000 37000 39300 63900 90500 94700
2021-01-16 08:45 4.41 37800 99400 (2020) 34300 (2015) 65000 37000 39300 63900 90500 94700
2021-01-16 07:45 4.42 37800 99400 (2020) 34300 (2015) 65000 37000 39300 63900 90500 94700
2021-01-16 06:45 4.40 37700 99400 (2020) 34300 (2015) 65000 37000 39300 63900 90500 94700
2021-01-16 05:45 4.41 37800 99400 (2020) 34300 (2015) 65000 37000 39300 63900 90500 94700
2021-01-16 04:45 4.40 37700 99400 (2020) 34300 (2015) 65000 37000 39300 63900 90500 94700
2021-01-16 03:45 4.38 37600 99400 (2020) 34300 (2015) 65000 37000 39300 63900 90500 94700
2021-01-16 02:45 4.40 37700 99400 (2020) 34300 (2015) 65000 37000 39300 63900 90500 94700
2021-01-16 01:45 4.38 37600 99400 (2020) 34300 (2015) 65000 37000 39300 63900 90500 94700
2021-01-16 00:45 4.38 37600 99400 (2020) 34300 (2015) 65000 37000 39300 63900 90500 94700
2021-01-15 23:45 4.38 37600 103000 (2020) 32700 (2015) 65800 35700 38300 65100 92400 97400
2021-01-15 22:45 4.39 37700 103000 (2020) 32700 (2015) 65800 35700 38300 65100 92400 97400
2021-01-15 21:45 4.36 37600 103000 (2020) 32700 (2015) 65800 35700 38300 65100 92400 97400
2021-01-15 20:45 4.36 37600 103000 (2020) 32700 (2015) 65800 35700 38300 65100 92400 97400
2021-01-15 19:45 4.36 37600 103000 (2020) 32700 (2015) 65800 35700 38300 65100 92400 97400
2021-01-15 18:45 4.34 37500 103000 (2020) 32700 (2015) 65800 35700 38300 65100 92400 97400
2021-01-15 17:45 4.36 37600 103000 (2020) 32700 (2015) 65800 35700 38300 65100 92400 97400
2021-01-15 16:45 4.36 37600 103000 (2020) 32700 (2015) 65800 35700 38300 65100 92400 97400
2021-01-15 15:45 4.36 37600 103000 (2020) 32700 (2015) 65800 35700 38300 65100 92400 97400
2021-01-15 14:45 4.34 37500 103000 (2020) 32700 (2015) 65800 35700 38300 65100 92400 97400
2021-01-15 13:45 4.34 37500 103000 (2020) 32700 (2015) 65800 35700 38300 65100 92400 97400
2021-01-15 12:45 4.35 37500 103000 (2020) 32700 (2015) 65800 35700 38300 65100 92400 97400
2021-01-15 11:45 4.35 37500 103000 (2020) 32700 (2015) 65800 35700 38300 65100 92400 97400
2021-01-15 10:45 4.32 37400 103000 (2020) 32700 (2015) 65800 35700 38300 65100 92400 97400
2021-01-15 09:45 4.36 37600 103000 (2020) 32700 (2015) 65800 35700 38300 65100 92400 97400
2021-01-15 08:45 4.32 37400 103000 (2020) 32700 (2015) 65800 35700 38300 65100 92400 97400
2021-01-15 07:45 4.34 37500 103000 (2020) 32700 (2015) 65800 35700 38300 65100 92400 97400
2021-01-15 06:45 4.32 37400 103000 (2020) 32700 (2015) 65800 35700 38300 65100 92400 97400
2021-01-15 05:45 4.34 37500 103000 (2020) 32700 (2015) 65800 35700 38300 65100 92400 97400
2021-01-15 04:45 4.35 37500 103000 (2020) 32700 (2015) 65800 35700 38300 65100 92400 97400
2021-01-15 03:45 4.32 37400 103000 (2020) 32700 (2015) 65800 35700 38300 65100 92400 97400
2021-01-15 02:45 4.32 37400 103000 (2020) 32700 (2015) 65800 35700 38300 65100 92400 97400
2021-01-15 01:45 4.32 37400 103000 (2020) 32700 (2015) 65800 35700 38300 65100 92400 97400
2021-01-15 00:45 4.34 37500 103000 (2020) 32700 (2015) 65800 35700 38300 65100 92400 97400
2021-01-14 23:45 4.33 37400 115000 (2020) 32000 (2015) 68700 34700 37000 65900 99600 107000
2021-01-14 22:45 4.33 37400 115000 (2020) 32000 (2015) 68700 34700 37000 65900 99600 107000
2021-01-14 21:45 4.31 37400 115000 (2020) 32000 (2015) 68700 34700 37000 65900 99600 107000
2021-01-14 20:45 4.33 37400 115000 (2020) 32000 (2015) 68700 34700 37000 65900 99600 107000
2021-01-14 19:45 4.33 37400 115000 (2020) 32000 (2015) 68700 34700 37000 65900 99600 107000
2021-01-14 18:45 4.31 37400 115000 (2020) 32000 (2015) 68700 34700 37000 65900 99600 107000
2021-01-14 17:45 4.31 37400 115000 (2020) 32000 (2015) 68700 34700 37000 65900 99600 107000
2021-01-14 16:45 4.32 37400 115000 (2020) 32000 (2015) 68700 34700 37000 65900 99600 107000
2021-01-14 15:45 4.29 37300 115000 (2020) 32000 (2015) 68700 34700 37000 65900 99600 107000
2021-01-14 14:45 4.29 37300 115000 (2020) 32000 (2015) 68700 34700 37000 65900 99600 107000
2021-01-14 13:45 4.28 37200 115000 (2020) 32000 (2015) 68700 34700 37000 65900 99600 107000
2021-01-14 12:45 4.28 37200 115000 (2020) 32000 (2015) 68700 34700 37000 65900 99600 107000
2021-01-14 11:45 4.07 36400 115000 (2020) 32000 (2015) 68700 34700 37000 65900 99600 107000
2021-01-14 10:45 4.17 36800 115000 (2020) 32000 (2015) 68700 34700 37000 65900 99600 107000
2021-01-14 09:45 4.17 36800 115000 (2020) 32000 (2015) 68700 34700 37000 65900 99600 107000
2021-01-14 08:45 4.27 37200 115000 (2020) 32000 (2015) 68700 34700 37000 65900 99600 107000
2021-01-14 07:45 4.29 37300 115000 (2020) 32000 (2015) 68700 34700 37000 65900 99600 107000
2021-01-14 06:45 4.29 37300 115000 (2020) 32000 (2015) 68700 34700 37000 65900 99600 107000
2021-01-14 05:45 4.28 37200 115000 (2020) 32000 (2015) 68700 34700 37000 65900 99600 107000
2021-01-14 04:45 4.27 37200 115000 (2020) 32000 (2015) 68700 34700 37000 65900 99600 107000
2021-01-14 03:45 4.27 37200 115000 (2020) 32000 (2015) 68700 34700 37000 65900 99600 107000
2021-01-14 02:45 4.26 37200 115000 (2020) 32000 (2015) 68700 34700 37000 65900 99600 107000
2021-01-14 01:45 4.27 37200 115000 (2020) 32000 (2015) 68700 34700 37000 65900 99600 107000
2021-01-14 00:45 4.26 37200 115000 (2020) 32000 (2015) 68700 34700 37000 65900 99600 107000
2021-01-13 23:45 4.24 37100 152000 (2020) 32200 (2015) 77400 34800 37000 67200 118000 134000
2021-01-13 22:45 4.25 37100 152000 (2020) 32200 (2015) 77400 34800 37000 67200 118000 134000
2021-01-13 21:45 4.23 37000 152000 (2020) 32200 (2015) 77400 34800 37000 67200 118000 134000
2021-01-13 20:45 4.23 37000 152000 (2020) 32200 (2015) 77400 34800 37000 67200 118000 134000
2021-01-13 19:45 4.22 37000 152000 (2020) 32200 (2015) 77400 34800 37000 67200 118000 134000
2021-01-13 18:45 4.23 37000 152000 (2020) 32200 (2015) 77400 34800 37000 67200 118000 134000
2021-01-13 17:45 4.22 37000 152000 (2020) 32200 (2015) 77400 34800 37000 67200 118000 134000
2021-01-13 16:45 4.21 37000 152000 (2020) 32200 (2015) 77400 34800 37000 67200 118000 134000
2021-01-13 15:45 4.18 36800 152000 (2020) 32200 (2015) 77400 34800 37000 67200 118000 134000
2021-01-13 14:45 4.19 36900 152000 (2020) 32200 (2015) 77400 34800 37000 67200 118000 134000
2021-01-13 13:45 4.19 36900 152000 (2020) 32200 (2015) 77400 34800 37000 67200 118000 134000
2021-01-13 12:45 4.20 36900 152000 (2020) 32200 (2015) 77400 34800 37000 67200 118000 134000
2021-01-13 11:45 4.18 36800 152000 (2020) 32200 (2015) 77400 34800 37000 67200 118000 134000
2021-01-13 10:45 4.18 36800 152000 (2020) 32200 (2015) 77400 34800 37000 67200 118000 134000
2021-01-13 09:45 4.17 36800 152000 (2020) 32200 (2015) 77400 34800 37000 67200 118000 134000
2021-01-13 08:45 4.15 36700 152000 (2020) 32200 (2015) 77400 34800 37000 67200 118000 134000
2021-01-13 07:45 4.18 36800 152000 (2020) 32200 (2015) 77400 34800 37000 67200 118000 134000
2021-01-13 06:45 4.19 36900 152000 (2020) 32200 (2015) 77400 34800 37000 67200 118000 134000
2021-01-13 05:45 4.18 36800 152000 (2020) 32200 (2015) 77400 34800 37000 67200 118000 134000
2021-01-13 04:45 4.19 36900 152000 (2020) 32200 (2015) 77400 34800 37000 67200 118000 134000
2021-01-13 03:45 4.17 36800 152000 (2020) 32200 (2015) 77400 34800 37000 67200 118000 134000
2021-01-13 02:45 4.19 36900 152000 (2020) 32200 (2015) 77400 34800 37000 67200 118000 134000
2021-01-13 01:45 4.18 36800 152000 (2020) 32200 (2015) 77400 34800 37000 67200 118000 134000
2021-01-13 00:45 4.18 36800 152000 (2020) 32200 (2015) 77400 34800 37000 67200 118000 134000
2021-01-12 23:45 4.17 36800 169000 (2020) 33700 (2015) 84800 35900 37800 69900 138000 152000
2021-01-12 22:45 4.18 36800 169000 (2020) 33700 (2015) 84800 35900 37800 69900 138000 152000
2021-01-12 21:45 4.17 36800 169000 (2020) 33700 (2015) 84800 35900 37800 69900 138000 152000
2021-01-12 20:45 4.16 36700 169000 (2020) 33700 (2015) 84800 35900 37800 69900 138000 152000
2021-01-12 19:45 4.16 36700 169000 (2020) 33700 (2015) 84800 35900 37800 69900 138000 152000
2021-01-12 18:45 4.16 36700 169000 (2020) 33700 (2015) 84800 35900 37800 69900 138000 152000
2021-01-12 17:45 4.17 36800 169000 (2020) 33700 (2015) 84800 35900 37800 69900 138000 152000
2021-01-12 16:45 4.14 36700 169000 (2020) 33700 (2015) 84800 35900 37800 69900 138000 152000
2021-01-12 15:45 4.14 36700 169000 (2020) 33700 (2015) 84800 35900 37800 69900 138000 152000
2021-01-12 14:45 4.15 36700 169000 (2020) 33700 (2015) 84800 35900 37800 69900 138000 152000
2021-01-12 13:45 4.15 36700 169000 (2020) 33700 (2015) 84800 35900 37800 69900 138000 152000
2021-01-12 12:45 4.16 36700 169000 (2020) 33700 (2015) 84800 35900 37800 69900 138000 152000
2021-01-12 11:45 4.17 36800 169000 (2020) 33700 (2015) 84800 35900 37800 69900 138000 152000
2021-01-12 10:45 4.17 36800 169000 (2020) 33700 (2015) 84800 35900 37800 69900 138000 152000
2021-01-12 09:45 4.17 36800 169000 (2020) 33700 (2015) 84800 35900 37800 69900 138000 152000
2021-01-12 08:45 4.17 36800 169000 (2020) 33700 (2015) 84800 35900 37800 69900 138000 152000
2021-01-12 07:45 4.18 36800 169000 (2020) 33700 (2015) 84800 35900 37800 69900 138000 152000
2021-01-12 06:45 4.18 36800 169000 (2020) 33700 (2015) 84800 35900 37800 69900 138000 152000
2021-01-12 05:45 4.20 36900 169000 (2020) 33700 (2015) 84800 35900 37800 69900 138000 152000
2021-01-12 04:45 4.20 36900 169000 (2020) 33700 (2015) 84800 35900 37800 69900 138000 152000
2021-01-12 03:45 4.19 36900 169000 (2020) 33700 (2015) 84800 35900 37800 69900 138000 152000
2021-01-12 02:45 4.23 37000 169000 (2020) 33700 (2015) 84800 35900 37800 69900 138000 152000
2021-01-12 01:45 4.21 37000 169000 (2020) 33700 (2015) 84800 35900 37800 69900 138000 152000
2021-01-12 00:45 4.24 37100 169000 (2020) 33700 (2015) 84800 35900 37800 69900 138000 152000
2021-01-11 23:45 4.24 37100 143000 (2020) 34600 (2015) 83100 36600 38400 70600 141000 142000
2021-01-11 22:45 4.24 37100 143000 (2020) 34600 (2015) 83100 36600 38400 70600 141000 142000
2021-01-11 21:45 4.25 37100 143000 (2020) 34600 (2015) 83100 36600 38400 70600 141000 142000
2021-01-11 20:45 4.26 37200 143000 (2020) 34600 (2015) 83100 36600 38400 70600 141000 142000
2021-01-11 19:45 4.26 37200 143000 (2020) 34600 (2015) 83100 36600 38400 70600 141000 142000
2021-01-11 18:45 4.27 37200 143000 (2020) 34600 (2015) 83100 36600 38400 70600 141000 142000
2021-01-11 17:45 4.29 37300 143000 (2020) 34600 (2015) 83100 36600 38400 70600 141000 142000
2021-01-11 16:45 4.28 37200 143000 (2020) 34600 (2015) 83100 36600 38400 70600 141000 142000
2021-01-11 15:45 4.28 37200 143000 (2020) 34600 (2015) 83100 36600 38400 70600 141000 142000
2021-01-11 14:45 4.26 37200 143000 (2020) 34600 (2015) 83100 36600 38400 70600 141000 142000
2021-01-11 13:45 4.29 37300 143000 (2020) 34600 (2015) 83100 36600 38400 70600 141000 142000
2021-01-11 12:45 4.32 37400 143000 (2020) 34600 (2015) 83100 36600 38400 70600 141000 142000
2021-01-11 11:45 4.30 37300 143000 (2020) 34600 (2015) 83100 36600 38400 70600 141000 142000
2021-01-11 10:45 4.33 37400 143000 (2020) 34600 (2015) 83100 36600 38400 70600 141000 142000
2021-01-11 09:45 4.31 37400 143000 (2020) 34600 (2015) 83100 36600 38400 70600 141000 142000
2021-01-11 08:45 4.32 37400 143000 (2020) 34600 (2015) 83100 36600 38400 70600 141000 142000
2021-01-11 07:45 4.34 37500 143000 (2020) 34600 (2015) 83100 36600 38400 70600 141000 142000
2021-01-11 06:45 4.34 37500 143000 (2020) 34600 (2015) 83100 36600 38400 70600 141000 142000
2021-01-11 05:45 4.36 37600 143000 (2020) 34600 (2015) 83100 36600 38400 70600 141000 142000
2021-01-11 04:45 4.36 37600 143000 (2020) 34600 (2015) 83100 36600 38400 70600 141000 142000
2021-01-11 03:45 4.36 37600 143000 (2020) 34600 (2015) 83100 36600 38400 70600 141000 142000
2021-01-11 02:45 4.37 37600 143000 (2020) 34600 (2015) 83100 36600 38400 70600 141000 142000
2021-01-11 01:45 4.37 37600 143000 (2020) 34600 (2015) 83100 36600 38400 70600 141000 142000
2021-01-11 00:45 4.38 37600 143000 (2020) 34600 (2015) 83100 36600 38400 70600 141000 142000
2021-01-10 23:45 4.37 37600 145000 (2016) 34600 (2015) 74500 36500 38100 65500 109000 126000
2021-01-10 22:45 4.38 37600 145000 (2016) 34600 (2015) 74500 36500 38100 65500 109000 126000
2021-01-10 21:45 4.38 37600 145000 (2016) 34600 (2015) 74500 36500 38100 65500 109000 126000
2021-01-10 20:45 4.40 37700 145000 (2016) 34600 (2015) 74500 36500 38100 65500 109000 126000
2021-01-10 19:45 4.38 37600 145000 (2016) 34600 (2015) 74500 36500 38100 65500 109000 126000
2021-01-10 18:45 4.39 37700 145000 (2016) 34600 (2015) 74500 36500 38100 65500 109000 126000
2021-01-10 17:45 4.40 37700 145000 (2016) 34600 (2015) 74500 36500 38100 65500 109000 126000
2021-01-10 16:45 4.41 37800 145000 (2016) 34600 (2015) 74500 36500 38100 65500 109000 126000
2021-01-10 15:45 4.41 37800 145000 (2016) 34600 (2015) 74500 36500 38100 65500 109000 126000
2021-01-10 14:45 4.40 37700 145000 (2016) 34600 (2015) 74500 36500 38100 65500 109000 126000
2021-01-10 13:45 4.40 37700 145000 (2016) 34600 (2015) 74500 36500 38100 65500 109000 126000
2021-01-10 12:45 4.40 37700 145000 (2016) 34600 (2015) 74500 36500 38100 65500 109000 126000
2021-01-10 11:45 4.40 37700 145000 (2016) 34600 (2015) 74500 36500 38100 65500 109000 126000
2021-01-10 10:45 4.42 37800 145000 (2016) 34600 (2015) 74500 36500 38100 65500 109000 126000
2021-01-10 09:45 4.41 37800 145000 (2016) 34600 (2015) 74500 36500 38100 65500 109000 126000
2021-01-10 08:45 4.40 37700 145000 (2016) 34600 (2015) 74500 36500 38100 65500 109000 126000
2021-01-10 07:45 4.41 37800 145000 (2016) 34600 (2015) 74500 36500 38100 65500 109000 126000
2021-01-10 06:45 4.41 37800 145000 (2016) 34600 (2015) 74500 36500 38100 65500 109000 126000
2021-01-10 05:45 4.41 37800 145000 (2016) 34600 (2015) 74500 36500 38100 65500 109000 126000
2021-01-10 04:45 4.40 37700 145000 (2016) 34600 (2015) 74500 36500 38100 65500 109000 126000
2021-01-10 03:45 4.41 37800 145000 (2016) 34600 (2015) 74500 36500 38100 65500 109000 126000
2021-01-10 02:45 4.42 37800 145000 (2016) 34600 (2015) 74500 36500 38100 65500 109000 126000
2021-01-10 01:45 4.40 37700 145000 (2016) 34600 (2015) 74500 36500 38100 65500 109000 126000
2021-01-10 00:45 4.39 37700 145000 (2016) 34600 (2015) 74500 36500 38100 65500 109000 126000
2021-01-09 23:45 4.39 37700 122000 (2016) 34400 (2015) 69500 36200 37800 65300 98600 110000
2021-01-09 22:45 4.39 37700 122000 (2016) 34400 (2015) 69500 36200 37800 65300 98600 110000
2021-01-09 20:45 4.39 37700 122000 (2016) 34400 (2015) 69500 36200 37800 65300 98600 110000
2021-01-09 19:45 4.40 37700 122000 (2016) 34400 (2015) 69500 36200 37800 65300 98600 110000
2021-01-09 18:45 4.39 37700 122000 (2016) 34400 (2015) 69500 36200 37800 65300 98600 110000
2021-01-09 17:45 4.40 37700 122000 (2016) 34400 (2015) 69500 36200 37800 65300 98600 110000
2021-01-09 16:45 4.40 37700 122000 (2016) 34400 (2015) 69500 36200 37800 65300 98600 110000
2021-01-09 15:45 4.38 37600 122000 (2016) 34400 (2015) 69500 36200 37800 65300 98600 110000
2021-01-09 14:45 4.40 37700 122000 (2016) 34400 (2015) 69500 36200 37800 65300 98600 110000
2021-01-09 13:45 4.39 37700 122000 (2016) 34400 (2015) 69500 36200 37800 65300 98600 110000
2021-01-09 12:45 4.36 37600 122000 (2016) 34400 (2015) 69500 36200 37800 65300 98600 110000
2021-01-09 11:45 4.38 37600 122000 (2016) 34400 (2015) 69500 36200 37800 65300 98600 110000
2021-01-09 10:45 4.38 37600 122000 (2016) 34400 (2015) 69500 36200 37800 65300 98600 110000
2021-01-09 09:45 4.38 37600 122000 (2016) 34400 (2015) 69500 36200 37800 65300 98600 110000
2021-01-09 08:45 4.37 37600 122000 (2016) 34400 (2015) 69500 36200 37800 65300 98600 110000
2021-01-09 07:45 4.37 37600 122000 (2016) 34400 (2015) 69500 36200 37800 65300 98600 110000
2021-01-09 06:45 4.39 37700 122000 (2016) 34400 (2015) 69500 36200 37800 65300 98600 110000
2021-01-09 05:45 4.39 37700 122000 (2016) 34400 (2015) 69500 36200 37800 65300 98600 110000
2021-01-09 04:45 4.40 37700 122000 (2016) 34400 (2015) 69500 36200 37800 65300 98600 110000
2021-01-09 03:45 4.40 37700 122000 (2016) 34400 (2015) 69500 36200 37800 65300 98600 110000
2021-01-09 02:45 4.41 37800 122000 (2016) 34400 (2015) 69500 36200 37800 65300 98600 110000
2021-01-09 01:45 4.40 37700 122000 (2016) 34400 (2015) 69500 36200 37800 65300 98600 110000
2021-01-09 00:45 4.42 37800 122000 (2016) 34400 (2015) 69500 36200 37800 65300 98600 110000

A total of 2183 rows are displayed for years 2015 through 2020.